[[{"header":{"parameterUnit":"m.s-1","parameterCategory":1,"la1":30.6,"la2":28.766,"lo1":-90.7593,"lo2":-88.6598,"dy":0.0162,"dx":0.0183,"nx":116,"ny":114,"refTime":"2023-07-04T18:00:00:Z","depth":0,"parameterNumber":2,"parameterNumberName":"U-component_of_WINDS"},"data":[0.0,0.0,0.0,0.0,0.0,0.0,0.0,0.0,0.0,0.0,0.0,0.0,0.0,0.0,0.0,0.0,0.0,0.0,0.0,0.0,0.0,0.0,0.0,0.0,0.0,0.0,0.0,0.0,0.0,0.0,0.0,0.0,0.0,0.0,0.0,0.0,0.0,0.0,0.0,0.0,0.0,0.0,0.0,0.0,0.0,0.0,0.0,0.0,0.0,0.0,0.0,0.0,0.0,0.0,0.0,0.0,0.0,0.0,0.0,0.0,0.0,0.0,0.0,0.0,0.0,0.0,0.0,0.0,0.0,0.0,0.0,0.0,0.0,0.0,0.0,0.0,0.0,0.0,0.0,0.0,0.0,0.0,0.0,0.0,0.0,0.0,0.0,0.0,0.0,0.0,0.0,0.0,0.0,0.0,0.0,0.0,0.0,0.0,0.0,0.0,0.0,0.0,0.0,0.0,0.0,0.0,0.0,0.0,0.0,0.0,0.0,0.0,0.0,0.0,0.0,0.0,0.0,0.0,0.0,0.0,0.0,0.0,0.0,0.0,0.0,0.0,0.0,0.0,0.0,0.0,0.0,0.0,0.0,0.0,0.0,0.0,0.0,0.0,0.0,0.0,0.0,0.0,0.0,0.0,0.0,0.0,0.0,0.0,0.0,0.0,0.0,0.0,0.0,0.0,0.0,0.0,0.0,0.0,0.0,0.0,0.0,0.0,0.0,0.0,0.0,0.0,0.0,0.0,0.0,0.0,0.0,0.0,0.0,0.0,0.0,0.0,0.0,0.0,0.0,0.0,0.0,0.0,0.0,0.0,0.0,0.0,0.0,0.0,0.0,0.0,0.0,0.0,0.0,0.0,0.0,0.0,0.0,0.0,0.0,0.0,0.0,0.0,0.0,0.0,0.0,0.0,0.0,0.0,0.0,0.0,0.0,0.0,0.0,0.0,0.0,0.0,0.0,0.0,0.0,0.0,0.0,0.0,0.0,0.0,0.0,0.0,0.0,0.0,0.0,0.0,0.0,0.0,0.0,0.0,0.0,0.0,0.0,0.0,0.0,0.0,0.0,0.0,0.0,0.0,0.0,0.0,0.0,0.0,0.0,0.0,0.0,0.0,0.0,0.0,0.0,0.0,0.0,0.0,0.0,0.0,0.0,0.0,0.0,0.0,0.0,0.0,0.0,0.0,0.0,0.0,0.0,0.0,0.0,0.0,0.0,0.0,0.0,0.0,0.0,0.0,0.0,0.0,0.0,0.0,0.0,0.0,0.0,0.0,0.0,0.0,0.0,0.0,0.0,0.0,0.0,0.0,0.0,0.0,0.0,0.0,0.0,0.0,0.0,0.0,0.0,0.0,0.0,0.0,0.0,0.0,0.0,0.0,0.0,0.0,0.0,0.0,0.0,0.0,0.0,0.0,0.0,0.0,0.0,0.0,0.0,0.0,0.0,0.0,0.0,0.0,0.0,0.0,0.0,0.0,0.0,0.0,0.0,0.0,0.0,0.0,0.0,0.0,0.0,0.0,0.0,0.0,0.0,0.0,0.0,0.0,0.0,0.0,0.0,0.0,0.0,0.0,0.0,0.0,0.0,0.0,0.0,0.0,0.0,0.0,0.0,0.0,0.0,0.0,0.0,0.0,0.0,0.0,0.0,0.0,0.0,0.0,0.0,0.0,0.0,0.0,0.0,0.0,0.0,0.0,0.0,0.0,0.0,0.0,0.0,0.0,0.0,0.0,0.0,0.0,0.0,0.0,0.0,0.0,0.0,0.0,0.0,0.0,0.0,0.0,0.0,0.0,0.0,0.0,0.0,0.0,0.0,0.0,0.0,0.0,0.0,0.0,0.0,0.0,0.0,0.0,0.0,0.0,0.0,0.0,0.0,0.0,0.0,0.0,0.0,0.0,0.0,0.0,0.0,0.0,0.0,0.0,0.0,0.0,0.0,0.0,0.0,0.0,0.0,0.0,0.0,0.0,0.0,0.0,0.0,0.0,0.0,0.0,0.0,0.0,0.0,0.0,0.0,0.0,0.0,0.0,0.0,0.0,0.0,0.0,0.0,0.0,0.0,0.0,0.0,0.0,0.0,0.0,0.0,0.0,0.0,0.0,0.0,0.0,0.0,0.0,0.0,0.0,0.0,0.0,0.0,0.0,0.0,0.0,0.0,0.0,0.0,0.0,0.0,0.0,0.0,0.0,0.0,0.0,0.0,0.0,0.0,0.0,0.0,0.0,0.0,0.0,0.0,0.0,0.0,0.0,0.0,0.0,0.0,0.0,0.0,0.0,0.0,0.0,0.0,0.0,0.0,0.0,0.0,0.0,0.0,0.0,0.0,0.0,0.0,0.0,0.0,0.0,0.0,0.0,0.0,0.0,0.0,0.0,0.0,0.0,0.0,0.0,0.0,0.0,0.0,0.0,0.0,0.0,0.0,0.0,0.0,0.0,0.0,0.0,0.0,0.0,0.0,0.0,0.0,0.0,0.0,0.0,0.0,0.0,0.0,0.0,0.0,0.0,0.0,0.0,0.0,0.0,0.0,0.0,0.0,0.0,0.0,0.0,0.0,0.0,0.0,0.0,0.0,0.0,0.0,0.0,0.0,0.0,0.0,0.0,0.0,0.0,0.0,0.0,0.0,0.0,0.0,0.0,0.0,0.0,0.0,0.0,0.0,0.0,0.0,0.0,0.0,0.0,0.0,0.0,0.0,0.0,0.0,0.0,0.0,0.0,0.0,0.0,0.0,0.0,0.0,0.0,0.0,0.0,0.0,0.0,0.0,0.0,0.0,0.0,0.0,0.0,0.0,0.0,0.0,0.0,0.0,0.0,0.0,0.0,0.0,0.0,0.0,0.0,0.0,0.0,0.0,0.0,0.0,0.0,0.0,0.0,0.0,0.0,0.0,0.0,0.0,0.0,0.0,0.0,0.0,0.0,0.0,0.0,0.0,0.0,0.0,0.0,0.0,0.0,0.0,0.0,0.0,0.0,0.0,0.0,0.0,0.0,0.0,0.0,0.0,0.0,0.0,0.0,0.0,0.0,0.0,0.0,0.0,0.0,0.0,0.0,0.0,0.0,0.0,0.0,0.0,0.0,0.0,0.0,0.0,0.0,0.0,0.0,0.0,0.0,0.0,0.0,0.0,0.0,0.0,0.0,0.0,0.0,0.0,0.0,0.0,0.0,0.0,0.0,0.0,0.0,0.0,0.0,0.0,0.0,0.0,0.0,0.0,0.0,0.0,0.0,0.0,0.0,0.0,0.0,0.0,0.0,0.0,0.0,0.0,0.0,0.0,0.0,0.0,0.0,0.0,0.0,0.0,0.0,0.0,0.0,0.0,0.0,0.0,0.0,0.0,0.0,0.0,0.0,0.0,0.0,0.0,0.0,0.0,0.0,0.0,0.0,0.0,0.0,0.0,0.0,0.0,0.0,0.0,0.0,0.0,0.0,0.0,0.0,0.0,0.0,0.0,0.0,0.0,0.0,0.0,0.0,0.0,0.0,0.0,0.0,0.0,0.0,0.0,0.0,0.0,0.0,0.0,0.0,0.0,0.0,0.0,0.0,0.0,0.0,0.0,0.0,0.0,0.0,0.0,0.0,0.0,0.0,0.0,0.0,0.0,0.0,0.0,0.0,0.0,0.0,0.0,0.0,0.0,0.0,0.0,0.0,0.0,0.0,0.0,0.0,0.0,0.0,0.0,0.0,0.0,0.0,0.0,0.0,0.0,0.0,0.0,0.0,0.0,0.0,0.0,0.0,0.0,0.0,0.0,0.0,0.0,0.0,0.0,0.0,0.0,0.0,0.0,0.0,0.0,0.0,0.0,0.0,0.0,0.0,0.0,0.0,0.0,0.0,0.0,0.0,0.0,0.0,0.0,0.0,0.0,0.0,0.0,0.0,0.0,0.0,0.0,0.0,0.0,0.0,0.0,0.0,0.0,0.0,0.0,0.0,0.0,0.0,0.0,0.0,0.0,0.0,0.0,0.0,0.0,0.0,0.0,0.0,0.0,0.0,0.0,0.0,0.0,0.0,0.0,0.0,0.0,0.0,0.0,0.0,0.0,0.0,0.0,0.0,0.0,0.0,0.0,0.0,0.0,0.0,0.0,0.0,0.0,0.0,0.0,0.0,0.0,0.0,0.0,0.0,0.0,0.0,0.0,0.0,0.0,0.0,0.0,0.0,0.0,0.0,0.0,0.0,0.0,0.0,0.0,0.0,0.0,0.0,0.0,0.0,0.0,0.0,0.0,0.0,0.0,0.0,0.0,0.0,0.0,0.0,0.0,0.0,0.0,0.0,0.0,0.0,0.0,0.0,0.0,0.0,0.0,0.0,0.0,0.0,0.0,0.0,0.0,0.0,0.0,0.0,0.0,0.0,0.0,0.0,0.0,0.0,0.0,0.0,0.0,0.0,0.0,0.0,0.0,0.0,0.0,0.0,0.0,0.0,0.0,0.0,0.0,0.0,0.0,0.0,0.0,0.0,0.0,0.0,0.0,0.0,0.0,0.0,0.0,0.0,0.0,0.0,0.0,0.0,0.0,0.0,0.0,0.0,0.0,0.0,0.0,0.0,0.0,0.0,0.0,0.0,0.0,0.0,0.0,0.0,0.0,0.0,0.0,0.0,0.0,0.0,0.0,0.0,0.0,0.0,0.0,0.0,0.0,0.0,0.0,0.0,0.0,0.0,0.0,0.0,0.0,0.0,0.0,0.0,0.0,0.0,0.0,0.0,0.0,0.0,0.0,0.0,0.0,0.0,0.0,0.0,0.0,0.0,0.0,0.0,0.0,0.0,0.0,0.0,0.0,0.0,0.0,0.0,0.0,0.0,0.0,0.0,0.0,0.0,0.0,0.0,0.0,0.0,0.0,0.0,0.0,0.0,0.0,0.0,0.0,0.0,0.0,0.0,0.0,0.0,0.0,0.0,0.0,0.0,0.0,0.0,0.0,0.0,0.0,0.0,0.0,0.0,0.0,0.0,0.0,0.0,0.0,0.0,0.0,0.0,0.0,0.0,0.0,0.0,0.0,0.0,0.0,0.0,0.0,0.0,0.0,0.0,0.0,0.0,0.0,0.0,0.0,0.0,0.0,0.0,0.0,0.0,0.0,0.0,0.0,0.0,0.0,0.0,0.0,0.0,0.0,0.0,0.0,0.0,0.0,0.0,0.0,0.0,0.0,0.0,0.0,0.0,0.0,0.0,0.0,0.0,0.0,0.0,0.0,0.0,0.0,0.0,0.0,0.0,0.0,0.0,0.0,0.0,0.0,0.0,0.0,0.0,0.0,0.0,0.0,0.0,0.0,0.0,0.0,0.0,0.0,0.0,0.0,0.0,0.0,0.0,0.0,0.0,0.0,0.0,0.0,0.0,0.0,0.0,0.0,0.0,0.0,0.0,0.0,0.0,0.0,0.0,0.0,0.0,0.0,0.0,0.0,0.0,0.0,0.0,0.0,0.0,0.0,0.0,0.0,0.0,0.0,0.0,0.0,0.0,0.0,0.0,0.0,0.0,0.0,0.0,0.0,0.0,0.0,0.0,0.0,0.0,0.0,0.0,0.0,0.0,0.0,0.0,0.0,0.0,0.0,0.0,0.0,0.0,0.0,0.0,0.0,0.0,0.0,0.0,0.0,0.0,0.0,0.0,0.0,0.0,0.0,0.0,0.0,0.0,0.0,0.0,0.0,0.0,0.0,0.0,0.0,0.0,0.0,0.0,0.0,0.0,0.0,0.0,0.0,0.0,0.0,0.0,0.0,0.0,0.0,0.0,0.0,0.0,0.0,0.0,0.0,0.0,0.0,0.0,0.0,0.0,0.0,0.0,0.0,0.0,0.0,0.0,0.0,0.0,0.0,0.0,0.0,0.0,0.0,0.0,0.0,0.0,0.0,0.0,0.0,0.0,0.0,0.0,0.0,0.0,0.0,0.0,0.0,0.0,0.0,0.0,0.0,0.0,0.0,0.0,0.0,0.0,0.0,0.0,0.0,0.0,0.0,0.0,0.0,0.0,0.0,0.0,0.0,0.0,0.0,0.0,0.0,0.0,0.0,0.0,0.0,0.0,0.0,0.0,0.0,0.0,0.0,0.0,0.0,0.0,0.0,0.0,0.0,0.0,1.8012,0.0,0.0,0.0,0.0,0.0,0.0,0.0,0.0,0.0,0.0,0.0,0.0,0.0,0.0,0.0,0.0,0.0,0.0,0.0,0.0,0.0,0.0,0.0,0.0,0.0,0.0,0.0,0.0,0.0,0.0,0.0,0.0,0.0,0.0,0.0,0.0,0.0,0.0,0.0,0.0,0.0,0.0,0.0,0.0,0.0,0.0,0.0,0.0,0.0,0.0,0.0,0.0,0.0,0.0,0.0,0.0,0.0,0.0,0.0,0.0,0.0,0.0,0.0,0.0,0.0,0.0,0.0,0.0,0.0,0.0,0.0,0.0,0.0,0.0,0.0,0.0,0.0,0.0,0.0,0.0,0.0,0.0,0.0,0.0,0.0,0.0,0.0,0.0,0.0,0.0,0.0,0.0,0.0,0.0,0.0,0.0,0.0,0.0,0.0,0.0,0.0,0.0,0.0,0.0,0.0,0.0,0.0,0.0,0.0,0.0,0.0,0.0,0.0,0.0,0.0,0.0,1.8612,0.0,0.0,0.0,0.0,0.0,0.0,0.0,0.0,0.0,0.0,0.0,0.0,0.0,0.0,0.0,0.0,0.0,0.0,0.0,0.0,0.0,0.0,0.0,0.0,0.0,0.0,0.0,0.0,0.0,0.0,0.0,0.0,0.0,0.0,0.0,0.0,0.0,0.0,0.0,0.0,0.0,0.0,0.0,0.0,0.0,0.0,0.0,0.0,0.0,0.0,0.0,0.0,0.0,0.0,0.0,0.0,0.0,0.0,0.0,0.0,0.0,0.0,0.0,0.0,0.0,0.0,0.0,0.0,0.0,0.0,0.0,0.0,0.0,0.0,0.0,0.0,0.0,0.0,0.0,0.0,0.0,0.0,0.0,0.0,0.0,0.0,0.0,0.0,0.0,0.0,0.0,0.0,0.0,0.0,0.0,0.0,0.0,0.0,0.0,0.0,0.0,0.0,0.0,0.0,0.0,0.0,0.0,0.0,1.848,1.8544,1.8631,1.8631,1.8337,1.774,1.8473,1.8358,1.7882,1.9103,0.0,0.0,0.0,0.0,0.0,0.0,0.0,0.0,0.0,0.0,0.0,0.0,0.0,0.0,0.0,0.0,0.0,0.0,0.0,0.0,0.0,0.0,0.0,0.0,0.0,0.0,0.0,0.0,0.0,0.0,0.0,0.0,0.0,0.0,0.0,0.0,0.0,0.0,1.5416,1.5421,1.5477,1.5601,0.0,0.0,0.0,0.0,0.0,0.0,0.0,0.0,0.0,0.0,0.0,0.0,0.0,0.0,0.0,0.0,0.0,0.0,0.0,0.0,0.0,0.0,0.0,0.0,0.0,0.0,0.0,0.0,0.0,0.0,0.0,0.0,0.0,0.0,0.0,0.0,0.0,0.0,0.0,0.0,0.0,0.0,0.0,0.0,1.6864,1.6965,0.0,0.0,0.0,0.0,0.0,0.0,0.0,0.0,0.0,0.0,0.0,0.0,0.0,1.789,1.8215,1.761,1.7701,1.8491,1.7488,1.7233,1.7601,1.7601,1.7546,1.75,1.7932,0.0,1.7791,1.8023,0.0,0.0,0.0,0.0,0.0,0.0,0.0,0.0,0.0,0.0,0.0,0.0,0.0,0.0,0.0,0.0,0.0,0.0,0.0,0.0,0.0,0.0,0.0,0.0,0.0,0.0,0.0,0.0,0.0,0.0,0.0,0.0,0.0,0.0,0.0,0.0,0.0,1.5109,1.5375,1.5375,1.5375,1.5385,1.539,1.53,1.5129,1.4741,0.0,0.0,0.0,0.0,0.0,0.0,0.0,0.0,0.0,0.0,0.0,0.0,0.0,0.0,0.0,0.0,0.0,0.0,0.0,0.0,0.0,0.0,0.0,0.0,0.0,0.0,0.0,0.0,0.0,0.0,0.0,0.0,0.0,0.0,0.0,0.0,0.0,0.0,0.0,1.72,1.7256,1.7412,1.7722,1.8201,0.0,0.0,0.0,0.0,0.0,0.0,0.0,0.0,0.0,1.7377,1.7578,1.7588,1.7388,1.7348,1.7493,1.7875,1.7553,1.7549,1.7734,1.7734,1.7734,1.7744,1.793,1.7984,1.7926,1.8111,1.8486,1.8928,0.0,0.0,0.0,0.0,1.8585,1.8416,0.0,0.0,0.0,0.0,0.0,0.0,0.0,0.0,0.0,0.0,0.0,0.0,0.0,0.0,0.0,1.0477,0.0,0.0,0.0,0.0,0.0,0.0,0.0,0.0,0.0,0.0,0.0,0.0,0.0,0.0,1.541,1.5303,1.5312,1.541,1.541,1.5357,1.5215,1.5022,1.4656,0.0,0.0,0.0,0.0,0.0,0.0,0.0,0.0,0.0,0.0,0.0,0.0,0.0,0.0,0.0,0.0,0.0,0.0,0.0,0.0,0.0,0.0,0.0,0.0,0.0,0.0,0.0,0.0,0.0,0.0,0.0,0.0,0.0,0.0,0.0,0.0,0.0,0.0,1.719,1.729,1.7667,1.7699,1.8081,0.0,0.0,0.0,0.0,0.0,0.0,1.7665,1.7959,1.7814,1.7071,1.739,1.7375,1.7061,1.7275,1.749,1.7705,1.791,1.8066,1.8164,1.8164,1.8164,1.8164,1.8164,1.8105,1.8056,1.8299,1.841,1.8521,1.8714,1.8852,1.8862,1.8682,1.8409,1.8148,0.0,0.0,0.0,0.0,0.0,0.0,0.0,0.0,0.0,0.0,0.0,0.0,0.0,0.0,0.9768,0.9953,1.0372,1.0906,0.0,0.0,0.0,0.0,0.0,0.0,0.0,0.0,0.0,0.0,0.0,0.0,0.0,0.0,0.0,0.0,1.541,1.5176,1.4841,1.4814,1.4551,1.4102,0.0,0.0,0.0,0.0,0.0,0.0,0.0,0.0,0.0,0.0,0.0,0.0,0.0,0.0,0.0,0.0,0.0,0.0,0.0,0.0,0.0,0.0,0.0,0.0,0.0,0.0,0.0,0.0,0.0,0.0,0.0,0.0,0.0,0.0,0.0,0.0,0.0,0.0,0.0,1.7146,1.6606,0.0,0.0,0.0,0.0,1.8248,1.8282,1.8134,1.7819,1.78,1.7472,1.6762,1.6719,1.7119,1.7939,1.7568,1.7783,1.8574,1.8193,1.8223,1.8603,1.8603,1.8603,1.8603,1.8603,1.8379,1.8008,1.8056,1.8181,1.8489,1.8521,1.8665,1.8791,1.8086,1.8124,1.8363,0.0,0.0,0.0,0.0,0.0,0.0,0.0,0.0,0.0,0.0,0.0,0.0,0.0,0.9504,0.9739,0.9785,1.0087,1.0328,1.0368,0.0,0.0,0.0,0.0,0.0,0.0,0.0,0.0,0.0,0.0,0.0,0.0,0.0,0.0,0.0,0.0,0.0,0.0,1.5303,1.512,1.4934,1.4656,1.4143,0.0,0.0,0.0,0.0,0.0,0.0,0.0,0.0,0.0,0.0,0.0,0.0,0.0,0.0,0.0,0.0,0.0,0.0,0.0,0.0,0.0,0.0,0.0,0.0,0.0,0.0,0.0,0.0,0.0,0.0,0.0,0.0,0.0,0.0,0.0,0.0,0.0,1.7291,1.7252,0.0,1.8119,1.7825,1.7733,1.7952,1.7561,1.7348,1.755,1.7775,1.7932,1.7949,1.8232,1.8525,1.8828,1.8682,1.876,1.9053,1.8906,1.8906,1.9053,1.9053,1.9053,1.9053,1.9053,1.8975,1.8809,1.8525,1.8291,1.8165,1.8165,1.8572,1.9052,1.8243,1.8726,1.9759,0.0,0.0,0.0,0.0,0.0,0.0,0.0,0.0,0.0,0.0,0.0,0.9043,0.929,0.9444,0.9583,0.9717,0.9766,0.9795,0.9819,0.0,0.0,0.0,0.0,0.0,0.0,0.0,0.0,0.0,0.0,0.0,0.0,0.0,0.0,0.0,0.0,0.0,0.0,0.0,0.0,1.5778,1.5355,1.4903,1.4439,0.0,0.0,0.0,0.0,0.0,0.0,0.0,0.0,0.0,0.0,0.0,0.0,0.0,0.0,0.0,0.0,0.0,0.0,0.0,0.0,0.0,0.0,0.0,0.0,0.0,0.0,0.0,0.0,0.0,0.0,0.0,0.0,0.0,0.0,0.0,1.7245,1.7874,1.7802,1.7905,1.8605,1.8061,1.7798,1.8029,1.7615,1.7568,1.7998,1.8291,1.8574,1.8848,1.9141,1.9355,1.9502,1.9355,1.9355,1.9502,1.9355,1.9365,1.9502,1.9648,1.9639,1.9502,1.9648,1.9551,1.9268,1.8975,1.8691,1.8428,1.8281,1.8841,1.9703,1.8775,1.9363,2.0566,0.0,0.0,0.0,0.0,0.0,0.0,0.0,0.0,0.0,0.0,0.8958,0.9008,0.9287,0.9234,0.9359,0.9659,0.9412,0.9501,1.023,0.9992,0.0,0.0,0.0,0.0,0.0,0.0,0.0,0.0,0.0,0.0,0.0,0.0,0.0,0.0,0.0,0.0,0.0,0.0,0.0,0.0,1.6247,1.6058,1.5919,0.0,0.0,0.0,0.0,0.0,0.0,0.0,0.0,0.0,0.0,0.0,0.0,0.0,0.0,0.0,0.0,0.0,0.0,0.0,0.0,0.0,0.0,0.0,0.0,0.0,0.0,0.0,0.0,0.0,0.0,0.0,0.0,0.0,1.7364,1.7389,1.7833,1.8976,1.8121,1.7919,1.9034,1.8121,1.7793,1.8613,1.8601,1.8867,1.9307,1.9336,1.9346,1.9346,1.9365,1.9561,1.9951,1.9551,1.9551,1.9951,1.9541,1.957,1.999,2.041,2.0371,1.998,2.04,2.0183,1.9399,1.938,1.938,1.935,1.8828,1.9535,2.0684,1.964,1.9909,2.0804,0.0,0.0,0.0,0.0,0.0,0.0,0.0,0.0,0.0,0.0,0.8921,0.908,0.9549,0.9375,0.9359,0.9659,0.9412,0.9221,0.93,0.0,0.0,0.0,0.0,0.0,0.0,0.0,0.0,0.0,0.0,0.0,0.0,0.0,0.0,0.0,0.0,0.0,0.0,0.0,0.0,0.0,0.0,1.5994,1.533,0.0,0.0,0.0,0.0,0.0,0.0,0.0,0.0,0.0,0.0,0.0,0.0,0.0,0.0,0.0,0.0,0.0,0.0,0.0,0.0,0.0,0.0,0.0,0.0,0.0,0.0,0.0,0.0,0.0,0.0,0.0,0.0,1.762,1.746,1.7645,1.8071,1.8702,1.8774,1.887,1.9191,1.897,1.8984,1.9521,1.9561,1.9756,2.0195,2.0527,2.0703,2.0703,2.1006,2.1074,2.0869,2.0762,2.0762,2.0869,2.0752,2.0928,2.1348,2.1465,2.1289,2.0879,2.0996,2.1103,2.1277,2.0947,2.1439,2.2101,1.9958,1.9736,2.0542,1.963,1.9636,2.0239,0.0,0.0,0.0,0.0,0.0,0.0,0.0,0.0,0.0,0.0,0.8881,0.9045,0.9435,0.9232,0.9178,0.9472,0.9228,0.9044,0.8898,0.0,0.0,0.0,0.0,0.0,0.0,0.0,0.0,0.0,0.0,0.0,0.0,0.0,0.0,0.0,0.0,0.0,0.0,0.0,0.0,0.0,0.0,0.0,1.6278,1.6111,1.6072,1.5975,1.5859,1.5913,1.6019,1.5301,0.0,0.0,0.0,0.0,0.0,0.0,0.0,0.0,0.0,0.0,0.0,0.0,0.0,0.0,0.0,0.0,0.0,0.0,0.0,0.0,0.0,0.0,0.0,0.0,1.7999,1.814,1.8684,1.8613,1.8701,1.9121,1.9394,1.9619,1.9805,1.9824,2.0,2.0439,2.0635,2.085,2.1103,2.1367,2.1504,2.1504,2.1758,2.1768,2.1514,2.1504,2.1504,2.1504,2.1504,2.1641,2.1894,2.207,2.1816,2.125,2.1426,2.1451,2.1431,2.1175,2.1582,2.2189,0.0,0.0,0.0,0.0,2.1446,2.1315,0.0,0.0,0.0,0.0,0.0,0.0,0.0,0.0,0.0,0.0,0.0,0.8973,0.9193,0.8978,0.8911,0.9165,0.9003,0.8905,0.0,0.0,0.0,0.0,0.0,0.0,0.0,0.0,0.0,0.0,0.0,0.0,0.0,0.0,0.0,0.0,0.0,0.0,0.0,0.0,0.0,0.0,0.0,0.0,1.7949,1.6797,1.6743,1.7212,1.6427,1.6336,1.6472,1.5343,0.0,0.0,0.0,0.0,0.0,0.0,0.0,0.0,0.0,0.0,0.0,0.0,0.0,0.0,0.0,0.0,0.0,0.0,0.0,0.0,0.0,0.0,0.0,0.0,1.8496,1.8828,2.0352,2.0,1.9717,2.0098,2.0137,2.0293,2.0684,2.0713,2.0898,2.1348,2.1738,2.1953,2.1953,0.0,0.0,0.0,0.0,2.2002,2.1953,2.1953,2.1953,2.1953,2.1953,2.1982,2.2041,2.2412,2.2139,2.1396,2.1787,2.1536,2.0868,2.0936,2.1158,2.1405,2.228,2.3444,2.4636,2.4636,2.3881,2.301,0.0,0.0,0.0,0.0,0.0,0.0,0.0,0.0,0.0,0.8929,0.8881,0.8973,0.9193,0.8978,0.8937,0.9256,0.9031,0.8904,0.0,0.0,0.0,0.0,0.0,0.0,0.0,0.0,0.0,0.0,0.0,0.0,0.0,0.0,0.0,0.0,0.0,0.0,0.0,0.0,0.0,0.0,0.0,0.0,1.8486,1.8232,1.7529,1.6716,1.6551,1.6347,1.6067,1.586,1.5386,1.5002,1.5535,0.0,0.0,0.0,0.0,0.0,0.0,0.0,0.0,0.0,0.0,0.0,0.0,0.0,0.0,0.0,0.0,0.0,0.0,0.0,0.0,1.867,1.9511,2.0185,2.0518,2.1035,2.1416,2.1494,2.1504,2.1543,2.1621,2.1631,2.1807,2.2236,2.2344,2.2393,2.2393,2.2715,2.2744,2.2402,2.2715,2.2734,2.2393,2.2393,2.2393,2.2393,2.2393,0.0,2.29,2.2978,2.2744,2.2266,2.2353,2.2369,2.2372,2.3133,2.4482,2.5636,2.2306,2.1673,2.2553,2.2553,2.2703,2.2939,0.0,0.0,0.0,0.0,0.0,0.0,0.0,0.0,0.0,0.0,0.8956,0.8982,0.9062,0.8941,0.8898,0.9089,0.8999,0.0,0.0,0.0,0.0,0.0,0.0,0.0,0.0,0.0,0.0,0.0,0.0,0.0,0.0,0.0,0.0,0.0,0.0,0.0,0.0,0.0,0.0,0.0,0.0,0.0,1.9551,1.9121,1.8533,1.7939,1.7661,1.7165,1.6555,1.6351,1.5748,1.5152,1.5724,1.5128,1.433,0.0,0.0,0.0,0.0,0.0,0.0,0.0,0.0,0.0,0.0,0.0,0.0,0.0,0.0,1.8185,0.0,0.0,1.9485,1.9869,2.0485,2.1055,2.1484,2.1924,2.2119,2.1904,2.1885,2.1885,2.1885,2.207,2.2285,2.249,2.2705,2.2822,2.2822,2.3027,2.3047,2.2832,2.3027,2.3037,2.2822,2.2822,2.2822,2.2822,2.2822,2.2939,2.3135,2.3135,2.291,2.251,2.251,2.2379,2.2321,2.287,2.3498,2.4026,2.2066,2.2808,2.5043,2.4788,2.4835,2.4992,0.0,0.0,0.0,0.0,0.0,0.0,0.0,0.0,0.0,0.0,0.0,0.8972,0.889,0.8881,0.8905,0.0,0.0,0.0,0.0,0.0,0.0,0.0,0.0,0.0,0.0,0.0,0.0,0.0,0.0,0.0,0.0,0.0,0.0,0.0,0.0,0.0,0.0,0.0,0.0,0.0,0.0,2.0771,2.0615,1.9932,1.9477,1.9033,1.8524,1.7787,1.7009,1.6675,1.5887,1.5163,1.578,1.5521,1.5111,1.5501,1.5458,0.0,0.0,0.0,0.0,0.0,0.0,0.0,0.0,0.0,1.9382,1.901,1.9339,1.972,1.9949,2.0149,2.0462,2.1064,2.1377,2.1719,2.2412,2.2578,2.251,2.2168,2.2129,2.2129,2.2129,2.2432,2.2637,2.2637,2.2949,2.3135,2.3135,2.3135,2.3135,2.3135,2.3135,2.3135,2.3135,2.3135,2.3135,2.3135,2.3135,2.3135,2.3135,2.3135,2.2959,2.2627,2.2549,2.2399,2.2324,2.2234,2.2108,2.205,2.2493,2.4733,2.7717,2.7066,2.7071,2.7168,0.0,0.0,0.0,0.0,0.0,0.0,0.0,0.0,0.0,0.0,0.0,0.0,0.0,0.0,0.0,0.0,0.0,0.0,0.0,0.0,0.0,0.0,0.0,0.0,0.0,0.0,0.0,0.0,0.0,0.0,0.0,0.0,0.0,0.0,0.0,0.0,0.0,0.0,0.0,0.0,2.1738,2.1504,2.1152,2.1055,1.9972,1.8504,1.767,1.7088,1.663,1.6645,1.5705,1.4932,1.7058,1.573,1.3684,1.5178,0.0,1.4232,1.4353,1.5189,1.6321,1.7175,1.745,1.7945,0.0,0.0,1.9387,1.9688,2.0121,2.0338,1.9977,2.0566,2.1064,2.1211,2.1875,2.2402,2.25,2.2832,2.3057,2.2998,2.2998,2.2998,2.2998,2.3047,2.3066,2.3066,2.3105,2.3135,2.3135,2.3135,2.3135,2.3135,2.3135,2.3135,2.3135,2.3135,2.3135,2.3135,2.3135,2.3135,2.3135,2.3135,2.3115,2.3047,2.2676,2.2978,2.3712,2.3358,2.3934,2.5073,2.5139,2.5831,2.6529,2.5576,2.6095,2.7331,0.0,0.0,0.0,0.0,0.0,0.0,0.0,0.0,0.0,0.0,0.0,0.0,0.0,0.0,0.0,0.0,0.0,0.0,0.0,0.0,0.0,0.0,0.0,0.0,0.0,0.0,0.0,0.0,0.0,0.0,0.0,0.0,0.0,0.0,0.0,0.0,0.0,0.0,0.0,2.1885,2.1885,2.1621,2.123,2.123,2.0294,1.8834,1.8,1.706,0.0,0.0,1.556,1.4871,1.6424,1.5955,1.4879,1.5093,1.484,0.0,1.5205,1.6068,0.0,0.0,1.9093,1.9855,2.0188,2.0611,2.0824,2.0722,2.1035,2.1357,2.1416,2.1728,2.206,0.0,2.2646,2.2881,2.2881,2.3027,2.3135,2.3135,2.3135,2.3135,2.3135,2.3135,2.3135,2.3135,2.3135,2.3135,2.3135,2.3135,2.3135,2.3135,2.3135,2.3135,2.3135,2.3135,2.3135,2.3135,2.3135,2.3135,2.3135,2.3135,2.3135,2.3125,2.2949,2.2982,2.3177,2.3143,2.3449,2.3815,2.4074,2.4714,2.5471,2.5355,2.5755,2.6417,0.0,0.0,0.0,0.0,0.0,0.0,0.0,0.0,0.0,0.0,0.0,0.0,0.0,0.0,0.0,0.0,0.0,0.0,0.0,0.0,0.0,0.0,0.0,0.0,0.0,0.0,0.0,0.0,0.0,0.0,0.0,0.0,0.0,0.0,0.0,0.0,0.0,0.0,2.2129,2.2217,2.2109,2.1797,2.1367,2.1016,2.0068,1.8857,1.8232,1.7149,0.0,0.0,1.5191,1.4502,1.56,1.5681,1.5262,1.4768,1.4631,1.4785,1.5537,0.0,0.0,1.8964,2.0216,2.1195,2.1168,2.1659,2.2069,2.1811,2.2012,2.2324,2.2627,2.2685,2.2783,2.3086,2.3135,2.3135,2.3135,2.3135,2.3096,2.2978,2.3066,2.3096,2.2978,2.3066,2.3135,2.3135,2.3135,2.3135,2.3135,2.3135,2.3135,2.3135,2.3135,2.3135,2.3135,2.3135,2.3135,2.3135,2.3135,2.3135,2.3135,2.3135,2.3135,2.3135,2.3135,2.2969,2.2705,2.3018,2.2959,2.2715,2.3018,2.3627,2.4426,2.4743,2.5418,2.6166,0.0,0.0,0.0,0.0,0.0,0.0,0.0,0.0,0.0,0.0,0.0,0.0,0.0,0.0,0.0,0.0,0.0,0.0,0.0,0.0,0.0,0.0,0.0,0.0,0.0,0.0,0.0,0.0,0.0,0.0,0.0,0.0,0.0,0.0,0.0,0.0,0.0,2.2324,2.2734,2.3066,2.2656,2.2236,2.1728,2.0439,1.916,1.8047,1.8018,0.0,0.0,0.0,1.4571,1.3678,1.5003,1.4561,0.0,1.4007,1.418,0.0,0.0,0.0,1.7708,1.898,1.9997,2.0968,2.2148,2.2451,2.2588,2.2998,2.3096,2.3105,2.3115,2.3125,2.3125,2.3135,2.3135,2.3135,2.3135,2.3135,2.2988,2.2578,2.2891,2.2978,0.0,2.29,2.3135,2.3135,2.3135,2.3135,2.3135,2.3135,2.3135,2.3135,2.3135,2.3135,2.3135,2.3135,2.3135,2.3135,2.3135,2.3135,2.3135,2.3135,2.3135,2.3135,2.3135,2.3135,2.3125,2.3135,2.3135,2.3125,2.3135,2.3135,2.3135,2.3212,2.49,2.746,0.0,0.0,0.0,0.0,0.0,0.0,0.0,0.0,0.0,0.0,0.0,0.0,0.0,0.0,0.0,0.0,0.0,0.0,0.0,0.0,0.0,0.0,0.0,0.0,0.0,0.0,0.0,0.0,0.0,0.0,0.0,0.0,0.0,0.0,0.0,0.0,0.0,2.2158,2.25,2.3047,2.206,2.1406,2.0869,1.9561,1.8086,1.6641,0.0,0.0,0.0,0.0,0.0,0.0,1.3995,0.0,0.0,1.4051,1.455,1.5168,0.0,0.0,1.8972,2.0215,2.1221,2.2041,2.2764,2.293,2.2969,2.3105,2.2705,2.2257,2.2257,2.2257,2.2257,2.2257,2.2748,2.3135,2.3135,2.3135,2.3086,2.2939,2.3057,0.0,0.0,0.0,0.0,2.3135,2.3135,2.3135,2.3135,2.3135,2.3135,2.3135,2.3135,2.3135,2.3135,2.3135,2.3135,2.3135,2.3135,2.3135,2.3135,2.3135,2.3135,2.3135,2.3135,2.3135,2.3135,2.3135,2.3135,2.3135,2.3135,2.3135,2.3222,2.3963,2.4851,2.5815,0.0,0.0,0.0,0.0,0.0,0.0,0.0,0.0,0.0,0.0,0.0,0.0,0.0,0.0,0.0,0.0,0.0,0.0,0.0,0.0,0.0,0.0,0.0,0.0,0.0,0.0,0.0,0.0,0.0,0.0,0.0,0.0,0.0,0.0,0.0,0.0,2.1787,2.1367,2.1494,2.1875,2.0596,1.9824,1.9287,1.7978,1.6699,0.0,0.0,0.0,0.0,0.0,0.0,0.0,0.0,1.3481,1.3761,1.4234,1.4952,1.5891,1.7047,1.8577,2.0048,2.1143,2.1992,2.2627,2.3047,2.3135,2.3135,2.3135,2.2433,2.1918,2.1918,2.1656,2.147,2.1441,2.19,2.235,2.2656,2.2695,2.2729,2.2881,2.3047,2.3076,0.0,0.0,0.0,2.3135,2.3135,2.3135,2.3135,2.3135,2.3135,2.3135,2.3135,2.3135,2.3135,2.3135,2.3135,2.3135,2.3135,2.3135,2.3135,2.3135,2.3135,2.3135,2.3135,2.3135,2.3135,2.3135,2.3135,2.3135,2.3135,2.3135,2.3222,2.3877,2.4457,2.4957,0.0,0.0,0.0,0.0,0.0,0.0,0.0,0.0,0.0,0.0,0.0,0.0,0.0,0.0,0.0,0.0,0.0,0.0,0.0,0.0,0.0,0.0,0.0,0.0,0.0,0.0,0.0,0.0,0.0,0.0,0.0,0.0,0.0,0.0,0.0,0.0,2.0342,1.9932,1.9775,1.9707,1.8428,1.7676,1.7168,1.585,0.0,0.0,0.0,0.0,0.0,0.0,0.0,0.0,0.0,0.0,1.3341,1.4576,1.5558,1.6577,1.8203,1.9637,2.0857,2.1683,2.2236,2.2646,2.3047,2.3125,2.3096,2.3047,2.2396,2.1767,0.0,0.0,2.0604,2.0605,2.0657,2.0954,2.1819,2.1939,2.2089,0.0,0.0,0.0,0.0,0.0,0.0,2.3135,0.0,2.3135,2.3135,2.3135,2.3135,2.3135,2.3135,2.3135,2.3135,2.3135,2.3135,2.3135,2.3135,2.3135,2.3135,2.3135,2.3135,2.3135,2.3135,2.3135,2.3222,2.3222,2.3222,2.3299,2.3299,2.3299,2.3299,2.3299,2.3963,2.5041,0.0,0.0,0.0,0.0,0.0,0.0,0.0,0.0,0.0,0.0,0.0,0.0,0.0,0.0,0.0,0.0,0.0,0.0,0.0,0.0,0.0,0.0,0.0,0.0,0.0,0.0,0.0,0.0,0.0,0.0,0.0,0.0,0.0,0.0,0.0,0.0,1.7705,1.7588,1.791,1.8379,0.0,1.6494,1.6321,0.0,0.0,0.0,0.0,0.0,0.0,0.0,0.0,0.0,0.0,1.519,1.5786,1.6447,1.7483,1.861,1.934,2.0546,2.1706,2.2187,2.2666,2.3008,2.3115,2.2891,2.2575,2.2237,2.1318,2.0365,0.0,0.0,0.0,2.0571,2.1403,0.0,2.2739,2.2808,0.0,0.0,0.0,2.3096,2.2988,2.3076,0.0,0.0,2.3135,2.3135,2.3135,2.3135,2.3135,2.3135,2.3135,2.3135,2.3135,2.3135,2.3135,2.3135,2.3135,2.3135,2.3135,2.3135,2.3135,2.3135,2.3135,2.3551,2.4382,2.4382,2.4882,2.5641,2.5641,2.5641,2.5641,2.5641,2.5808,2.6141,0.0,0.0,0.0,0.0,0.0,0.0,0.0,0.0,0.0,0.0,0.0,0.0,0.0,0.0,0.0,0.0,0.0,0.0,0.0,0.0,0.0,0.0,0.0,0.0,0.0,0.0,0.0,0.0,0.0,0.0,0.0,0.0,0.0,0.0,0.0,0.0,1.6123,0.0,0.0,0.0,0.0,0.0,0.0,0.0,0.0,0.0,0.0,0.0,0.0,0.0,0.0,1.4766,1.5501,1.6118,1.6864,1.7879,0.0,1.9181,2.0223,2.1172,2.1894,2.1943,2.2412,2.2715,2.2389,2.2155,2.1809,2.1441,2.0477,0.0,0.0,0.0,0.0,0.0,0.0,0.0,2.2429,2.2537,2.267,0.0,2.3135,0.0,2.3135,2.3135,2.3135,0.0,2.3135,2.3135,2.3135,2.3135,2.3135,2.3135,2.3135,2.3135,2.3135,2.3135,2.3135,2.3135,2.3135,2.3135,2.3135,2.3135,2.3135,2.3135,2.3135,2.3464,2.4049,2.4049,2.4713,2.5714,2.5714,2.6058,2.6449,2.6225,2.6281,2.6449,0.0,0.0,0.0,0.0,0.0,0.0,0.0,0.0,0.0,0.0,0.0,0.0,0.0,0.0,0.0,0.0,0.0,0.0,0.0,0.0,0.0,0.0,0.0,0.0,0.0,0.0,0.0,0.0,0.0,0.0,0.0,0.0,0.0,0.0,0.0,0.0,0.0,0.0,0.0,0.0,0.0,0.0,0.0,0.0,0.0,0.0,0.0,0.0,0.0,0.0,1.5225,1.5752,1.6182,1.6709,1.7461,1.9004,1.9189,1.9248,2.0879,2.1553,2.1719,2.1396,2.1836,2.2114,2.1467,2.1181,2.0968,2.055,0.0,1.9277,1.9219,0.0,1.8871,1.9457,0.0,2.0595,2.1909,2.21,2.2287,2.3008,2.3135,2.3135,2.3135,2.3135,2.3135,2.3135,2.3135,2.3135,2.3135,2.3135,2.3135,2.3135,2.3135,2.3135,2.3135,2.3135,2.3135,2.3135,2.3135,2.3135,2.3135,2.3135,2.3135,2.3135,2.3135,2.3222,2.3299,2.3299,2.3963,2.5041,2.5041,2.563,2.6416,2.5981,2.6152,2.6549,0.0,0.0,0.0,0.0,0.0,0.0,0.0,0.0,0.0,0.0,0.9016,0.9016,0.0,0.0,0.0,0.0,0.0,0.0,0.0,0.0,0.0,0.0,0.0,0.0,0.0,0.0,0.0,0.0,0.0,0.0,0.0,0.0,0.0,0.0,0.0,0.0,0.0,0.0,0.0,0.0,0.0,0.0,0.0,0.0,0.0,0.0,0.0,0.0,0.0,0.0,1.6084,1.7119,1.7539,1.8447,1.9492,2.0146,2.0293,2.0459,2.1494,2.1562,2.1416,2.1699,2.1611,2.1379,2.1326,2.0771,0.0,0.0,0.0,1.8806,1.8397,1.8566,0.0,2.0213,0.0,0.0,0.0,0.0,2.2967,0.0,0.0,0.0,0.0,0.0,0.0,0.0,0.0,2.3135,2.3135,2.3135,2.3135,2.3135,2.3135,2.3135,2.3135,2.3135,2.3135,2.3135,2.3135,2.3135,2.3135,2.3135,2.3135,2.3135,2.3135,2.3627,2.4542,2.4542,2.5221,2.6224,2.6224,2.6307,2.658,2.6872,2.7046,2.7215,0.0,0.0,0.0,0.0,0.0,0.0,0.0,0.0,0.9016,0.9016,0.9016,0.9016,0.9016,0.9016,0.0,0.0,0.0,0.0,0.0,0.0,0.0,0.0,0.0,0.0,0.0,0.0,0.0,0.0,0.0,0.0,0.0,0.0,0.0,0.0,0.0,0.0,0.0,0.0,0.0,0.0,0.0,0.0,0.0,0.0,0.0,0.0,0.0,0.0,0.0,0.0,1.5771,1.7236,1.833,1.9404,2.0342,2.0781,2.0908,2.1006,2.1435,2.1562,2.1514,2.126,2.1045,2.0829,2.0431,0.0,0.0,0.0,0.0,1.8374,1.8121,0.0,0.0,0.0,0.0,0.0,0.0,0.0,0.0,0.0,0.0,0.0,0.0,0.0,0.0,0.0,0.0,2.3135,2.3135,2.3135,2.3135,2.3135,2.3135,2.3135,2.3135,2.3135,2.3135,2.3135,2.3135,2.3135,2.3135,2.3135,2.3135,2.3135,2.3135,2.3387,2.3877,2.3877,2.4553,2.563,2.563,2.5975,2.6476,2.6176,2.6297,2.6491,0.0,0.0,0.0,0.0,0.0,0.0,0.0,0.9016,0.9016,0.9016,0.9016,0.9016,0.9016,0.9016,0.9016,0.0,0.0,0.0,0.0,0.0,0.0,0.0,0.0,0.0,0.0,0.0,0.0,0.0,0.0,0.0,0.0,0.0,0.0,0.0,0.0,0.0,0.0,0.0,0.0,0.0,0.0,0.0,0.0,0.0,0.0,0.0,0.0,0.0,0.0,0.0,1.5107,1.6582,1.8115,1.9316,2.0244,2.0684,2.0879,2.0996,2.1182,2.1416,2.1435,2.0742,2.043,2.0183,1.9573,1.8954,0.0,0.0,1.8084,1.8084,1.8084,0.0,0.0,0.0,0.0,0.0,0.0,0.0,0.0,0.0,0.0,0.0,0.0,0.0,0.0,0.0,0.0,2.3135,2.3135,2.3135,2.3135,2.3135,2.3135,2.3135,2.3135,2.3135,2.3135,2.3135,2.3135,2.3135,2.3135,2.3135,2.3135,2.3135,2.3135,2.3135,2.3135,2.3135,2.3637,2.4457,2.4457,2.4967,2.5688,2.4886,2.4924,2.5192,0.0,0.0,0.0,0.0,0.0,0.0,0.0,0.9016,0.9016,0.9016,0.9016,0.9016,0.9016,0.9016,0.9016,0.0,0.0,0.0,0.0,0.0,0.0,0.0,0.0,0.0,0.0,0.0,0.0,0.0,0.0,0.0,0.0,0.0,0.0,0.0,0.0,0.0,0.0,0.0,0.0,0.0,0.0,0.0,0.0,0.0,0.0,0.0,0.0,0.0,0.0,0.0,0.0,1.5127,1.6064,1.749,1.8896,1.9336,0.0,0.0,2.1016,2.0967,2.0664,2.0586,1.998,1.9439,1.9427,0.0,0.0,1.8136,1.8084,1.8084,1.8084,1.8164,0.0,0.0,0.0,0.0,0.0,0.0,0.0,0.0,0.0,0.0,0.0,0.0,0.0,0.0,2.3135,2.3135,2.3135,2.3135,2.3135,2.3135,2.3135,2.3135,2.3135,2.3135,2.3135,2.3135,2.3135,2.3135,2.3135,2.3135,2.3135,2.3135,2.3135,2.3135,2.3135,2.3135,2.3135,2.3222,2.3222,2.3299,2.3451,2.3432,2.3514,2.3568,0.0,0.0,0.0,0.0,0.0,0.0,0.0,0.9016,0.9016,0.9016,0.9016,0.9016,0.9016,0.9016,0.9016,0.0,0.0,0.0,0.0,0.0,0.0,0.0,0.0,0.0,0.0,0.0,0.0,0.0,0.9178,0.0,0.0,0.0,0.0,0.0,0.0,0.0,0.0,0.0,0.0,0.0,0.0,0.0,0.0,0.0,0.0,0.0,0.0,0.0,0.0,0.0,0.0,0.0,1.4121,1.5146,0.0,0.0,1.9004,1.9668,2.0273,2.0693,2.0908,2.0635,1.995,1.9304,1.941,0.0,0.0,1.8123,1.8084,1.8084,1.8084,1.8084,1.8224,0.0,0.0,0.0,0.0,0.0,0.0,0.0,0.0,0.0,0.0,0.0,0.0,0.0,2.3135,2.3135,2.3135,2.3135,2.3135,2.3135,2.3135,2.3135,2.3135,2.3135,2.3135,2.3135,2.3135,2.3135,2.3135,2.3135,2.3135,2.3135,2.3135,2.3135,2.3135,2.3135,2.3135,2.3135,2.3135,2.3135,2.3037,2.2659,2.2493,2.2362,0.0,0.0,0.0,0.0,0.0,0.9016,0.9016,0.9016,0.9016,0.9016,0.9016,0.9016,0.9016,0.9016,0.9016,0.9016,0.0,0.0,0.0,0.0,0.0,0.0,0.0,0.0,0.0,0.0,0.0,0.9016,0.9136,0.947,0.0,0.0,1.0936,1.1569,0.0,0.0,0.0,0.0,0.0,0.0,0.0,0.0,0.0,0.0,0.0,0.0,0.0,0.0,0.0,0.0,0.0,0.0,0.0,0.0,0.0,0.0,1.7949,1.8867,1.9551,2.0185,2.0615,2.042,1.976,1.9155,0.0,0.0,0.0,1.8077,1.8084,1.8084,1.8084,1.8084,1.8084,0.0,0.0,1.8755,0.0,0.0,0.0,0.0,0.0,0.0,0.0,0.0,0.0,2.3135,2.3135,2.3135,2.3135,2.3135,2.3135,2.3135,2.3135,2.3135,2.3135,2.3135,2.3135,2.3135,2.3135,2.3135,2.3135,2.3135,2.3135,2.3135,2.3135,2.3135,2.3135,2.3135,2.3066,2.2969,2.3086,2.3066,2.2881,2.2295,2.1992,2.1777,0.0,0.0,0.0,0.0,0.0,0.0,0.0,0.9016,0.9016,0.9016,0.9016,0.9016,0.9016,0.9016,0.9016,0.9016,0.0,0.0,0.0,0.0,0.0,0.0,0.0,0.0,0.0,0.0,0.0,0.9016,0.941,0.9786,1.01,1.0484,1.0916,1.1326,0.0,0.0,0.0,0.0,0.0,0.0,0.0,0.0,0.0,0.0,0.0,0.0,0.0,0.0,0.0,0.0,0.0,0.0,0.0,0.0,0.0,0.0,1.6377,1.7676,1.8945,1.9297,1.9404,1.9814,1.9302,1.8742,0.0,0.0,0.0,1.8077,1.8084,1.8084,1.8084,1.8084,1.8084,1.8084,1.8563,0.0,0.0,0.0,0.0,0.0,0.0,0.0,0.0,0.0,0.0,2.3135,2.3135,0.0,2.3135,2.3135,2.3135,2.3135,2.3135,2.3135,2.3135,2.3135,2.3135,2.3135,2.3135,2.3135,2.3135,2.3135,2.3135,2.3135,2.3135,2.3135,2.3135,2.3135,2.2891,2.2559,2.2969,2.2881,2.2519,2.251,2.2246,2.1816,0.0,0.0,0.0,0.0,0.0,0.0,0.0,0.9016,0.9016,0.9016,0.9016,0.9016,0.9016,0.9016,0.9016,0.9016,0.0,0.0,0.0,0.0,0.0,0.0,0.0,0.0,0.0,0.0,0.9016,0.9016,0.9144,0.9401,0.9778,1.0057,1.0549,1.1191,1.1239,0.0,0.0,0.0,0.0,0.0,0.0,0.0,0.0,0.0,0.0,0.0,0.0,0.0,0.0,0.0,0.0,0.0,0.0,0.0,0.0,0.0,0.0,0.0,1.7636,1.8422,1.8982,1.9469,1.9162,1.8771,1.8754,0.0,0.0,1.8118,1.8084,1.8084,1.8084,1.8084,1.8084,1.8084,1.8563,0.0,0.0,0.0,0.0,0.0,0.0,0.0,0.0,0.0,0.0,2.3135,2.3135,2.3135,2.3135,2.3135,2.3135,2.3135,2.3135,2.3135,2.3135,2.3135,2.3135,2.3135,2.3135,2.3135,2.3135,2.3135,2.3135,2.3135,2.3135,2.3135,2.3135,2.3135,2.3057,2.2949,2.3086,2.3057,2.291,2.2617,2.2246,2.1816,0.0,0.0,0.0,0.0,0.0,0.0,0.0,0.9016,0.9016,0.9016,0.9016,0.9016,0.9016,0.9016,0.9016,0.9016,0.0,0.0,0.0,0.0,0.0,0.0,0.0,0.0,0.0,0.9016,0.9016,0.9016,0.9016,0.929,0.9803,0.9822,1.0338,1.1169,1.1125,0.0,0.0,0.0,0.0,0.0,0.0,0.0,1.1977,0.0,0.0,0.0,0.0,0.0,0.0,0.0,0.0,0.0,0.0,0.0,0.0,0.0,1.418,0.0,0.0,1.7663,1.8383,1.895,1.8803,0.0,0.0,0.0,0.0,0.0,0.0,1.8084,1.8084,1.8084,1.8153,1.8391,1.8862,0.0,0.0,0.0,0.0,0.0,0.0,0.0,0.0,0.0,2.3135,2.3135,2.3135,2.3135,2.3135,2.3135,2.3135,2.3135,2.3135,2.3135,2.3135,2.3135,2.3135,2.3135,2.3135,2.3135,2.3135,2.3135,2.3135,2.3135,2.3135,2.3135,0.0,2.3135,2.3047,2.292,2.3076,2.3047,2.2891,2.2783,2.248,2.206,0.0,0.0,0.0,0.0,0.0,0.0,0.0,0.0,0.0,0.9016,0.9016,0.9016,0.9016,0.9016,0.9016,0.9016,0.0,0.0,0.0,0.0,0.0,0.0,0.0,0.0,0.0,0.9016,0.9016,0.9016,0.9016,0.935,1.0049,0.9735,1.0146,1.1223,1.1072,0.0,0.0,0.0,0.0,0.0,0.0,0.0,0.0,0.0,0.0,0.0,0.0,0.0,0.0,0.0,0.0,0.0,0.0,0.0,0.0,0.0,0.0,0.0,0.0,0.0,0.0,0.0,0.0,0.0,0.0,0.0,0.0,0.0,0.0,0.0,0.0,1.8141,1.8302,1.8873,1.939,0.0,0.0,0.0,0.0,0.0,0.0,0.0,0.0,2.2978,2.3135,2.3135,2.3135,2.3135,2.3135,2.3135,2.3135,2.3135,2.3135,2.3135,2.3135,2.3135,2.3135,2.3135,2.3135,2.3135,2.3135,2.3135,2.3135,2.3135,2.3135,2.3135,2.3135,2.3135,2.291,2.2598,2.2988,2.29,2.2607,2.2998,2.2871,2.2451,0.0,0.0,0.0,0.0,0.0,0.0,0.0,0.0,0.0,0.0,0.9016,0.9016,0.9016,0.9016,0.9016,0.0,0.0,0.0,0.0,0.0,0.0,0.0,0.0,0.0,0.0,0.9016,0.9016,0.9016,0.9016,0.9264,0.9726,0.9332,0.9606,1.0403,1.0363,0.0,0.0,0.0,0.0,0.0,0.0,0.0,0.0,0.0,0.0,0.0,1.2175,1.248,0.0,0.0,0.0,0.0,0.0,0.0,0.0,0.0,1.3799,1.4429,1.5883,0.0,1.7158,1.8012,0.0,0.0,0.0,0.0,0.0,0.0,0.0,0.0,0.0,0.0,0.0,0.0,0.0,0.0,0.0,0.0,0.0,0.0,0.0,0.0,0.0,2.2978,2.3135,2.3135,2.3135,2.3135,2.3135,2.3135,2.3135,2.3135,2.3135,2.3135,2.3135,2.3135,2.3135,2.3135,2.3135,2.3135,2.3135,2.3135,2.3135,2.3135,2.3135,2.3135,2.3135,2.3135,2.3076,2.2998,2.3096,2.3076,2.2998,2.3105,2.2871,2.2451,0.0,0.0,0.0,0.0,0.0,0.0,0.0,0.0,0.0,0.0,0.0,0.0,0.0,0.0,0.0,0.0,0.0,0.0,0.0,0.0,0.0,0.0,0.0,0.0,0.9128,0.9056,0.9056,0.9128,0.9056,0.9221,0.9598,0.9384,0.9546,1.01,1.0279,0.0,0.0,0.0,0.0,0.0,1.1877,0.0,0.0,0.0,0.0,0.0,1.2076,1.2431,0.0,1.3105,1.332,1.3467,0.0,0.0,0.0,0.0,1.4208,1.5012,1.6111,1.6605,1.6976,1.7634,1.7975,1.803,0.0,0.0,0.0,0.0,0.0,0.0,0.0,0.0,0.0,0.0,0.0,0.0,0.0,0.0,0.0,0.0,0.0,0.0,0.0,2.3034,2.3135,2.3135,2.3135,2.3135,2.3135,2.3135,2.3135,2.3135,2.3135,2.3135,2.3135,2.3135,2.3135,2.3135,2.3135,2.3135,2.3135,2.3135,2.3135,2.3135,2.3135,2.3135,2.3135,2.3135,2.3135,2.3135,2.3135,2.3135,2.3135,2.3135,2.2871,2.248,0.0,0.0,0.0,0.0,0.0,0.0,0.0,0.0,0.0,0.0,0.0,0.0,0.0,0.0,0.0,0.0,0.0,0.0,0.0,0.0,0.0,0.0,0.0,0.9096,0.9239,0.9128,0.9128,0.9319,0.9128,0.9288,0.9735,0.9632,0.9829,1.0194,1.0467,1.0874,0.0,0.0,0.0,0.0,1.2026,0.0,0.0,0.0,0.0,0.0,0.0,0.0,0.0,1.3291,1.3457,1.3506,1.3608,0.0,0.0,0.0,0.0,0.0,1.6623,1.6917,1.7006,1.749,1.7865,1.803,0.0,0.0,0.0,0.0,0.0,0.0,0.0,0.0,0.0,0.0,0.0,0.0,0.0,0.0,0.0,0.0,0.0,0.0,2.3063,2.3066,2.3135,2.3135,2.3135,2.3135,2.3135,2.3135,2.3135,2.3135,2.3135,2.3135,2.3135,2.3135,2.3135,2.3135,2.3135,2.3135,2.3135,2.3135,2.3135,2.3135,2.3135,2.3135,2.3135,2.3135,2.3135,2.3135,2.3135,2.3135,2.3135,2.3135,2.291,2.2588,0.0,0.0,0.0,0.0,0.0,0.0,0.0,0.0,0.0,0.0,0.0,0.0,0.0,0.0,0.0,0.0,0.0,0.0,0.0,0.0,0.0,0.0,0.9016,0.9016,0.9056,0.9168,0.9279,0.9319,0.9279,0.965,1.0365,0.9831,0.9975,1.0625,1.0305,1.0712,1.1628,1.1728,1.1977,1.2382,1.2175,0.0,0.0,0.0,0.0,0.0,0.0,0.0,0.0,1.2959,1.3213,1.3557,1.3993,0.0,0.0,0.0,0.0,0.0,1.707,1.737,1.7413,1.7912,1.803,1.8084,0.0,0.0,0.0,0.0,0.0,0.0,0.0,0.0,0.0,0.0,0.0,0.0,0.0,0.0,0.0,0.0,0.0,2.2972,2.2794,2.2972,2.3135,2.3135,2.3135,2.3135,2.3135,2.3135,2.3135,2.3135,2.3135,2.3135,2.3135,2.3135,2.3135,2.3135,2.3135,2.3135,2.3135,2.3135,2.3135,2.3135,2.3135,2.3135,2.3135,2.3135,2.3135,2.3135,2.3135,2.3135,2.3135,2.3135,2.3096,2.2939,0.0,0.0,0.0,0.0,0.0,0.0,0.0,0.0,0.0,0.0,0.0,0.0,0.0,0.0,0.0,0.0,0.0,0.0,0.0,0.0,0.0,0.9016,0.9088,0.9217,0.9395,0.9328,0.9368,0.9506,0.9591,0.9758,1.0022,0.9727,1.0202,1.119,1.0588,1.0886,1.1927,1.1927,1.2076,1.2274,0.0,0.0,0.0,0.0,0.0,0.0,0.0,0.0,0.0,0.0,1.4043,1.4306,1.4775,0.0,0.0,0.0,0.0,0.0,1.6929,1.7435,1.7744,1.7701,1.7934,1.8021,0.0,0.0,0.0,0.0,0.0,0.0,0.0,0.0,0.0,0.0,0.0,0.0,0.0,0.0,0.0,0.0,0.0,2.2904,2.2889,2.2997,2.3135,2.3135,2.3135,2.3135,2.3135,2.3135,2.3135,2.3135,2.3135,2.3135,2.3135,2.3135,2.3135,2.3135,2.3135,2.3135,2.3135,2.3135,2.3135,2.3135,2.3135,2.3135,2.3135,2.3135,2.3135,2.3135,2.3135,2.3135,2.3105,2.2881,2.2939,2.3018,0.0,0.0,0.0,0.0,0.0,0.0,0.0,0.0,0.0,0.0,0.0,0.0,0.0,0.0,0.0,0.0,0.0,0.0,0.0,0.0,0.9096,0.9145,0.9297,0.9457,0.9594,0.9496,0.9621,0.9901,0.9947,0.989,0.9735,0.9778,1.0423,1.1509,1.0901,1.1175,1.2175,1.2126,1.2126,1.2175,0.0,0.0,0.0,0.0,0.0,0.0,0.0,0.0,0.0,0.0,0.0,0.0,0.0,0.0,0.0,1.6071,1.6394,1.6674,1.6848,1.7373,1.7899,0.0,0.0,0.0,0.0,0.0,0.0,0.0,0.0,0.0,0.0,0.0,0.0,0.0,0.0,0.0,0.0,0.0,0.0,2.2754,2.2752,2.2844,2.3076,2.3135,2.3135,2.3135,2.3135,2.3135,2.3135,2.3135,2.3135,2.3135,2.3135,2.3135,2.3135,2.3135,2.3135,2.3135,2.3135,2.3135,2.3135,2.3135,2.3135,2.3135,2.3135,2.3135,2.3135,2.3135,2.3135,2.3135,2.3135,2.3135,2.3096,2.2783,2.2861,2.3027,0.0,0.0,0.0,0.0,0.0,0.0,0.0,0.0,0.0,0.0,0.0,0.0,0.0,0.0,0.0,0.0,0.0,0.0,0.0,0.0,0.9377,0.9634,0.9674,0.9545,0.9319,0.9734,1.012,1.0548,1.0275,1.0143,1.0058,1.032,1.0702,1.1128,1.0967,1.1454,1.2421,1.2224,1.2224,1.2431,1.1927,0.0,0.0,0.0,0.0,0.0,0.0,0.0,0.0,0.0,0.0,0.0,0.0,0.0,1.5093,1.6321,1.6385,1.6224,1.7119,1.7373,1.7534,1.7964,0.0,0.0,0.0,0.0,0.0,0.0,0.0,0.0,0.0,0.0,0.0,0.0,0.0,0.0,0.0,0.0,2.3055,2.3037,2.3047,2.3076,2.3135,2.3135,2.3135,2.3135,2.3135,2.3135,2.3135,2.3135,2.3135,2.3135,2.3135,2.3135,2.3135,2.3135,2.3135,2.3135,2.3135,2.3135,2.3135,2.3135,2.3135,2.3135,2.3135,2.3135,2.3135,2.3135,2.3135,2.3135,2.3135,2.3135,2.3135,2.3105,2.3115,2.3076,0.0,0.0,0.0,0.0,0.0,0.0,0.0,0.0,0.0,0.0,0.0,0.0,0.0,0.0,0.0,0.0,0.0,0.0,0.0,0.0,0.9408,0.9683,0.998,1.001,0.9734,0.9902,1.0179,1.0586,1.0879,1.0986,1.0909,1.1039,1.1269,1.1509,1.1537,1.1978,1.2725,1.248,1.2431,1.248,1.2076,1.2026,0.0,0.0,0.0,0.0,0.0,0.0,0.0,0.0,1.4932,1.5017,0.0,1.5395,1.5054,1.631,1.6407,1.6095,1.6389,1.7115,1.7754,0.0,0.0,0.0,0.0,0.0,0.0,0.0,0.0,0.0,0.0,0.0,0.0,0.0,0.0,0.0,0.0,2.3135,2.3135,2.3135,2.3135,2.3135,2.3135,2.3135,2.3135,2.3135,2.3135,2.3135,2.3135,2.3135,2.3135,2.3135,2.3135,2.3135,2.3135,2.3135,2.3135,2.3135,2.3135,2.3135,2.3135,2.3135,2.3135,2.3135,2.3135,2.3135,2.3135,2.3135,2.3135,2.3135,2.3135,2.3135,2.3135,2.3135,2.3135,2.3115,0.0,0.0,0.0,0.0,0.0,0.0,0.0,0.0,0.0,0.0,0.0,0.0,0.0,0.0,0.0,0.0,0.0,0.0,0.0,0.9597,0.9755,1.001,1.0235,1.0273,1.0098,1.0098,1.0299,1.0669,1.141,1.1621,1.1232,1.1621,1.178,1.1846,1.1929,1.2319,1.2881,1.2627,1.248,1.249,1.2364,1.236,0.0,0.0,0.0,0.0,0.0,0.0,0.0,0.0,1.5526,1.5623,0.0,0.0,1.5269,1.5849,1.6062,1.6031,1.6109,1.6975,1.7763,0.0,0.0,0.0,0.0,0.0,0.0,0.0,0.0,0.0,0.0,0.0,0.0,0.0,0.0,0.0,2.3135,2.3135,2.3135,2.3135,2.3135,2.3135,2.3135,2.3135,2.3135,2.3135,2.3135,2.3135,2.3135,2.3135,2.3135,2.3135,2.3135,2.3135,2.3135,2.3135,2.3135,2.3135,2.3135,2.3135,2.3135,2.3135,2.3135,2.3135,2.3135,2.3135,2.3135,2.3135,2.3135,2.3135,2.3135,2.3135,2.3135,2.3135,2.3135,2.3135,0.0,0.0,0.0,0.0,0.0,0.0,0.0,0.0,0.0,0.0,0.0,0.0,0.0,0.0,0.0,0.0,0.0,0.0,1.0079,1.0302,1.0495,1.0677,1.0467,1.0322,1.0283,1.0283,1.0488,1.0908,1.1901,1.1882,1.091,1.1947,1.2243,1.192,1.2134,1.248,1.2881,1.2627,1.248,1.2508,1.2661,1.288,1.3185,0.0,0.0,0.0,0.0,0.0,0.0,0.0,1.57,1.5918,0.0,0.0,0.0,1.4877,1.5216,1.603,1.6449,1.6983,0.0,0.0,0.0,0.0,0.0,0.0,0.0,0.0,0.0,0.0,0.0,0.0,0.0,0.0,2.2928,2.3135,2.3135,2.3135,2.3135,2.3135,2.3135,2.3135,2.3135,2.3135,2.3135,2.3135,2.3135,2.3135,2.3135,2.3135,2.3135,2.3135,2.3135,2.3135,2.3135,2.3135,2.3135,2.3135,2.3135,2.3135,2.3135,2.3135,2.3135,2.3135,2.3135,2.3135,2.3135,2.3135,2.3135,2.3135,2.3135,2.3135,2.3135,2.3135,2.3135,2.3135,0.0,0.0,0.0,0.0,0.0,0.0,0.0,0.0,0.0,0.0,0.0,0.0,0.0,0.0,0.0,0.0,0.0,0.0,0.0,1.0572,1.0659,1.0428,1.0736,1.0725,1.0322,1.0457,1.0794,1.1236,1.1648,1.1778,1.166,1.2067,1.2217,1.2144,1.2501,1.2764,1.2881,1.2832,1.2783,1.2822,1.3128,1.3292,1.3481,0.0,0.0,0.0,0.0,0.0,0.0,0.0,0.0,0.0,0.0,0.0,1.5662,1.5595,1.6031,1.6543,1.6575,0.0,0.0,0.0,0.0,0.0,0.0,0.0,0.0,0.0,0.0,0.0,0.0,0.0,0.0,2.2635,2.2928,2.3135,2.3135,2.3135,2.3135,2.3135,2.3135,2.3135,2.3135,2.3135,2.3135,2.3135,2.3135,2.3135,2.3135,2.3135,2.3135,2.3135,2.3135,2.3135,2.3135,2.3135,2.3135,2.3135,2.3135,2.3135,2.3135,2.3135,2.3135,2.3135,2.3135,2.3135,2.3135,2.3135,2.3135,2.3135,2.3135,2.3135,2.3135,2.3135,2.3135,2.3135,0.0,0.0,0.0,0.0,0.0,0.0,0.0,0.0,0.0,0.0,0.0,0.0,0.0,0.0,0.0,0.0,0.0,0.0,0.0,0.0,1.1057,1.084,1.0954,1.084,1.0467,1.0611,1.0964,1.1478,1.1624,1.1824,1.2027,1.2293,1.2454,1.25,0.0,1.2881,1.2881,1.2881,1.2978,1.3164,1.3789,1.4024,1.4092,0.0,0.0,0.0,0.0,0.0,0.0,0.0,0.0,0.0,0.0,0.0,0.0,1.5976,1.6375,1.6765,1.6863,0.0,0.0,0.0,0.0,0.0,0.0,0.0,0.0,0.0,0.0,0.0,0.0,0.0,0.0,2.2784,2.2975,2.3135,2.3135,2.3135,2.3135,2.3135,2.3135,2.3135,2.3135,2.3135,2.3135,2.3135,2.3135,2.3135,2.3135,2.2978,2.2969,2.3135,2.2978,2.2969,2.3135,2.3135,2.3135,2.3135,2.3135,2.3135,2.3135,2.3135,2.3135,2.3135,2.3135,2.3135,2.3135,2.3135,2.3135,2.3135,2.3135,2.3135,2.3135,2.3135,2.3135,2.3135,0.0,0.0,0.0,0.0,0.0,0.0,0.0,0.0,0.0,0.0,0.0,0.0,0.0,0.0,0.0,0.0,0.0,0.0,0.0,0.0,1.1616,1.1579,1.1057,1.0753,1.0753,1.0833,1.1158,1.1719,1.1826,1.1974,1.2103,1.2597,1.2872,1.292,0.0,1.2881,1.2881,1.2881,1.3175,1.3647,1.4437,1.4774,1.4946,1.5713,0.0,0.0,0.0,0.0,0.0,0.0,0.0,0.0,0.0,0.0,1.6644,1.6256,1.6477,1.6916,0.0,0.0,0.0,0.0,0.0,0.0,0.0,0.0,0.0,0.0,0.0,0.0,0.0,0.0,2.2148,2.2949,2.3086,2.3096,2.3135,2.3135,2.3135,2.3135,2.3135,2.3135,2.3135,2.3135,2.3135,2.3135,2.3135,2.3135,2.3135,2.2744,2.2685,2.3066,2.2715,2.2695,2.3076,2.3125,2.3135,2.3135,2.3135,2.3135,2.3135,2.3135,2.3135,2.3135,2.3135,2.3135,2.3135,2.3135,2.3135,2.3135,2.3135,2.3135,2.3135,2.3135,2.3135,2.3135,0.0,0.0,0.0,0.0,0.0,0.0,0.0,0.0,0.0,0.0,0.0,0.0,0.0,0.0,0.0,0.0,0.0,0.0,0.0,0.0,1.1774,1.133,1.118,1.1094,1.1094,1.1707,1.2213,1.2621,1.2127,1.2208,0.0,0.0,0.0,1.3286,0.0,1.2881,1.2881,1.2881,1.3352,1.4073,1.4218,1.4666,1.5336,1.5484,1.5468,0.0,0.0,0.0,0.0,0.0,0.0,0.0,1.6352,1.6658,1.6826,1.7092,1.7476,1.7835,0.0,0.0,0.0,0.0,0.0,0.0,0.0,0.0,0.0,0.0,0.0,0.0,0.0,2.1719,2.2051,2.2568,2.2646,2.2764,2.3096,2.3135,2.3135,2.3135,2.3135,2.3135,2.3135,2.3135,2.3135,2.3135,2.3135,2.3135,2.3135,2.2744,2.2549,2.2646,2.2559,2.2559,2.2646,2.2969,2.3135,2.3135,2.3135,2.3135,2.3135,2.3135,2.3135,2.3135,2.3135,2.3135,2.3135,2.3135,2.3135,2.3135,2.3135,2.3135,2.3135,2.3135,2.3135,2.3135,0.0,0.0,0.0,0.0,0.0,0.0,0.0,0.0,0.0,0.0,0.0,0.0,0.0,0.0,0.0,0.0,0.0,0.0,0.0,0.0,0.0,1.1394,1.1621,1.1643,1.1404,1.2307,1.2822,1.2908,1.3017,0.0,0.0,0.0,0.0,1.3152,0.0,1.2881,1.2929,1.3055,1.3511,1.4172,1.457,1.5165,1.5797,1.6022,1.5941,1.5768,1.5768,0.0,0.0,0.0,0.0,0.0,0.0,0.0,1.7244,1.7688,1.7822,1.7873,0.0,0.0,0.0,0.0,0.0,0.0,0.0,0.0,0.0,0.0,0.0,0.0,0.0,2.1416,2.1709,2.2139,2.2207,2.2353,2.2783,2.2832,2.291,2.3115,2.3135,2.3135,2.3135,2.3135,2.3135,2.3135,2.3135,2.3135,2.3135,2.2549,2.2402,2.2803,2.2422,2.2402,2.2812,2.3027,2.3135,2.3135,2.3135,2.3135,2.3135,2.3135,2.3135,2.3135,2.3135,2.3135,2.3135,2.3135,2.3135,2.3135,2.3135,2.3135,2.3135,2.3135,2.3135,2.3047,0.0,0.0,0.0,0.0,0.0,0.0,0.0,0.0,0.0,0.0,0.0,0.0,0.0,0.0,0.0,0.0,0.0,0.0,0.0,0.0,0.0,0.0,1.2235,1.2302,1.1881,1.2888,1.3331,1.3173,0.0,0.0,0.0,0.0,0.0,1.2968,0.0,1.2968,1.3017,1.3276,1.3741,1.4397,1.5133,1.5741,1.6285,1.6637,1.6524,1.6114,1.6114,1.6056,1.5999,1.6056,0.0,0.0,0.0,0.0,1.7601,1.8,1.7833,1.7571,0.0,0.0,0.0,0.0,0.0,0.0,0.0,0.0,0.0,0.0,0.0,0.0,2.1055,2.1123,2.1269,2.1699,2.1777,2.1924,2.2344,2.2471,2.2646,2.2988,2.3096,2.3135,2.3135,2.3076,2.3027,2.3027,2.2959,2.292,2.292,2.2187,2.209,2.2783,2.2139,2.2109,2.2803,2.2959,2.3027,2.3027,2.3027,2.3027,2.3027,2.3027,2.3066,2.3135,2.3135,2.3135,2.3135,2.3135,2.3135,2.3135,2.3135,2.3135,2.3135,2.3135,2.296,2.2677,0.0,0.0,0.0,0.0,0.0,0.0,0.0,0.0,0.0,0.0,0.0,0.0,0.0,0.0,0.0,0.0,0.0,0.0,1.2113,0.0,0.0,1.2296,1.263,1.2873,1.2981,1.3814,1.4216,0.0,0.0,0.0,0.0,0.0,0.0,1.3324,0.0,0.0,1.3324,1.3372,1.4089,1.5237,1.5341,1.5913,1.6694,1.6751,1.6524,1.6114,1.6114,1.5826,1.5584,1.5941,1.6114,0.0,0.0,0.0,1.759,1.7999,1.7754,0.0,0.0,0.0,0.0,0.0,0.0,0.0,0.0,0.0,0.0,0.0,0.0,2.0586,2.0644,2.0654,2.0801,2.125,2.1318,2.1475,2.1904,2.2285,2.2539,2.2588,2.292,2.3135,2.3135,2.2812,2.2598,2.2598,2.2256,2.2051,2.2051,2.1592,2.1377,2.1484,2.1377,2.1377,2.1484,2.2227,2.2598,2.2598,2.2598,2.2598,2.2598,2.2598,2.2793,2.3135,2.3135,2.3135,2.3135,2.3135,2.3135,2.3135,2.3135,2.3135,2.3135,2.3135,2.2403,2.148,0.0,0.0,0.0,0.0,0.0,0.0,0.0,0.0,0.0,0.0,0.0,0.0,0.0,0.0,0.0,1.2113,1.2113,1.224,1.2539,1.2562,1.2705,1.3048,1.3517,1.3643,1.3429,1.4341,1.466,0.0,0.0,0.0,0.0,1.4708,1.4233,0.0,0.0,0.0,0.0,0.0,1.3993,1.4959,1.4746,1.5353,1.6348,1.6137,1.6081,1.6036,1.6079,1.594,1.5813,1.6317,1.6684,1.7022,1.7634,0.0,0.0,0.0,0.0,0.0,0.0,0.0,0.0,0.0,0.0,0.0,0.0,0.0,0.0,0.0,0.0,2.0566,2.0566,2.0566,2.0635,2.083,2.0859,2.1016,2.1455,2.168,2.1973,2.2451,2.2676,2.2881,2.3115,2.2754,2.251,2.251,2.2129,2.1885,2.1885,2.1475,2.1348,2.1592,2.1367,2.1357,2.1592,2.1973,2.2158,2.2158,2.2158,2.2158,2.2158,2.2158,2.2519,2.3135,2.3135,2.3135,2.3135,2.3135,2.3135,2.3135,2.3135,2.2677,2.212,2.212,2.1302,2.0215,0.0,0.0,0.0,0.0,0.0,0.0,0.0,0.0,0.0,0.0,0.0,0.0,0.0,0.0,0.0,0.0,1.2113,1.2344,1.2873,1.2908,1.3184,1.3765,1.4178,1.4258,1.3983,1.4718,0.0,0.0,0.0,0.0,1.4627,1.4937,1.4474,0.0,1.3625,0.0,0.0,0.0,0.0,0.0,0.0,1.5143,1.5986,1.5849,1.5963,1.6179,1.6125,1.5955,1.5956,1.6552,1.696,1.7225,1.7781,1.7981,0.0,0.0,0.0,0.0,0.0,0.0,0.0,0.0,0.0,0.0,0.0,0.0,0.0,0.0,2.0566,2.0566,2.0566,2.0566,2.0566,2.0566,2.0566,2.0684,2.1016,2.1162,2.1475,2.2109,2.2285,2.248,2.2793,2.2432,2.2187,2.2187,2.1787,2.1553,2.1553,2.124,2.1211,2.1543,2.123,2.1221,2.1553,2.166,2.1719,2.1719,2.1719,2.1719,2.1719,2.1719,2.2119,2.2822,2.2822,2.2881,2.2882,2.2496,2.2418,2.2436,2.2164,2.1585,2.0845,2.0845,2.0124,1.8956,0.0,0.0,0.0,0.0,0.0,0.0,0.0,0.0,0.0,0.0,0.0,0.0,1.2113,1.2113,1.2113,1.2113,1.2113,1.2344,1.2873,1.2908,1.3357,1.4304,1.4373,0.0,1.5016,1.5073,0.0,0.0,0.0,0.0,1.4627,1.4937,1.4931,1.4577,1.4533,1.4588,1.4627,0.0,0.0,0.0,0.0,0.0,0.0,0.0,1.6764,1.6673,1.6203,1.5772,1.5543,1.6439,1.6493,1.6321,1.7194,1.7748,1.7993,0.0,0.0,0.0,0.0,0.0,0.0,0.0,0.0,0.0,0.0,0.0,0.0,0.0,2.0566,2.0566,2.0566,2.0566,2.0566,2.0566,2.0566,2.0576,2.0596,2.0967,2.125,2.1299,2.167,2.1924,2.1953,2.1562,2.1299,2.1299,2.0889,2.0635,2.0635,2.0605,2.0605,2.0635,2.0605,2.0605,2.0635,2.1055,2.1269,2.1269,2.1269,2.1269,2.1269,2.1269,2.1514,2.1953,2.1953,2.2178,2.2425,2.095,2.058,2.0752,1.9701,1.9468,1.9579,1.9579,1.8864,1.7777,0.0,0.0,0.0,0.0,0.0,0.0,0.0,0.0,0.0,0.0,0.0,0.0,0.0,1.2113,1.2113,1.2113,1.2113,1.2344,1.2873,1.3156,1.365,1.4362,1.4683,1.4936,1.5108,1.5108,0.0,0.0,0.0,1.5017,1.4926,1.48,1.4716,1.4635,1.4611,1.4788,1.5039,1.4464,0.0,0.0,0.0,0.0,0.0,0.0,0.0,0.0,0.0,0.0,0.0,1.7059,1.7027,1.6991,1.7317,1.7507,1.7626,0.0,0.0,0.0,0.0,0.0,0.0,0.0,0.0,0.0,0.0,0.0,0.0,2.0508,2.0566,2.0566,2.0566,2.0566,2.0566,2.0566,2.0566,2.0566,2.0566,2.0703,2.0908,2.1201,2.1367,2.1582,2.1855,2.1494,2.123,2.123,2.082,2.0566,2.0566,2.0566,2.0566,2.0566,2.0566,2.0566,2.0566,2.0723,2.0801,2.0801,2.0801,2.0801,2.0801,2.0801,2.1055,2.1455,2.1162,2.101,2.0931,1.9665,1.9256,1.9299,1.8953,1.8337,1.7733,1.7733,1.7041,1.6022,0.0,0.0,0.0,0.0,0.0,0.0,0.0,0.0,0.0,0.0,0.0,0.0,0.0,0.0,1.2113,1.2113,1.2113,1.2344,1.2873,1.3179,1.3581,1.4098,1.4603,1.4867,1.4867,1.5028,0.0,0.0,0.0,0.0,0.0,1.4754,1.4762,1.5012,1.4751,1.4882,0.0,0.0,0.0,1.6044,0.0,0.0,1.6213,0.0,0.0,0.0,0.0,0.0,0.0,0.0,0.0,0.0,0.0,0.0,0.0,0.0,0.0,0.0,0.0,0.0,0.0,0.0,0.0,0.0,0.0,0.0,0.0,2.0254,2.0469,2.0566,2.0566,2.0566,2.0566,2.0566,2.0566,2.0566,2.0566,2.0566,2.0674,2.0977,2.1016,2.1123,2.1416,2.1182,2.1016,2.1016,2.0732,2.0566,2.0566,2.0566,2.0566,2.0566,2.0566,2.0566,2.0566,2.0566,2.0566,2.0566,2.0566,2.0566,2.0566,2.0566,2.0732,2.0917,1.9957,1.965,1.9913,1.8692,1.8033,1.7712,1.7376,1.676,1.6161,1.6161,1.5714,1.5137,0.0,0.0,0.0,0.0,0.0,0.0,0.0,0.0,0.0,1.2113,0.0,0.0,0.0,0.0,0.0,1.2113,1.2113,1.2332,1.285,1.2908,1.3127,1.357,1.4109,1.4396,1.4408,1.4867,1.5108,0.0,0.0,0.0,0.0,0.0,1.507,0.0,1.4978,1.4882,1.527,0.0,1.5693,1.6523,0.0,1.5859,1.6677,0.0,0.0,0.0,1.6895,1.679,0.0,1.7214,0.0,0.0,0.0,0.0,0.0,0.0,0.0,0.0,0.0,0.0,0.0,0.0,0.0,0.0,0.0,0.0,0.0,1.9805,2.0244,2.0547,2.0566,2.0566,2.0566,2.0566,2.0566,2.0566,2.0566,2.0566,2.0566,2.0566,2.0566,2.0566,2.0566,2.0566,2.0566,2.0566,2.0566,2.0566,2.0566,2.0566,2.0566,2.0566,2.0566,2.0566,2.0566,2.0566,2.0566,2.0566,2.0566,2.0566,2.0566,2.0566,2.0566,2.0401,1.8301,1.8186,1.9407,1.7809,1.6716,1.5918,1.4922,1.4683,1.4937,1.4937,1.5124,1.5371,0.0,0.0,0.0,0.0,0.0,0.0,0.0,0.0,0.0,0.0,0.0,0.0,1.2113,1.2113,1.2113,1.2113,1.2113,1.2171,1.2321,1.2689,1.3127,1.357,1.4109,1.4557,1.4901,1.5039,1.5108,1.5108,0.0,0.0,0.0,0.0,0.0,0.0,1.4821,1.4832,1.5165,1.512,0.0,0.0,1.5661,1.6094,0.0,0.0,0.0,0.0,0.0,1.7492,1.7318,0.0,1.7347,1.671,0.0,0.0,0.0,0.0,0.0,0.0,1.5426,0.0,0.0,0.0,0.0,0.0,0.0,0.0,0.0,1.9307,1.9795,2.0195,2.0508,2.0566,2.0566,2.0566,2.0566,2.0566,2.0566,2.0566,2.0566,2.0566,2.0566,2.0566,2.0566,2.0566,2.0566,2.0566,2.0566,2.0566,2.0566,2.0566,2.0566,2.0566,2.0566,2.0566,2.0566,2.0566,2.0566,2.0566,2.0566,2.0566,2.0566,2.0566,2.0167,1.9441,1.8798,1.7878,1.6653,1.5506,1.4867,1.4613,1.4372,1.4255,1.4329,1.4329,1.4516,1.4796,0.0,0.0,0.0,0.0,0.0,0.0,0.0,0.0,1.2113,0.0,0.0,0.0,1.2113,1.2113,1.2113,1.2113,1.2309,1.2355,1.2125,1.2608,1.3035,1.3283,1.3788,1.4293,1.4798,1.488,1.4891,1.4891,0.0,0.0,0.0,0.0,0.0,0.0,0.0,0.0,0.0,0.0,0.0,0.0,1.5574,0.0,0.0,1.6953,1.7185,0.0,0.0,0.0,1.7661,1.7921,1.7503,0.0,0.0,0.0,0.0,0.0,0.0,0.0,0.0,0.0,0.0,0.0,0.0,0.0,1.6654,1.7256,1.7988,0.0,1.9355,1.9727,1.998,2.0176,2.0293,2.0293,2.0449,2.0566,2.0566,2.0566,2.0566,2.0566,2.0566,2.0566,2.0566,2.0566,2.0566,2.0566,2.0566,2.0566,2.0566,2.0566,2.0566,2.0566,2.0566,2.0566,2.0566,2.0566,2.0566,2.0566,2.0566,2.0401,1.9923,1.9923,1.9353,1.831,1.7819,1.6919,1.5621,1.4573,1.4088,1.4088,1.4088,1.4088,1.4088,1.4088,1.4349,1.471,0.0,0.0,0.0,0.0,0.0,0.0,0.0,0.0,0.0,0.0,1.2113,1.21,1.2121,1.2112,1.2113,1.2113,1.2551,1.262,1.2136,1.2562,1.2873,1.2988,1.3363,1.3868,1.4422,1.4541,1.4581,1.4523,0.0,0.0,0.0,0.0,0.0,0.0,0.0,0.0,0.0,0.0,0.0,1.5816,1.5517,1.616,0.0,0.0,1.7358,1.8103,1.8042,1.796,1.7906,1.7945,1.7658,0.0,0.0,0.0,0.0,0.0,1.5997,0.0,0.0,0.0,0.0,0.0,0.0,0.0,1.6344,1.6924,1.7471,1.8262,1.8769,1.9082,1.9131,1.9536,1.9791,1.9707,2.0203,2.0633,2.0634,2.0566,2.0566,2.0566,2.0566,2.0566,2.0566,2.0566,2.0566,2.0566,2.0566,2.0566,2.0566,2.0566,2.0566,2.0566,2.0566,2.0566,2.0566,2.0566,2.0566,2.0401,2.0401,1.9844,1.8798,1.8798,1.823,1.709,1.6108,1.5613,1.5462,1.4489,1.4088,1.4088,1.4088,1.4088,1.4088,1.4088,1.4436,1.4877,1.0273,0.0,0.0,0.0,0.0,0.0,0.0,0.0,0.0,1.2113,1.2113,1.2127,1.2241,1.217,1.2113,1.2113,1.2205,1.2217,1.2113,1.2205,1.2632,1.342,1.3535,1.3902,1.4552,1.4582,1.443,1.4118,0.0,0.0,0.0,0.0,0.0,0.0,0.0,0.0,0.0,0.0,0.0,1.537,1.5708,0.0,1.7334,1.7266,1.7584,1.8031,1.7976,1.7789,1.752,1.75,1.7417,1.7257,0.0,0.0,0.0,1.5287,0.0,0.0,0.0,0.0,0.0,0.0,0.0,0.0,1.5348,1.5923,1.6628,1.7002,1.729,1.7678,1.8193,1.8706,1.8944,1.8468,1.9613,2.0581,2.0566,2.0566,2.0566,2.0566,2.0566,2.0566,2.0566,2.0566,2.0566,2.0566,2.0566,2.0566,2.0566,2.0566,2.0566,2.0566,2.0566,2.0566,2.0566,2.0566,2.0167,1.9274,1.9274,1.8709,1.7658,1.7658,1.7009,1.6026,1.5779,1.5213,1.4412,1.4173,1.4088,1.4088,1.4088,1.4088,1.4088,1.4088,1.4309,1.4596,1.0127,0.0,0.0,0.0,0.0,0.0,0.0,0.0,0.0,1.1884,1.1847,1.2039,1.2541,0.0,1.2113,1.2113,1.2355,1.2401,1.2125,1.2355,1.2723,1.3272,1.3294,1.3595,1.4305,1.4326,1.4082,1.3695,0.0,0.0,0.0,0.0,0.0,0.0,0.0,0.0,0.0,0.0,1.4749,1.4644,1.5369,0.0,1.6667,1.6698,1.6977,1.7402,1.7617,1.7695,1.7733,1.7694,1.7701,0.0,1.7419,1.7036,1.6591,0.0,1.5748,1.5644,0.0,0.0,0.0,1.5088,0.0,0.0,0.0,1.5674,1.6108,1.6617,1.6776,1.696,1.7324,1.7473,1.7523,1.735,1.8606,1.9623,1.974,2.022,2.0566,2.0566,2.0566,2.0566,2.0566,2.0566,2.0566,2.0566,2.0566,2.0566,2.0566,2.0566,2.0566,2.0566,2.0566,2.0566,2.0566,2.0352,1.9792,1.9036,1.8758,1.788,1.6519,1.6519,1.5951,1.4894,1.4894,1.4573,1.4088,1.4088,1.4088,1.4088,1.4088,1.4088,1.4088,1.4088,1.4269,1.4496,1.0019,0.0,0.0,0.0,0.0,0.0,0.0,0.0,0.0,0.0,0.0,0.0,0.0,0.0,0.0,0.0,1.2385,1.2446,1.1979,1.2328,1.2709,1.2982,1.3004,1.3282,1.3862,1.3884,1.3695,1.3276,0.0,0.0,0.0,0.0,0.0,0.0,0.0,0.0,0.0,0.0,0.0,1.4211,0.0,1.5538,1.5995,1.6168,1.6461,1.6904,1.7292,1.7598,1.7891,1.7948,1.8066,1.8051,1.7851,1.7657,0.0,0.0,0.0,0.0,0.0,0.0,0.0,0.0,0.0,1.5059,0.0,0.0,0.0,1.6316,1.6418,0.0,0.0,0.0,0.0,1.6395,0.0,0.0,0.0,1.9265,0.0,2.0185,2.041,2.0527,2.0449,2.0439,2.0478,2.0557,2.0488,2.0478,2.0634,2.0566,2.0566,2.0566,2.0566,2.0566,2.0566,2.0127,1.9506,1.863,1.8231,1.705,1.5372,1.5372,1.4894,1.4088,1.4088,1.4088,1.4088,1.4088,1.4088,1.4088,1.4088,1.4088,1.4088,1.4088,1.4235,1.4402,1.0225,1.0418,0.0,0.0,0.0,0.0,0.0,0.0,0.0,0.0,0.0,0.0,0.0,0.0,0.0,0.0,0.0,0.0,1.1407,0.0,1.1931,1.294,1.3004,1.3151,1.3437,1.3457,1.3286,1.2968,0.0,0.0,0.0,0.0,0.0,0.0,1.3437,0.0,0.0,0.0,1.46,0.0,1.4716,1.5266,0.0,1.6519,1.6941,1.7324,1.7347,1.7412,1.7517,0.0,1.7985,1.79,0.0,1.74,1.759,1.6059,0.0,0.0,0.0,0.0,0.0,0.0,1.4805,0.0,1.449,0.0,1.4837,1.5425,0.0,1.5555,0.0,0.0,0.0,0.0,0.0,0.0,1.5985,1.6873,1.7807,1.8737,1.9873,2.041,2.0029,1.999,2.0146,2.0537,2.0205,2.0156,2.0547,2.0566,2.0566,2.0566,2.0566,2.0566,2.0566,2.0127,1.9102,1.7496,1.7113,1.594,1.425,1.425,1.425,1.4088,1.4088,1.4088,1.4088,1.4088,1.4088,1.4088,1.4088,1.4088,1.4088,1.4088,1.4108,1.4128,0.9677,0.9991,0.0,0.0,0.0,0.0,0.0,0.0,0.0,0.0,0.0,0.0,0.0,0.0,0.0,0.0,0.0,1.1284,0.0,0.0,0.0,1.2362,1.2425,1.2645,1.3084,1.3276,1.3238,1.2881,1.3104,0.0,0.0,0.0,0.0,0.0,1.3213,0.0,1.4104,0.0,1.4389,0.0,0.0,0.0,0.0,1.5813,1.6258,1.6695,1.6909,1.7168,1.7478,0.0,1.7841,0.0,0.0,0.0,0.0,1.6382,0.0,0.0,0.0,0.0,0.0,0.0,0.0,0.0,1.3857,1.3855,1.4016,1.4249,0.0,0.0,0.0,0.0,0.0,0.0,1.4666,1.425,0.0,0.0,1.7039,1.7858,0.0,0.0,1.9088,1.9404,1.9629,1.9814,1.9883,2.0,2.0176,2.043,2.0566,2.0566,2.0001,1.9565,1.9399,1.8502,1.7405,1.6139,1.5708,1.4866,1.3828,1.3828,1.3828,1.3841,1.4015,1.4088,1.4088,1.4088,1.4088,1.4088,1.4088,1.4088,1.4088,1.4088,1.4088,1.4088,0.9208,0.0,0.0,0.0,0.0,0.0,0.0,0.0,0.0,0.0,0.0,0.0,1.2081,1.2034,0.0,0.0,1.0946,1.0795,0.0,0.0,1.1098,1.1813,1.2089,0.0,1.2731,1.3056,1.3152,1.2881,1.3152,0.0,0.0,0.0,0.0,0.0,0.0,1.3174,1.3965,0.0,1.4278,1.3969,1.4869,1.5119,1.4988,1.5405,1.5723,1.5957,1.6533,1.6934,1.7266,1.7809,1.7785,1.76,1.7744,1.753,1.7063,0.0,0.0,0.0,1.5594,0.0,0.0,0.0,1.4145,1.3911,1.3596,1.3476,1.3511,1.3511,1.3511,0.0,0.0,0.0,0.0,0.0,0.0,1.4105,0.0,1.4709,0.0,0.0,1.7052,0.0,1.8139,1.8314,1.8615,1.8957,1.9091,1.936,1.9902,1.9976,2.0042,2.0157,1.9116,1.8417,1.8204,1.7122,1.6134,1.529,1.4714,1.4152,1.3527,1.3607,1.3559,1.3661,1.3955,1.4088,1.4088,1.4088,1.4088,1.4088,1.4088,1.4088,1.4088,1.4088,1.4088,1.4088,0.9016,0.9168,0.0,0.0,0.0,0.0,0.0,0.0,0.0,0.0,0.0,0.0,0.0,0.0,0.0,0.0,0.0,0.9908,1.0097,0.0,1.0868,1.1505,1.2263,1.255,0.0,1.2729,1.2929,1.2881,1.2929,0.0,0.0,0.0,0.0,0.0,0.0,1.2725,1.3555,1.3965,1.4375,1.4746,1.4775,1.5019,1.5429,0.0,1.5826,1.5547,1.6416,1.6685,1.688,1.7725,1.7975,1.7948,1.7551,1.7693,1.7714,0.0,0.0,0.0,1.5681,1.5385,1.5158,1.4159,1.4301,1.4489,1.3657,1.3511,1.3502,1.3502,1.3528,1.3485,1.3554,1.3553,0.0,0.0,0.0,0.0,0.0,0.0,0.0,1.5074,1.591,0.0,1.7097,1.656,1.6792,1.8157,1.7666,1.8072,1.9798,1.8917,1.856,1.9027,1.798,1.7334,1.7326,1.6599,1.5886,1.529,1.456,1.3837,1.3233,1.3514,1.3559,1.3661,1.3955,1.4088,1.4088,1.4088,1.4088,1.4088,1.4088,1.4088,1.4088,1.4088,1.4088,1.4088,0.0,0.0,0.0,0.0,0.0,0.0,0.0,1.0488,0.0,0.0,0.0,0.0,0.0,1.0686,1.0582,0.0,0.0,0.9718,0.9747,1.013,0.0,1.1219,1.1972,1.233,0.0,0.0,0.0,0.0,0.0,0.0,0.0,0.0,0.0,0.0,0.0,1.3232,0.0,0.0,0.0,0.0,0.0,1.4873,1.5029,0.0,1.5526,1.5488,1.6074,1.6484,1.6797,1.7412,1.7625,1.7645,1.7784,1.7471,1.7081,1.6922,1.6699,1.626,1.4826,1.4911,1.5349,1.4953,1.4221,1.3502,1.3483,1.3485,1.3511,1.3511,1.3494,1.3476,1.3476,1.352,0.0,0.0,0.0,0.0,0.0,1.29,1.3641,1.4022,0.0,0.0,0.0,1.5833,1.5978,1.6661,1.6439,1.6543,1.7172,1.7119,1.7201,1.7586,1.6573,1.594,1.594,1.5005,1.4301,1.3891,1.3474,1.3175,1.2906,1.3006,1.3053,1.3066,1.3373,1.3507,1.352,1.3714,1.3794,1.3814,1.4008,1.4088,1.4088,1.4088,1.4088,1.4088,0.9016,0.0,0.0,0.0,0.0,0.0,0.0,0.0,0.0,0.0,1.0385,0.0,1.0257,0.0,1.0034,0.0,0.9517,0.9482,0.9813,1.0092,0.0,1.1059,1.1705,0.0,0.0,0.0,0.0,0.0,0.0,1.2803,0.0,0.0,0.0,0.0,0.0,1.3076,1.3555,0.0,1.4727,0.0,0.0,1.501,0.0,1.5312,1.5322,1.5264,1.585,1.6276,1.6641,1.7227,1.748,1.7656,1.793,1.7627,1.7171,1.7348,1.7177,1.6666,1.5638,1.4849,1.4263,1.4284,1.4016,1.3711,1.3534,1.3523,1.3487,1.3487,1.3492,1.3475,1.3514,1.3523,1.3484,0.0,0.0,0.0,0.0,1.2594,1.3522,1.352,1.4101,0.0,0.0,1.4707,1.4831,1.5214,1.5196,1.5355,1.5756,1.5804,1.5939,1.6292,1.541,1.4835,1.4835,1.3906,1.3394,1.3206,1.2792,1.2585,1.2667,1.2775,1.2822,1.2842,1.3073,1.3213,1.3227,1.3414,1.3547,1.3579,1.3854,1.3995,1.4088,1.4088,1.4088,1.4088,0.0,0.0,0.0,0.0,0.9386,0.0,0.0,0.0,1.0841,0.0,1.0641,1.1018,1.0569,0.9953,0.9712,1.0116,0.9292,0.9192,1.0206,1.0268,0.0,0.0,1.1475,1.15,1.1093,0.0,0.0,0.0,0.0,0.0,0.0,0.0,0.0,0.0,1.1655,0.0,1.3535,1.3902,1.4629,1.541,1.541,1.54,1.5381,1.54,1.5156,1.4912,1.5762,1.6195,1.6421,1.7152,1.7656,1.8008,1.8008,1.8008,1.8008,1.8008,1.7985,1.7938,1.7755,1.5069,1.2311,1.2296,1.3773,1.4904,1.3704,1.3461,1.3469,1.3469,1.3472,1.3422,1.3513,1.349,1.3473,0.0,0.0,0.0,0.0,0.0,1.348,1.3494,1.3528,1.342,1.3171,1.3188,1.3427,1.3921,1.3939,1.4449,0.0,1.4949,1.4758,1.5188,1.4462,1.4055,1.4088,1.3487,1.32,1.32,1.2592,1.2305,1.2311,1.2592,1.2802,1.2815,1.3039,1.3166,1.3166,1.318,1.3353,1.3601,1.3552,1.3821,1.4088,1.4088,1.4088,1.4088,0.9016,0.9016,0.9016,0.0,0.9386,0.9815,0.0,0.0,0.0,0.0,0.9891,0.9634,0.9307,0.9095,0.904,0.9144,0.8915,0.0,0.0,0.0,0.0,1.0712,1.1325,1.15,1.1093,1.191,1.2298,1.2298,0.0,0.0,1.2715,0.0,0.0,0.0,0.0,0.0,1.3535,1.3902,1.4629,1.541,1.541,1.5225,1.498,1.5293,1.511,1.4782,1.577,1.6461,1.6898,1.7089,1.756,1.8008,1.8008,1.8008,1.8008,1.8008,1.8008,1.7382,1.453,1.3068,1.2284,1.2279,1.2723,1.2989,1.2683,1.3096,1.3537,1.3537,1.3049,1.2787,1.3388,1.302,1.279,0.0,0.0,0.0,0.0,0.0,0.0,1.3528,1.3476,1.3327,1.2966,1.2957,1.3014,1.3126,1.3051,1.3013,1.3184,1.3364,1.3528,1.3763,1.3554,1.3647,1.4082,1.3273,1.2979,1.32,1.2592,1.2305,1.2305,1.2378,1.2418,1.2418,1.2498,1.2532,1.2552,1.2772,1.2913,1.3019,1.3467,1.3821,1.4088,1.4088,1.4088,1.4088,0.9016,0.0,0.0,0.9016,0.0,0.0,0.9835,1.0022,0.0,0.9924,0.9618,0.0,0.9438,0.9334,0.9263,0.9263,0.9263,0.0,0.9953,0.0,0.0,1.0814,1.1106,1.113,1.0901,1.1448,0.0,1.2047,0.0,0.0,1.2351,0.0,0.0,0.0,0.0,1.2549,1.3018,1.4004,1.4697,1.5156,1.5342,1.5264,0.0,1.5322,1.5381,1.5436,1.6111,1.6373,1.6431,1.6778,1.7398,1.8008,1.8008,1.8008,1.8008,1.8008,1.7998,1.7548,1.5394,1.4795,1.4395,1.272,1.2338,1.2294,1.2268,1.2672,1.2952,1.2952,1.2645,1.2407,1.2923,1.2894,1.2964,0.0,0.0,0.0,0.0,0.0,0.0,0.0,1.347,1.3291,1.2663,1.264,1.2743,1.2833,1.2773,1.2647,1.2544,1.2884,1.3128,1.3182,1.3151,1.3427,1.3888,1.3126,1.2906,1.32,1.2592,1.2305,1.2305,1.2305,1.2305,1.2305,1.2305,1.2305,1.2325,1.2625,1.2903,1.3006,1.3607,1.3941,1.4088,1.4088,1.4088,1.4088,0.0,0.0,0.0,0.0,0.0,0.0,0.0,0.9908,0.0,0.9673,0.0,0.9782,0.997,0.9794,0.9666,0.9666,0.0,0.9806,1.0129,0.9847,1.0093,1.0914,1.0698,1.0624,1.0624,1.1034,1.1406,0.0,0.0,0.0,0.0,0.0,0.0,0.0,0.0,0.0,0.0,1.4131,1.4814,1.4902,1.5264,1.541,1.541,1.541,1.5753,1.6204,1.6418,1.6177,1.5842,1.6581,1.736,1.8008,1.8008,1.8008,1.8008,1.8008,1.7978,1.8025,1.8025,1.7972,1.7054,1.3216,1.2264,1.2304,1.2308,1.231,1.231,1.231,1.229,1.2317,1.229,1.2983,1.3515,0.0,1.3485,1.3502,0.0,0.0,0.0,0.0,1.3473,0.0,1.2546,1.2513,1.2654,1.2846,1.2884,1.2885,1.2833,1.3033,1.3084,1.3096,1.3104,1.3293,1.3499,1.2986,1.2846,1.314,1.2572,1.2305,1.2305,1.2305,1.2305,1.2305,1.2305,1.2305,1.2318,1.2579,1.2893,1.3267,1.3814,1.4055,1.4088,1.4088,1.4088,1.4088,0.0,0.0,0.0,0.0,0.0,0.9322,0.9462,0.9452,0.9611,1.0076,0.9456,0.8985,0.903,0.8974,0.8956,0.8956,0.8956,0.0,0.0,0.0,0.0,1.0275,1.0463,1.0624,1.0624,1.1646,1.1994,0.0,0.0,0.0,0.0,0.0,0.0,0.0,0.0,0.0,1.3795,1.4502,0.0,1.5312,1.5381,1.541,1.541,1.541,1.5448,1.5552,1.5591,1.6427,1.7593,1.7696,1.7862,1.8008,1.8008,1.8008,1.8008,1.8008,1.8027,1.7988,1.7988,1.7992,1.7071,1.3263,1.2335,1.2285,1.2304,1.2291,1.2291,1.2291,1.2317,1.2301,1.2287,1.2952,1.3523,1.3531,1.3494,1.3483,1.3473,0.0,0.0,0.0,0.0,1.3453,1.3314,1.329,1.3108,1.2523,1.2845,1.2933,1.2668,1.3086,1.3179,1.2879,1.2849,1.2973,1.328,1.2685,1.2532,1.2903,1.2472,1.2305,1.2305,1.2305,1.2305,1.2305,1.2305,1.2305,1.2305,1.2358,1.2705,1.324,1.3587,1.3874,1.4088,1.4088,1.4088,1.4088,0.0,0.0,0.0,0.0,0.0,0.0,0.0,0.9147,0.9197,0.9688,0.9321,0.9024,0.9024,0.9217,0.9159,0.8804,0.9106,0.9354,0.9439,0.9599,0.9886,1.0327,1.0481,1.0624,1.0624,1.1569,1.1937,1.1671,1.2717,1.2755,1.1885,1.2119,0.0,0.0,0.0,1.3027,0.0,0.0,1.4902,1.5107,1.5322,1.541,1.541,1.541,1.539,1.5386,1.5416,1.6514,1.8027,1.7984,1.8008,1.8008,1.8008,1.8008,1.8008,1.8008,1.8008,1.8008,1.8008,1.8014,1.7097,1.3219,1.2315,1.2305,1.2305,1.2305,1.2305,1.2305,1.2305,1.2278,1.231,1.2959,1.3325,1.296,1.2906,1.2894,1.2885,1.2908,1.2863,0.0,0.0,0.0,1.1981,1.2026,1.2273,1.2924,1.2718,1.2679,1.2861,1.2814,1.2755,1.2712,1.2736,1.2896,1.2966,1.2679,1.2605,1.2822,1.2445,1.2305,1.2305,1.2305,1.2305,1.2305,1.2305,1.2392,1.2559,1.2866,1.326,1.3681,1.3821,1.3961,1.4088,1.4088,1.4088,1.4088,0.0,0.9552,0.0,0.0,0.9349,0.9131,0.9396,0.9111,0.8969,0.9184,0.9141,0.9098,0.9098,0.9511,0.9562,0.9061,0.9575,0.9875,0.9838,0.9822,0.998,1.0448,1.0591,1.0681,1.0863,1.1655,1.2075,0.0,1.2784,1.2721,1.189,1.2109,0.0,0.0,0.0,0.0,1.3818,1.4502,1.4834,1.4951,1.5283,1.541,1.541,1.541,1.541,1.54,1.5422,1.6286,1.7472,1.7448,1.7706,1.7988,1.7988,1.8008,1.8008,1.8008,1.8008,1.8008,1.8008,1.7975,1.7104,1.3238,1.2267,1.2331,1.2331,1.2285,1.2305,1.2305,1.2305,1.2278,1.231,1.2855,1.3074,1.266,1.238,1.2328,1.2265,1.2308,1.2279,0.0,0.0,0.0,1.0591,1.0698,1.1522,1.3363,1.2672,1.2392,1.3057,1.2519,1.2246,1.241,1.2532,1.2634,1.2634,1.2694,1.2728,1.2728,1.2412,1.2305,1.2305,1.2305,1.2305,1.2305,1.2305,1.2472,1.2869,1.3394,1.3781,1.4001,1.4062,1.4088,1.4088,1.4088,1.4088,1.4088,0.0,0.0,0.0,0.0,0.0,0.967,0.9835,0.9467,0.9185,0.9213,0.8978,0.8817,0.8817,0.9392,0.9762,0.971,1.0037,1.0238,1.025,1.0124,1.01,1.0154,1.0414,1.0926,1.1648,1.2451,1.305,1.3393,1.3827,1.3559,1.2754,1.2393,1.2393,1.2715,1.3223,1.3906,1.4668,1.4756,1.501,1.5352,1.5391,1.541,1.541,1.541,1.541,1.54,1.5422,1.5495,1.5642,1.5612,1.6689,1.8025,1.7988,1.8008,1.8008,1.8008,1.8008,1.8008,1.8008,1.8017,1.7112,1.3277,1.2338,1.2276,1.2276,1.2291,1.2305,1.2305,1.2305,1.2278,1.231,1.2332,1.2666,1.3301,1.2777,1.2324,1.2284,1.2284,1.227,1.2317,0.0,0.0,1.0727,1.1015,1.1847,1.3359,1.2714,1.255,1.3057,1.2444,1.2026,1.1766,1.1917,1.1951,1.1951,1.2211,1.2345,1.2345,1.2318,1.2305,1.2305,1.2305,1.2305,1.2305,1.2305,1.2472,1.2869,1.3394,1.3661,1.3707,1.3981,1.4088,1.4088,1.4088,1.4088,1.4088,0.0,0.0,0.0,1.0085,0.9735,0.9463,0.948,0.92,0.9045,0.9163,0.8985,0.8871,0.9051,0.9746,1.0166,1.0113,1.0466,1.0654,1.055,1.0286,1.02,1.0374,1.0982,1.1469,1.1764,1.3053,1.3661,1.357,1.3955,1.3711,1.2881,1.2959,1.3223,1.3652,1.4082,1.4463,1.4805,1.5049,1.5254,1.541,1.541,1.541,1.541,1.541,1.541,1.543,1.538,1.5428,1.5417,1.5378,1.6548,1.7988,1.7991,1.8031,1.7992,1.7992,1.7996,1.8008,1.8008,1.7997,1.7631,1.6113,1.5745,1.5144,1.2804,1.2297,1.2284,1.2285,1.2305,1.2265,1.2276,1.2274,1.2411,1.2732,1.2511,1.2294,1.2278,1.2305,1.2265,1.2303,0.0,1.2136,1.1655,1.1762,1.1884,1.1744,1.2523,1.2906,1.2654,1.1985,1.1633,1.154,1.1554,1.1803,1.2131,1.2499,1.256,1.2305,1.2305,1.2305,1.2305,1.2305,1.2398,1.2579,1.2766,1.3013,1.332,1.3734,1.3908,1.3921,1.4041,1.4088,1.4088,1.4088,1.4088,1.4088,1.026,1.0137,1.0046,1.008,0.9848,0.9639,0.9479,0.9325,0.9239,0.9352,0.9192,0.9145,0.9345,1.0291,1.088,1.0771,1.136,1.1565,1.123,1.084,1.0698,1.0912,1.1253,1.1789,1.2504,1.3528,1.4119,1.4153,1.4256,1.4023,1.3447,1.3613,1.3916,1.4336,1.4648,1.4853,1.499,1.5283,1.541,1.541,1.541,1.541,1.541,1.541,1.541,1.541,1.541,1.541,1.5391,1.5377,1.6235,1.7235,1.7249,1.7214,1.7311,1.7865,1.8029,1.8026,1.7988,1.8037,1.7987,1.7987,1.7992,1.7318,1.4561,1.3122,1.229,1.2278,1.2305,1.2305,1.2305,1.2335,1.2326,1.2265,1.2328,1.2332,1.2271,1.2305,1.2271,1.2271,1.2319,1.2332,1.2317,1.2304,1.1808,1.0685,1.2195,1.2968,1.2694,1.1713,1.1301,1.1624,1.1519,1.1626,1.2012,1.2472,1.2587,1.2305,1.2305,1.2305,1.2305,1.2305,1.2465,1.2842,1.3073,1.3373,1.3667,1.3968,1.4088,1.4088,1.4088,1.4088,1.4088,1.4088,1.4088,1.4088,0.9726,1.0214,1.066,1.0613,1.0604,1.0441,1.0147,1.01,1.0,0.9713,0.9679,0.9673,0.9679,1.1005,1.1886,1.1886,1.2924,1.3226,1.2414,1.2011,1.1764,1.1772,1.1043,1.1699,1.4145,1.3912,1.4328,1.54,1.498,1.4775,1.4756,1.4326,1.4355,1.4775,1.4785,1.501,1.54,1.541,1.541,1.541,1.541,1.541,1.541,1.541,1.541,1.541,1.541,1.541,1.541,1.542,1.542,1.5429,1.5408,1.5423,1.5752,1.751,1.8001,1.8005,1.7988,1.8008,1.8018,1.8018,1.8007,1.7973,1.7953,1.4984,1.229,1.2278,1.2305,1.2305,1.2305,1.2298,1.2298,1.2305,1.2298,1.2298,1.2305,1.2305,1.2284,1.2308,1.2274,1.2274,1.2267,1.2304,1.1826,1.0701,1.1649,1.2636,1.3457,1.1632,1.1101,1.226,1.1708,1.1391,1.1391,1.1999,1.2305,1.2305,1.2305,1.2305,1.2305,1.2305,1.2465,1.2842,1.3073,1.3373,1.3667,1.3968,1.4088,1.4088,1.4088,1.4088,1.4088,1.4088,1.4088,1.4088,0.9996,1.0329,1.0567,1.0274,1.0254,1.0227,1.0134,0.9947,0.986,0.9967,0.998,1.006,1.0261,1.1567,1.2348,1.2233,1.3325,1.379,1.3243,1.2862,1.2427,1.2058,1.2522,1.2989,1.3391,1.4368,1.5031,1.541,1.4914,1.4634,1.4634,1.4574,1.4805,1.5215,1.5215,1.5283,1.541,1.541,1.541,1.541,1.541,1.541,1.541,1.541,1.541,1.541,1.541,1.541,1.541,1.541,1.541,1.5391,1.5427,1.5396,1.5491,1.6028,1.7071,1.8021,1.7989,1.7976,1.8008,1.8008,1.8007,1.7973,1.7963,1.5073,1.2325,1.2291,1.2305,1.2305,1.2305,1.2305,1.2305,1.2305,1.2305,1.2305,1.2305,1.2305,1.2271,1.2337,1.1589,1.1107,1.1107,1.1819,1.2157,1.1824,1.2109,1.2098,1.1532,1.1662,1.1899,1.2274,1.2136,1.1999,1.1999,1.2178,1.2305,1.2305,1.2305,1.2305,1.2311,1.2512,1.2772,1.308,1.338,1.3674,1.3955,1.4048,1.4088,1.4088,1.4088,1.4088,1.4088,1.4088,1.4088,1.4088,1.0094,1.0354,1.0501,1.0314,1.0281,1.0281,1.0281,1.0127,1.008,1.0261,1.0581,1.0712,1.0604,1.2057,1.2822,1.2392,1.3747,1.4545,1.4301,1.4049,1.3494,1.2534,1.2574,1.2991,1.3874,1.4876,1.541,1.541,1.507,1.4877,1.4877,1.501,1.5156,1.541,1.541,1.541,1.541,1.541,1.541,1.541,1.541,1.541,1.541,1.541,1.541,1.541,1.541,1.541,1.541,1.541,1.541,1.541,1.541,1.537,1.5374,1.5378,1.6162,1.7178,1.7845,1.7965,1.8027,1.8027,1.7977,1.7628,1.6182,1.4046,1.2305,1.2305,1.2305,1.2305,1.2305,1.2305,1.2305,1.2305,1.2305,1.2305,1.2305,1.2305,1.2265,1.2317,1.1649,1.124,1.124,1.1886,1.2315,1.2274,1.1927,1.1385,1.0658,1.1702,1.2319,1.2281,1.2325,1.2331,1.2305,1.2331,1.2331,1.2305,1.2305,1.2305,1.2311,1.2688,1.2919,1.3227,1.3514,1.3814,1.4088,1.4088,1.4088,1.4088,1.4088,1.4088,1.4088,1.4088,1.4088,1.4088,1.006,1.0416,1.0688,1.0624,1.0624,1.0624,1.0624,1.0624,1.0624,1.0624,1.1281,1.1454,1.0667,1.239,1.3155,1.2187,1.4141,1.5381,1.5407,1.5417,1.4721,1.322,1.1711,1.2344,1.5342,1.541,1.541,1.541,1.541,1.541,1.541,1.541,1.541,1.541,1.541,1.541,1.541,1.541,1.541,1.541,1.541,1.541,1.541,1.541,1.541,1.541,1.541,1.541,1.541,1.541,1.541,1.541,1.541,1.541,1.541,1.5413,1.5368,1.5787,1.7526,1.7982,1.8018,1.7987,1.7808,1.6641,1.31,1.2291,1.2305,1.2305,1.2305,1.2305,1.2305,1.2305,1.2305,1.2305,1.2305,1.2305,1.2305,1.2305,1.2284,1.2329,1.2301,1.2301,1.2301,1.2301,1.2326,1.2331,1.1285,1.0716,1.0716,1.175,1.2284,1.2285,1.2311,1.2155,1.1896,1.2155,1.2317,1.2305,1.2305,1.2311,1.2345,1.2639,1.2946,1.326,1.3547,1.3834,1.4088,1.4088,1.4088,1.4088,1.4088,1.4088,1.4088,1.4088,1.4088,1.4088,1.0221,1.0828,1.1351,1.0681,1.0624,1.0624,1.0624,1.0624,1.0624,1.0624,1.0781,1.0781,1.0601,1.1027,1.1291,1.1025,1.3672,1.5399,1.542,1.541,1.5254,1.4876,1.4489,1.4625,1.541,1.541,1.541,1.541,1.541,1.541,1.541,1.541,1.541,1.541,1.541,1.541,1.541,1.541,1.541,1.541,1.541,1.541,1.541,1.541,1.541,1.541,1.541,1.541,1.541,1.541,1.541,1.541,1.541,1.541,1.542,1.5381,1.5393,1.5756,1.7513,1.7981,1.8029,1.7996,1.5826,1.3417,1.2538,1.2278,1.2305,1.2305,1.2305,1.2305,1.2305,1.2305,1.2305,1.2305,1.2305,1.2305,1.2305,1.2305,1.2278,1.2291,1.2284,1.2284,1.2284,1.2284,1.2297,1.2305,1.2049,1.1886,1.1886,1.2155,1.2329,1.2291,1.2311,1.0852,0.772,1.0771,1.2317,1.2305,1.2305,1.2425,1.2735,1.2868,1.3088,1.3554,1.3854,1.4021,1.4088,1.4088,1.4088,1.4088,1.4088,1.4088,1.4088,1.4088,1.4088,1.4088,1.0668,1.125,1.1531,1.0744,1.0926,1.1024,1.0669,1.1044,1.1155,1.0657,1.0595,1.0594,1.0595,1.189,1.219,1.0759,1.3536,1.5419,1.542,1.541,1.541,1.541,1.541,1.541,1.541,1.541,1.541,1.541,1.541,1.541,1.541,1.541,1.541,1.541,1.541,1.541,1.541,1.541,1.541,1.541,1.541,1.541,1.541,1.541,1.541,1.541,1.541,1.541,1.541,1.541,1.541,1.541,1.541,1.541,1.541,1.541,1.5398,1.5635,1.6537,1.6809,1.6588,1.5637,1.3816,1.2276,1.2271,1.2331,1.2305,1.2305,1.2305,1.2305,1.2305,1.2305,1.2305,1.2305,1.2322,1.2319,1.2271,1.2315,1.2326,1.2271,1.2305,1.2305,1.2305,1.2305,1.2318,1.2322,1.2308,1.2308,1.2308,1.2308,1.2303,1.2298,1.2311,1.0375,0.6339,1.0295,1.233,1.2284,1.2318,1.2392,1.264,1.2915,1.3214,1.3568,1.3908,1.4088,1.4088,1.4088,1.4088,1.4088,1.4088,1.4088,1.4088,1.4088,1.4088,1.4088,1.147,1.1783,1.1896,1.1108,1.1531,1.1727,1.0946,1.163,1.1913,1.1063,1.0777,1.0601,1.0592,1.3485,1.4282,1.1554,1.3817,1.5419,1.542,1.541,1.541,1.541,1.541,1.541,1.541,1.541,1.541,1.541,1.541,1.541,1.541,1.541,1.541,1.541,1.541,1.541,1.541,1.541,1.541,1.541,1.541,1.541,1.541,1.541,1.541,1.541,1.541,1.541,1.541,1.541,1.541,1.541,1.541,1.541,1.541,1.541,1.5428,1.54,1.54,1.5396,1.504,1.351,1.3175,1.3006,1.2442,1.2298,1.2305,1.2305,1.2305,1.2305,1.2305,1.2305,1.2285,1.2311,1.2296,1.2144,1.1827,1.2043,1.2326,1.2318,1.2305,1.2305,1.2305,1.2305,1.2305,1.2305,1.2305,1.2305,1.2305,1.2305,1.2305,1.2305,1.2311,1.0381,0.635,0.967,1.1708,1.2282,1.2271,1.2318,1.2304,1.2815,1.3279,1.358,1.3987,1.4139,1.4088,1.4088,1.4088,1.4088,1.4088,1.4088,1.4088,1.4088,1.4088,1.4088,1.2572,1.3169,1.3545,1.2765,1.2704,1.261,1.2027,1.2073,1.2279,1.257,1.1413,1.0618,1.0587,1.3476,1.5212,1.4711,1.5105,1.5419,1.542,1.541,1.541,1.541,1.541,1.541,1.541,1.541,1.541,1.541,1.541,1.541,1.541,1.541,1.541,1.541,1.541,1.541,1.541,1.541,1.541,1.541,1.541,1.541,1.541,1.541,1.541,1.541,1.541,1.541,1.541,1.541,1.541,1.541,1.541,1.541,1.541,1.541,1.5391,1.543,1.543,1.5373,1.5678,1.6831,1.7138,1.6242,1.3075,1.2291,1.2305,1.2305,1.2305,1.2305,1.2305,1.2305,1.2284,1.2294,1.2303,1.1642,0.963,1.1024,1.2329,1.2265,1.2305,1.2305,1.2305,1.2305,1.2305,1.2305,1.2305,1.2305,1.2305,1.2305,1.2305,1.2305,1.2311,1.034,0.6338,0.6889,0.892,1.2282,1.2271,1.2269,1.2329,1.242,1.3001,1.4042,1.4056,1.4137,1.4088,1.4088,1.4088,1.4088,1.4088,1.4088,1.4088,1.4088,1.4088,1.4088,1.3318,1.3708,1.3974,1.313,1.3373,1.3442,1.2715,1.3365,1.4031,1.4264,1.3652,1.3168,1.3168,1.4495,1.5381,1.542,1.543,1.5381,1.542,1.541,1.541,1.541,1.541,1.541,1.541,1.541,1.541,1.541,1.541,1.541,1.541,1.541,1.541,1.541,1.541,1.541,1.541,1.541,1.541,1.541,1.541,1.541,1.541,1.541,1.541,1.541,1.541,1.541,1.541,1.541,1.541,1.541,1.541,1.541,1.541,1.541,1.541,1.541,1.541,1.5406,1.5843,1.7593,1.6473,1.4482,1.2715,1.2325,1.2305,1.2305,1.2305,1.2305,1.2305,1.2305,1.2325,1.2322,1.2629,1.2206,1.009,1.1249,1.2283,1.2325,1.2305,1.2305,1.2305,1.2305,1.2305,1.2305,1.2305,1.2305,1.2305,1.2305,1.2305,1.2305,1.2311,1.0346,0.6352,0.6321,0.8321,1.2267,1.2289,1.2293,1.2285,1.2299,1.2629,1.3152,1.3852,1.4001,1.3818,1.4045,1.3901,1.3647,1.3961,1.3988,1.3868,1.4028,1.4088,1.4088,1.4119,1.4252,1.4273,1.3674,1.4094,1.4287,1.362,1.4604,1.541,1.541,1.541,1.541,1.541,1.541,1.541,1.541,1.541,1.541,1.541,1.541,1.541,1.541,1.541,1.541,1.541,1.541,1.541,1.541,1.541,1.541,1.541,1.541,1.541,1.541,1.541,1.541,1.541,1.541,1.541,1.541,1.541,1.541,1.541,1.541,1.541,1.541,1.541,1.541,1.541,1.541,1.541,1.541,1.541,1.541,1.541,1.541,1.541,1.541,1.541,1.5384,1.5532,1.6147,1.4296,1.2312,1.2291,1.233,1.2305,1.2305,1.2305,1.2305,1.2305,1.2305,1.2278,1.2278,1.2785,1.2719,1.1215,1.1726,1.2284,1.2318,1.2305,1.2305,1.2305,1.2305,1.2305,1.2305,1.2305,1.2305,1.2305,1.2305,1.2305,1.2305,1.2311,1.083,0.7694,0.6772,0.8348,1.2291,1.2552,1.2579,1.2323,1.2586,1.2549,1.2321,1.3253,1.3707,1.3612,1.379,1.3621,1.3339,1.3701,1.3652,1.3581,1.3874,1.3981,1.3995,1.5183,1.53,1.5294,1.5225,1.5284,1.5284,1.5216,1.5342,1.541,1.541,1.541,1.541,1.541,1.541,1.541,1.541,1.541,1.541,1.541,1.541,1.541,1.541,1.541,1.541,1.541,1.541,1.541,1.541,1.541,1.541,1.541,1.541,1.541,1.541,1.541,1.541,1.541,1.541,1.541,1.541,1.541,1.541,1.541,1.541,1.541,1.541,1.541,1.541,1.541,1.541,1.541,1.541,1.541,1.541,1.541,1.541,1.541,1.541,1.541,1.5417,1.475,1.1833,1.1713,1.231,1.2296,1.227,1.2305,1.2305,1.2305,1.2305,1.2305,1.2305,1.2278,1.2331,1.2381,1.231,1.2198,1.2226,1.2278,1.2271,1.2305,1.2305,1.2305,1.2305,1.2305,1.2305,1.2305,1.2305,1.2305,1.2305,1.2305,1.2305,1.2311,1.2166,1.1866,0.8165,0.8282,1.228,1.3414,1.3397,1.2329,1.3489,1.3351,1.226,1.2369,1.305,1.4029,1.3446,1.3346,1.3484,1.3081,1.3081,1.328,1.3567,1.3674,1.3714,1.5255,1.5379,1.5405,1.5381,1.541,1.541,1.541,1.541,1.541,1.541,1.541,1.541,1.541,1.541,1.541,1.541,1.541,1.541,1.541,1.541,1.541,1.541,1.541,1.541,1.541,1.541,1.541,1.541,1.541,1.541,1.541,1.541,1.541,1.541,1.541,1.541,1.541,1.541,1.541,1.541,1.541,1.541,1.541,1.541,1.541,1.541,1.541,1.541,1.541,1.541,1.541,1.541,1.541,1.541,1.541,1.541,1.541,1.541,1.541,1.5399,1.5139,1.3899,1.2382,1.1404,1.2136,1.2278,1.2328,1.2271,1.2305,1.2305,1.2305,1.2305,1.2331,1.2283,1.2283,1.2297,1.227,1.229,1.2264,1.2291,1.2305,1.2305,1.2305,1.2305,1.2305,1.2305,1.2305,1.2305,1.2305,1.2305,1.2305,1.2305,1.2331,1.2276,1.229,0.828,0.7095,0.8599,0.9059,1.0318,1.2296,1.2798,1.2757,1.2325,1.2337,1.2533,1.294,1.2707,1.2719,1.2768,1.2883,1.2824,1.2693,1.3174,1.3373,1.3414,1.4474,1.5039,1.5405,1.5397,1.5379,1.5408,1.5391,1.538,1.5418,1.54,1.541,1.541,1.541,1.541,1.541,1.541,1.541,1.541,1.541,1.541,1.541,1.541,1.541,1.541,1.541,1.541,1.541,1.541,1.541,1.541,1.541,1.541,1.541,1.541,1.541,1.541,1.541,1.541,1.541,1.541,1.541,1.541,1.541,1.541,1.541,1.541,1.541,1.541,1.541,1.541,1.541,1.541,1.541,1.541,1.542,1.542,1.5381,1.539,1.538,1.5427,1.5409,1.5396,1.298,1.0783,1.156,1.2025,1.2329,1.229,1.2318,1.2305,1.2305,1.2305,1.2305,1.2305,1.2305,1.2305,1.2305,1.2305,1.2305,1.2305,1.2305,1.2305,1.2305,1.2305,1.2305,1.2305,1.2305,1.2305,1.2305,1.2305,1.2305,1.2305,1.2305,1.2304,1.2313,0.8341,0.6308,0.6332,0.6318,0.8444,1.2276,1.0977,1.1109,1.233,1.2335,1.2267,1.2331,1.2317,1.2335,1.2338,1.2593,1.2536,1.2378,1.2771,1.2975,1.3106,1.2902,1.4253,1.5381,1.5391,1.5391,1.5389,1.5361,1.5365,1.5389,1.5429,1.541,1.541,1.541,1.541,1.541,1.541,1.541,1.541,1.541,1.541,1.541,1.541,1.541,1.541,1.541,1.541,1.541,1.541,1.541,1.541,1.541,1.541,1.541,1.541,1.541,1.541,1.541,1.541,1.541,1.541,1.541,1.541,1.541,1.541,1.541,1.541,1.541,1.541,1.541,1.541,1.541,1.541,1.541,1.541,1.5391,1.5379,1.5367,1.5346,1.5336,1.5383,1.5336,1.5415,1.3001,1.0621,1.0606,1.1492,1.2267,1.2267,1.2263,1.2291,1.2291,1.2298,1.2298,1.2298,1.2298,1.2298,1.2291,1.2291,1.2291,1.2291,1.2298,1.2298,1.2298,1.2298,1.2298,1.2298,1.2298,1.2298,1.2305,1.2305,1.2305,1.2305,1.2305,1.2271,1.2276,0.8369,0.6301,0.627,0.627,0.8426,1.2088,0.8121,0.8449,1.2276,1.2282,1.2311,1.2305,1.2305,1.2305,1.2305,1.2305,1.2305,1.2331,1.229,1.2483,1.2862,1.2916,1.3317,1.4,1.5179,1.5412,1.4975,1.3812,1.4628,1.5418,1.54,1.541,1.541,1.541,1.541,1.541,1.541,1.541,1.541,1.541,1.541,1.541,1.541,1.541,1.541,1.541,1.541,1.541,1.541,1.541,1.541,1.541,1.541,1.541,1.541,1.541,1.541,1.541,1.541,1.541,1.541,1.541,1.541,1.541,1.541,1.541,1.541,1.541,1.541,1.541,1.541,1.541,1.541,1.541,1.541,1.542,1.541,1.3797,1.2027,1.2007,1.204,1.2578,1.483,1.4674,1.3383,1.1142,1.087,1.1086,1.1125,1.1083,1.1211,1.1377,1.1695,1.1852,1.1884,1.1942,1.1924,1.1717,1.1774,1.185,1.169,1.2033,1.2161,1.1912,1.1912,1.1912,1.1912,1.2155,1.2328,1.2291,1.2305,1.2305,1.2305,1.2305,1.2318,1.2264,1.1117,0.911,0.627,0.6311,0.6965,0.8082,0.6863,0.6988,0.8277,1.1085,1.2263,1.2317,1.2325,1.2305,1.2305,1.2305,1.2305,1.2311,1.2317,1.235,1.2478,1.2903,1.2926,1.3437,1.5104,1.5379,1.5051,1.4023,1.4743,1.54,1.54,1.541,1.541,1.541,1.541,1.541,1.541,1.541,1.541,1.541,1.541,1.541,1.541,1.541,1.541,1.541,1.541,1.541,1.541,1.541,1.541,1.541,1.541,1.541,1.541,1.541,1.541,1.541,1.541,1.541,1.541,1.541,1.541,1.541,1.541,1.541,1.541,1.541,1.541,1.541,1.541,1.541,1.541,1.541,1.541,1.542,1.5381,1.4022,1.2205,1.0977,1.0615,1.1043,1.3024,1.3526,1.2962,1.1035,1.0575,1.0593,1.0613,1.0734,1.0885,1.1191,1.1418,1.156,1.1607,1.1653,1.163,1.145,1.1505,1.1512,1.143,1.1742,1.185,1.1613,1.1613,1.1613,1.1613,1.178,1.1986,1.2118,1.2131,1.2184,1.2298,1.2305,1.2305,1.2305,1.2277,1.0663,0.7503,0.6699,0.6266,0.6335,0.628,0.6336,0.6423,0.8893,1.0848,1.2276,1.2304,1.2331,1.2305,1.2305,1.2305,1.2305,1.2305,1.2305,1.2325,1.2603,1.2534,1.2993,1.4567,1.5159,1.5319,1.5032,1.5196,1.5389,1.5381,1.54,1.5391,1.5381,1.5371,1.543,1.541,1.541,1.541,1.541,1.541,1.541,1.541,1.541,1.541,1.541,1.541,1.541,1.541,1.541,1.541,1.541,1.541,1.541,1.541,1.541,1.541,1.541,1.541,1.541,1.541,1.541,1.541,1.541,1.541,1.541,1.541,1.541,1.541,1.541,1.541,1.542,1.5371,1.5371,1.5391,1.5371,1.5417,1.54,1.4732,1.1443,1.0586,1.0624,1.0624,1.0593,1.0567,1.0567,1.0591,1.0581,1.0581,1.0862,1.1119,1.1275,1.1369,1.1376,1.1356,1.1369,1.1376,1.1356,1.1349,1.1349,1.1349,1.1369,1.1383,1.1383,1.1383,1.1383,1.1383,1.1383,1.1516,1.1817,1.183,1.1964,1.2258,1.2265,1.2278,1.2305,1.2305,1.1403,0.9533,0.7503,0.6444,0.6331,0.6335,0.6391,0.6583,0.6499,0.8505,1.1789,1.1951,1.2142,1.2318,1.2318,1.2318,1.2318,1.2318,1.2238,1.2083,1.0105,0.971,0.9826,1.0181,1.3095,1.4571,1.2043,1.3794,1.541,1.5422,1.54,1.5413,1.5388,1.5379,1.538,1.542,1.541,1.541,1.541,1.541,1.541,1.541,1.541,1.541,1.541,1.541,1.541,1.541,1.541,1.541,1.541,1.541,1.541,1.541,1.541,1.541,1.541,1.541,1.541,1.541,1.541,1.541,1.541,1.541,1.541,1.541,1.541,1.541,1.541,1.541,1.5381,1.5379,1.5379,1.5415,1.5409,1.5378,1.5378,1.4727,1.1465,1.0586,1.0624,1.0624,1.0604,1.0584,1.0584,1.0581,1.0578,1.0578,1.0631,1.0742,1.0748,1.0935,1.1009,1.0782,1.0942,1.1009,1.0782,1.0748,1.0748,1.0748,1.0949,1.1089,1.1089,1.1089,1.1089,1.1089,1.1089,1.1216,1.151,1.1523,1.1657,1.1951,1.1964,1.2071,1.2298,1.2305,1.2109,1.1646,0.9115,0.7343,0.6283,0.6321,0.7192,0.8588,0.8129,0.7774,0.7744,0.9275,1.0858,1.233,1.233,1.233,1.233,1.233,1.164,1.0634,0.9059,0.8808,0.8791,0.8798,1.0701,1.1664,1.0003,1.1666,1.311,1.3122,1.3086,1.3122,1.3099,1.4505,1.4773,1.3237,1.4492,1.542,1.542,1.54,1.541,1.541,1.541,1.541,1.541,1.541,1.541,1.541,1.541,1.541,1.541,1.541,1.541,1.541,1.541,1.541,1.541,1.541,1.541,1.541,1.541,1.5089,1.4709,1.5216,1.54,1.542,1.542,1.5409,1.5407,1.539,1.5417,1.5134,1.3606,1.308,1.3086,1.3086,1.3116,1.2725,1.1043,1.0586,1.0624,1.0624,1.0624,1.0624,1.0624,1.0624,1.0624,1.0624,1.0624,1.0624,1.0624,1.0681,1.0735,1.0651,1.0752,1.0735,1.0645,1.0624,1.0624,1.0624,1.0695,1.0788,1.0788,1.0788,1.0788,1.0788,1.0915,1.0916,1.0704,1.1272,1.1552,1.1392,1.1405,1.1474,1.162,1.162,1.1564,1.1608,1.0674,0.9195,0.7263,0.7931,0.8574,0.9271,0.8908,0.8949,0.915,0.8941,0.9622,1.0965,1.1955,1.2297,1.2048,1.0153,0.9787,1.0157,0.8781,0.8797,0.8791,0.879,0.8786,0.8775,0.8813,0.9849,1.0614,1.0599,1.0627,1.058,1.0601,1.3449,1.4239,1.1299,1.3554,1.5131,1.5131,1.5067,1.505,1.5177,1.5167,1.5235,1.541,1.541,1.541,1.541,1.541,1.541,1.541,1.541,1.541,1.541,1.541,1.541,1.541,1.541,1.5294,1.5167,1.5167,1.4601,1.3725,1.4532,1.5096,1.5415,1.5415,1.539,1.5345,1.4782,1.456,1.4109,1.1448,1.0615,1.0574,1.0574,1.0575,1.0588,1.0588,1.0607,1.0624,1.0624,1.0624,1.0624,1.0624,1.0624,1.0624,1.0624,1.0624,1.0624,1.0624,1.0624,1.0624,1.0624,1.0624,1.0624,1.0624,1.0624,1.0624,1.0624,1.0624,1.0624,1.0624,1.0624,1.0624,1.0624,1.0692,1.0482,0.9869,1.0771,1.1044,1.0484,1.049,1.0513,1.0559,1.0565,1.0565,1.0565,1.139,1.0686,0.8788,0.9695,0.9938,0.9518,0.9518,1.053,1.1864,0.9644,0.9045,0.9633,1.1329,1.2077,1.1835,0.8148,0.8236,1.0005,0.8784,0.8798,0.8811,0.8778,0.8798,0.879,0.8824,0.9827,1.058,1.0604,1.0606,1.0587,1.0581,1.3467,1.4639,1.2837,1.3485,1.399,1.399,1.3597,1.3666,1.4323,1.4392,1.4688,1.5352,1.541,1.541,1.541,1.541,1.541,1.541,1.541,1.541,1.541,1.541,1.541,1.541,1.541,1.4991,1.4392,1.4392,1.3846,1.3045,1.2728,1.377,1.5415,1.5415,1.5425,1.4985,1.2179,1.1258,1.116,1.0733,1.0608,1.0577,1.0577,1.0584,1.0598,1.0598,1.0611,1.0624,1.0624,1.0624,1.0624,1.0624,1.0624,1.0624,1.0624,1.0624,1.0624,1.0624,1.0624,1.0624,1.0624,1.0624,1.0624,1.0624,1.0624,1.0624,1.0624,1.0624,1.0624,1.0624,1.0624,1.0624,1.0624,1.0027,0.965,0.9551,0.9093,0.8903,0.9051,0.9056,0.9232,0.9523,0.9523,0.9523,0.9523,0.9604,0.9976,1.0479,0.975,0.9825,1.0565,1.0565,1.0714,1.095,1.0616,1.0364,1.0198,1.0444,1.126,1.2019,0.9723,0.9145,0.9514,0.8804,0.8804,0.8804,0.8804,0.8804,0.8784,0.8828,0.9245,0.9588,0.9617,1.0154,1.0627,1.0622,1.1571,1.1994,1.1361,1.2111,1.2574,1.2708,1.287,1.3191,1.3485,1.3554,1.3726,1.4025,1.451,1.4756,1.4756,1.5167,1.541,1.541,1.541,1.541,1.541,1.541,1.541,1.541,1.541,1.5167,1.4864,1.4864,1.4145,1.2931,1.239,1.2393,1.2752,1.274,1.2691,1.2523,1.1062,1.0629,1.06,1.06,1.0577,1.0624,1.0624,1.0624,1.0624,1.0624,1.0624,1.0624,1.0624,1.0624,1.0624,1.0624,1.0624,1.0624,1.0624,1.0624,1.0624,1.0624,1.0624,1.0624,1.0624,1.0624,1.0624,1.0624,1.0624,1.0624,1.0624,1.0624,1.0624,1.0624,1.0624,1.0624,1.0624,1.0425,1.011,0.9499,0.9399,0.9157,0.8689,0.8302,0.812,0.8286,0.8406,0.8466,0.8466,0.8993,0.976,1.046,0.9685,0.9357,0.9401,0.9804,0.997,0.997,0.997,0.9884,0.9804,1.0132,1.0455,1.0547,0.9609,0.9074,0.8694]},{"header":{"parameterUnit":"m.s-1","parameterCategory":1,"la1":30.6,"la2":28.766,"lo1":-90.7593,"lo2":-88.6598,"dy":0.0162,"dx":0.0183,"nx":116,"ny":114,"refTime":"2023-07-04T18:00:00:Z","depth":0,"parameterNumber":3,"parameterNumberName":"V-component_of_WINDS"},"data":[0.0,0.0,0.0,0.0,0.0,0.0,0.0,0.0,0.0,0.0,0.0,0.0,0.0,0.0,0.0,0.0,0.0,0.0,0.0,0.0,0.0,0.0,0.0,0.0,0.0,0.0,0.0,0.0,0.0,0.0,0.0,0.0,0.0,0.0,0.0,0.0,0.0,0.0,0.0,0.0,0.0,0.0,0.0,0.0,0.0,0.0,0.0,0.0,0.0,0.0,0.0,0.0,0.0,0.0,0.0,0.0,0.0,0.0,0.0,0.0,0.0,0.0,0.0,0.0,0.0,0.0,0.0,0.0,0.0,0.0,0.0,0.0,0.0,0.0,0.0,0.0,0.0,0.0,0.0,0.0,0.0,0.0,0.0,0.0,0.0,0.0,0.0,0.0,0.0,0.0,0.0,0.0,0.0,0.0,0.0,0.0,0.0,0.0,0.0,0.0,0.0,0.0,0.0,0.0,0.0,0.0,0.0,0.0,0.0,0.0,0.0,0.0,0.0,0.0,0.0,0.0,0.0,0.0,0.0,0.0,0.0,0.0,0.0,0.0,0.0,0.0,0.0,0.0,0.0,0.0,0.0,0.0,0.0,0.0,0.0,0.0,0.0,0.0,0.0,0.0,0.0,0.0,0.0,0.0,0.0,0.0,0.0,0.0,0.0,0.0,0.0,0.0,0.0,0.0,0.0,0.0,0.0,0.0,0.0,0.0,0.0,0.0,0.0,0.0,0.0,0.0,0.0,0.0,0.0,0.0,0.0,0.0,0.0,0.0,0.0,0.0,0.0,0.0,0.0,0.0,0.0,0.0,0.0,0.0,0.0,0.0,0.0,0.0,0.0,0.0,0.0,0.0,0.0,0.0,0.0,0.0,0.0,0.0,0.0,0.0,0.0,0.0,0.0,0.0,0.0,0.0,0.0,0.0,0.0,0.0,0.0,0.0,0.0,0.0,0.0,0.0,0.0,0.0,0.0,0.0,0.0,0.0,0.0,0.0,0.0,0.0,0.0,0.0,0.0,0.0,0.0,0.0,0.0,0.0,0.0,0.0,0.0,0.0,0.0,0.0,0.0,0.0,0.0,0.0,0.0,0.0,0.0,0.0,0.0,0.0,0.0,0.0,0.0,0.0,0.0,0.0,0.0,0.0,0.0,0.0,0.0,0.0,0.0,0.0,0.0,0.0,0.0,0.0,0.0,0.0,0.0,0.0,0.0,0.0,0.0,0.0,0.0,0.0,0.0,0.0,0.0,0.0,0.0,0.0,0.0,0.0,0.0,0.0,0.0,0.0,0.0,0.0,0.0,0.0,0.0,0.0,0.0,0.0,0.0,0.0,0.0,0.0,0.0,0.0,0.0,0.0,0.0,0.0,0.0,0.0,0.0,0.0,0.0,0.0,0.0,0.0,0.0,0.0,0.0,0.0,0.0,0.0,0.0,0.0,0.0,0.0,0.0,0.0,0.0,0.0,0.0,0.0,0.0,0.0,0.0,0.0,0.0,0.0,0.0,0.0,0.0,0.0,0.0,0.0,0.0,0.0,0.0,0.0,0.0,0.0,0.0,0.0,0.0,0.0,0.0,0.0,0.0,0.0,0.0,0.0,0.0,0.0,0.0,0.0,0.0,0.0,0.0,0.0,0.0,0.0,0.0,0.0,0.0,0.0,0.0,0.0,0.0,0.0,0.0,0.0,0.0,0.0,0.0,0.0,0.0,0.0,0.0,0.0,0.0,0.0,0.0,0.0,0.0,0.0,0.0,0.0,0.0,0.0,0.0,0.0,0.0,0.0,0.0,0.0,0.0,0.0,0.0,0.0,0.0,0.0,0.0,0.0,0.0,0.0,0.0,0.0,0.0,0.0,0.0,0.0,0.0,0.0,0.0,0.0,0.0,0.0,0.0,0.0,0.0,0.0,0.0,0.0,0.0,0.0,0.0,0.0,0.0,0.0,0.0,0.0,0.0,0.0,0.0,0.0,0.0,0.0,0.0,0.0,0.0,0.0,0.0,0.0,0.0,0.0,0.0,0.0,0.0,0.0,0.0,0.0,0.0,0.0,0.0,0.0,0.0,0.0,0.0,0.0,0.0,0.0,0.0,0.0,0.0,0.0,0.0,0.0,0.0,0.0,0.0,0.0,0.0,0.0,0.0,0.0,0.0,0.0,0.0,0.0,0.0,0.0,0.0,0.0,0.0,0.0,0.0,0.0,0.0,0.0,0.0,0.0,0.0,0.0,0.0,0.0,0.0,0.0,0.0,0.0,0.0,0.0,0.0,0.0,0.0,0.0,0.0,0.0,0.0,0.0,0.0,0.0,0.0,0.0,0.0,0.0,0.0,0.0,0.0,0.0,0.0,0.0,0.0,0.0,0.0,0.0,0.0,0.0,0.0,0.0,0.0,0.0,0.0,0.0,0.0,0.0,0.0,0.0,0.0,0.0,0.0,0.0,0.0,0.0,0.0,0.0,0.0,0.0,0.0,0.0,0.0,0.0,0.0,0.0,0.0,0.0,0.0,0.0,0.0,0.0,0.0,0.0,0.0,0.0,0.0,0.0,0.0,0.0,0.0,0.0,0.0,0.0,0.0,0.0,0.0,0.0,0.0,0.0,0.0,0.0,0.0,0.0,0.0,0.0,0.0,0.0,0.0,0.0,0.0,0.0,0.0,0.0,0.0,0.0,0.0,0.0,0.0,0.0,0.0,0.0,0.0,0.0,0.0,0.0,0.0,0.0,0.0,0.0,0.0,0.0,0.0,0.0,0.0,0.0,0.0,0.0,0.0,0.0,0.0,0.0,0.0,0.0,0.0,0.0,0.0,0.0,0.0,0.0,0.0,0.0,0.0,0.0,0.0,0.0,0.0,0.0,0.0,0.0,0.0,0.0,0.0,0.0,0.0,0.0,0.0,0.0,0.0,0.0,0.0,0.0,0.0,0.0,0.0,0.0,0.0,0.0,0.0,0.0,0.0,0.0,0.0,0.0,0.0,0.0,0.0,0.0,0.0,0.0,0.0,0.0,0.0,0.0,0.0,0.0,0.0,0.0,0.0,0.0,0.0,0.0,0.0,0.0,0.0,0.0,0.0,0.0,0.0,0.0,0.0,0.0,0.0,0.0,0.0,0.0,0.0,0.0,0.0,0.0,0.0,0.0,0.0,0.0,0.0,0.0,0.0,0.0,0.0,0.0,0.0,0.0,0.0,0.0,0.0,0.0,0.0,0.0,0.0,0.0,0.0,0.0,0.0,0.0,0.0,0.0,0.0,0.0,0.0,0.0,0.0,0.0,0.0,0.0,0.0,0.0,0.0,0.0,0.0,0.0,0.0,0.0,0.0,0.0,0.0,0.0,0.0,0.0,0.0,0.0,0.0,0.0,0.0,0.0,0.0,0.0,0.0,0.0,0.0,0.0,0.0,0.0,0.0,0.0,0.0,0.0,0.0,0.0,0.0,0.0,0.0,0.0,0.0,0.0,0.0,0.0,0.0,0.0,0.0,0.0,0.0,0.0,0.0,0.0,0.0,0.0,0.0,0.0,0.0,0.0,0.0,0.0,0.0,0.0,0.0,0.0,0.0,0.0,0.0,0.0,0.0,0.0,0.0,0.0,0.0,0.0,0.0,0.0,0.0,0.0,0.0,0.0,0.0,0.0,0.0,0.0,0.0,0.0,0.0,0.0,0.0,0.0,0.0,0.0,0.0,0.0,0.0,0.0,0.0,0.0,0.0,0.0,0.0,0.0,0.0,0.0,0.0,0.0,0.0,0.0,0.0,0.0,0.0,0.0,0.0,0.0,0.0,0.0,0.0,0.0,0.0,0.0,0.0,0.0,0.0,0.0,0.0,0.0,0.0,0.0,0.0,0.0,0.0,0.0,0.0,0.0,0.0,0.0,0.0,0.0,0.0,0.0,0.0,0.0,0.0,0.0,0.0,0.0,0.0,0.0,0.0,0.0,0.0,0.0,0.0,0.0,0.0,0.0,0.0,0.0,0.0,0.0,0.0,0.0,0.0,0.0,0.0,0.0,0.0,0.0,0.0,0.0,0.0,0.0,0.0,0.0,0.0,0.0,0.0,0.0,0.0,0.0,0.0,0.0,0.0,0.0,0.0,0.0,0.0,0.0,0.0,0.0,0.0,0.0,0.0,0.0,0.0,0.0,0.0,0.0,0.0,0.0,0.0,0.0,0.0,0.0,0.0,0.0,0.0,0.0,0.0,0.0,0.0,0.0,0.0,0.0,0.0,0.0,0.0,0.0,0.0,0.0,0.0,0.0,0.0,0.0,0.0,0.0,0.0,0.0,0.0,0.0,0.0,0.0,0.0,0.0,0.0,0.0,0.0,0.0,0.0,0.0,0.0,0.0,0.0,0.0,0.0,0.0,0.0,0.0,0.0,0.0,0.0,0.0,0.0,0.0,0.0,0.0,0.0,0.0,0.0,0.0,0.0,0.0,0.0,0.0,0.0,0.0,0.0,0.0,0.0,0.0,0.0,0.0,0.0,0.0,0.0,0.0,0.0,0.0,0.0,0.0,0.0,0.0,0.0,0.0,0.0,0.0,0.0,0.0,0.0,0.0,0.0,0.0,0.0,0.0,0.0,0.0,0.0,0.0,0.0,0.0,0.0,0.0,0.0,0.0,0.0,0.0,0.0,0.0,0.0,0.0,0.0,0.0,0.0,0.0,0.0,0.0,0.0,0.0,0.0,0.0,0.0,0.0,0.0,0.0,0.0,0.0,0.0,0.0,0.0,0.0,0.0,0.0,0.0,0.0,0.0,0.0,0.0,0.0,0.0,0.0,0.0,0.0,0.0,0.0,0.0,0.0,0.0,0.0,0.0,0.0,0.0,0.0,0.0,0.0,0.0,0.0,0.0,0.0,0.0,0.0,0.0,0.0,0.0,0.0,0.0,0.0,0.0,0.0,0.0,0.0,0.0,0.0,0.0,0.0,0.0,0.0,0.0,0.0,0.0,0.0,0.0,0.0,0.0,0.0,0.0,0.0,0.0,0.0,0.0,0.0,0.0,0.0,0.0,0.0,0.0,0.0,0.0,0.0,0.0,0.0,0.0,0.0,0.0,0.0,0.0,0.0,0.0,0.0,0.0,0.0,0.0,0.0,0.0,0.0,0.0,0.0,0.0,0.0,0.0,0.0,0.0,0.0,0.0,0.0,0.0,0.0,0.0,0.0,0.0,0.0,0.0,0.0,0.0,0.0,0.0,0.0,0.0,0.0,0.0,0.0,0.0,0.0,0.0,0.0,0.0,0.0,0.0,0.0,0.0,0.0,0.0,0.0,0.0,0.0,0.0,0.0,0.0,0.0,0.0,0.0,0.0,0.0,0.0,0.0,0.0,0.0,0.0,0.0,0.0,0.0,0.0,0.0,0.0,0.0,0.0,0.0,0.0,0.0,0.0,0.0,0.0,0.0,0.0,0.0,0.0,0.0,0.0,0.0,0.0,0.0,0.0,0.0,0.0,0.0,0.0,0.0,0.0,0.0,0.0,0.0,0.0,0.0,0.0,0.0,0.0,0.0,0.0,0.0,0.0,0.0,0.0,0.0,0.0,0.0,0.0,0.0,0.0,0.0,0.0,0.0,0.0,0.0,0.0,0.0,0.0,0.0,0.0,0.0,0.0,0.0,0.0,0.0,0.0,0.0,0.0,0.0,0.0,0.0,0.0,0.0,0.0,0.0,0.0,0.0,0.0,0.0,0.0,0.0,0.0,0.0,0.0,0.0,0.0,0.0,0.0,0.0,0.0,0.0,0.0,0.0,0.0,0.0,0.0,0.0,0.0,0.0,0.0,0.0,0.0,0.0,0.0,0.0,0.0,0.0,0.0,0.0,0.0,0.0,0.0,0.0,0.0,0.0,0.0,0.0,0.0,0.0,0.0,0.0,0.0,0.0,0.0,0.0,0.0,0.0,0.0,0.0,0.0,0.0,0.0,0.0,0.0,0.0,0.0,0.0,0.0,0.0,0.0,0.0,0.0,0.0,0.0,0.0,0.0,0.0,0.0,0.0,0.0,0.0,0.0,0.0,0.0,0.0,0.0,0.0,0.0,0.0,0.0,0.0,0.0,0.0,0.0,0.0,0.0,0.0,0.0,0.0,0.0,0.0,0.0,0.0,0.0,0.0,-2.4792,0.0,0.0,0.0,0.0,0.0,0.0,0.0,0.0,0.0,0.0,0.0,0.0,0.0,0.0,0.0,0.0,0.0,0.0,0.0,0.0,0.0,0.0,0.0,0.0,0.0,0.0,0.0,0.0,0.0,0.0,0.0,0.0,0.0,0.0,0.0,0.0,0.0,0.0,0.0,0.0,0.0,0.0,0.0,0.0,0.0,0.0,0.0,0.0,0.0,0.0,0.0,0.0,0.0,0.0,0.0,0.0,0.0,0.0,0.0,0.0,0.0,0.0,0.0,0.0,0.0,0.0,0.0,0.0,0.0,0.0,0.0,0.0,0.0,0.0,0.0,0.0,0.0,0.0,0.0,0.0,0.0,0.0,0.0,0.0,0.0,0.0,0.0,0.0,0.0,0.0,0.0,0.0,0.0,0.0,0.0,0.0,0.0,0.0,0.0,0.0,0.0,0.0,0.0,0.0,0.0,0.0,0.0,0.0,0.0,0.0,0.0,0.0,0.0,0.0,0.0,0.0,-2.5973,0.0,0.0,0.0,0.0,0.0,0.0,0.0,0.0,0.0,0.0,0.0,0.0,0.0,0.0,0.0,0.0,0.0,0.0,0.0,0.0,0.0,0.0,0.0,0.0,0.0,0.0,0.0,0.0,0.0,0.0,0.0,0.0,0.0,0.0,0.0,0.0,0.0,0.0,0.0,0.0,0.0,0.0,0.0,0.0,0.0,0.0,0.0,0.0,0.0,0.0,0.0,0.0,0.0,0.0,0.0,0.0,0.0,0.0,0.0,0.0,0.0,0.0,0.0,0.0,0.0,0.0,0.0,0.0,0.0,0.0,0.0,0.0,0.0,0.0,0.0,0.0,0.0,0.0,0.0,0.0,0.0,0.0,0.0,0.0,0.0,0.0,0.0,0.0,0.0,0.0,0.0,0.0,0.0,0.0,0.0,0.0,0.0,0.0,0.0,0.0,0.0,0.0,0.0,0.0,0.0,0.0,0.0,0.0,-2.7397,-2.7753,-2.7883,-2.7883,-2.8101,-2.8528,-2.8176,-2.8134,-2.8069,-2.6293,0.0,0.0,0.0,0.0,0.0,0.0,0.0,0.0,0.0,0.0,0.0,0.0,0.0,0.0,0.0,0.0,0.0,0.0,0.0,0.0,0.0,0.0,0.0,0.0,0.0,0.0,0.0,0.0,0.0,0.0,0.0,0.0,0.0,0.0,0.0,0.0,0.0,0.0,-2.528,-2.5414,-2.538,-2.5212,0.0,0.0,0.0,0.0,0.0,0.0,0.0,0.0,0.0,0.0,0.0,0.0,0.0,0.0,0.0,0.0,0.0,0.0,0.0,0.0,0.0,0.0,0.0,0.0,0.0,0.0,0.0,0.0,0.0,0.0,0.0,0.0,0.0,0.0,0.0,0.0,0.0,0.0,0.0,0.0,0.0,0.0,0.0,0.0,-2.5844,-2.5754,0.0,0.0,0.0,0.0,0.0,0.0,0.0,0.0,0.0,0.0,0.0,0.0,0.0,-2.5431,-2.6134,-2.6733,-2.7652,-2.8885,-2.882,-2.911,-2.9732,-2.9732,-2.9787,-2.9859,-3.0443,0.0,-2.8196,-2.7886,0.0,0.0,0.0,0.0,0.0,0.0,0.0,0.0,0.0,0.0,0.0,0.0,0.0,0.0,0.0,0.0,0.0,0.0,0.0,0.0,0.0,0.0,0.0,0.0,0.0,0.0,0.0,0.0,0.0,0.0,0.0,0.0,0.0,0.0,0.0,0.0,0.0,-2.5146,-2.6101,-2.6101,-2.6101,-2.6118,-2.6522,-2.6236,-2.543,-2.5792,0.0,0.0,0.0,0.0,0.0,0.0,0.0,0.0,0.0,0.0,0.0,0.0,0.0,0.0,0.0,0.0,0.0,0.0,0.0,0.0,0.0,0.0,0.0,0.0,0.0,0.0,0.0,0.0,0.0,0.0,0.0,0.0,0.0,0.0,0.0,0.0,0.0,0.0,0.0,-2.5621,-2.5584,-2.5454,-2.5192,-2.4823,0.0,0.0,0.0,0.0,0.0,0.0,0.0,0.0,0.0,-2.6254,-2.6684,-2.7213,-2.7827,-2.8448,-2.9113,-2.975,-3.0099,-3.0395,-3.0717,-3.0717,-3.0717,-3.0734,-3.1055,-3.0684,-2.9833,-2.9125,-2.833,-2.7541,0.0,0.0,0.0,0.0,-2.5462,-2.5464,0.0,0.0,0.0,0.0,0.0,0.0,0.0,0.0,0.0,0.0,0.0,0.0,0.0,0.0,0.0,-2.3257,0.0,0.0,0.0,0.0,0.0,0.0,0.0,0.0,0.0,0.0,0.0,0.0,0.0,0.0,-2.6691,-2.6505,-2.6522,-2.6691,-2.6691,-2.6202,-2.5447,-2.6283,-2.5773,0.0,0.0,0.0,0.0,0.0,0.0,0.0,0.0,0.0,0.0,0.0,0.0,0.0,0.0,0.0,0.0,0.0,0.0,0.0,0.0,0.0,0.0,0.0,0.0,0.0,0.0,0.0,0.0,0.0,0.0,0.0,0.0,0.0,0.0,0.0,0.0,0.0,0.0,-2.5605,-2.5513,-2.523,-2.516,-2.4887,0.0,0.0,0.0,0.0,0.0,0.0,-2.5944,-2.65,-2.7042,-2.7587,-2.8101,-2.8774,-2.955,-2.9922,-3.0294,-3.0666,-3.1021,-3.1292,-3.1461,-3.1461,-3.1461,-3.1461,-3.1461,-3.136,-3.1117,-3.0156,-2.9606,-2.9213,-2.8274,-2.7687,-2.7444,-2.7567,-2.7421,-2.729,0.0,0.0,0.0,0.0,0.0,0.0,0.0,0.0,0.0,0.0,0.0,0.0,0.0,0.0,-2.2736,-2.3592,-2.3432,-2.3124,0.0,0.0,0.0,0.0,0.0,0.0,0.0,0.0,0.0,0.0,0.0,0.0,0.0,0.0,0.0,0.0,-2.6691,-2.6285,-2.5576,-2.5659,-2.5203,-2.4425,0.0,0.0,0.0,0.0,0.0,0.0,0.0,0.0,0.0,0.0,0.0,0.0,0.0,0.0,0.0,0.0,0.0,0.0,0.0,0.0,0.0,0.0,0.0,0.0,0.0,0.0,0.0,0.0,0.0,0.0,0.0,0.0,0.0,0.0,0.0,0.0,0.0,0.0,0.0,-2.554,-2.5941,0.0,0.0,0.0,0.0,-2.6182,-2.623,-2.6758,-2.797,-2.8075,-2.8372,-2.8887,-2.8958,-2.9651,-3.1072,-3.0429,-3.0801,-3.2171,-3.1512,-3.1562,-3.2222,-3.2222,-3.2222,-3.2222,-3.2222,-3.1833,-3.119,-3.1117,-3.0409,-2.9303,-2.9213,-2.847,-2.7469,-2.7984,-2.8586,-2.9244,0.0,0.0,0.0,0.0,0.0,0.0,0.0,0.0,0.0,0.0,0.0,0.0,0.0,-2.3524,-2.4566,-2.5491,-2.594,-2.5403,-2.3562,0.0,0.0,0.0,0.0,0.0,0.0,0.0,0.0,0.0,0.0,0.0,0.0,0.0,0.0,0.0,0.0,0.0,0.0,-2.6505,-2.5798,-2.4977,-2.4757,-2.413,0.0,0.0,0.0,0.0,0.0,0.0,0.0,0.0,0.0,0.0,0.0,0.0,0.0,0.0,0.0,0.0,0.0,0.0,0.0,0.0,0.0,0.0,0.0,0.0,0.0,0.0,0.0,0.0,0.0,0.0,0.0,0.0,0.0,0.0,0.0,0.0,0.0,-2.6498,-2.7081,0.0,-2.6863,-2.7059,-2.7306,-2.7512,-2.7833,-2.8448,-2.9353,-2.9878,-3.0443,-3.1089,-3.1579,-3.2087,-3.2611,-3.2357,-3.2493,-3.3,-3.2747,-3.2747,-3.3,-3.3,-3.3,-3.3,-3.3,-3.2865,-3.2577,-3.2087,-3.1365,-3.0532,-3.0532,-3.0011,-2.9337,-2.9916,-2.9823,-2.9432,0.0,0.0,0.0,0.0,0.0,0.0,0.0,0.0,0.0,0.0,0.0,-2.1305,-2.3735,-2.4764,-2.563,-2.6518,-2.6833,-2.6197,-2.4302,0.0,0.0,0.0,0.0,0.0,0.0,0.0,0.0,0.0,0.0,0.0,0.0,0.0,0.0,0.0,0.0,0.0,0.0,0.0,0.0,-2.6521,-2.6068,-2.5427,-2.4635,0.0,0.0,0.0,0.0,0.0,0.0,0.0,0.0,0.0,0.0,0.0,0.0,0.0,0.0,0.0,0.0,0.0,0.0,0.0,0.0,0.0,0.0,0.0,0.0,0.0,0.0,0.0,0.0,0.0,0.0,0.0,0.0,0.0,0.0,0.0,-2.7732,-2.7656,-2.8351,-2.8793,-2.8649,-2.8764,-2.9043,-2.9565,-2.9905,-3.0429,-3.1173,-3.1681,-3.2171,-3.2645,-3.3152,-3.3525,-3.3778,-3.3525,-3.3525,-3.3778,-3.3525,-3.3541,-3.3778,-3.4032,-3.4015,-3.3778,-3.4032,-3.3863,-3.3372,-3.2865,-3.2374,-3.1918,-3.1664,-3.1357,-3.1077,-3.1715,-3.129,-3.049,0.0,0.0,0.0,0.0,0.0,0.0,0.0,0.0,0.0,0.0,-2.0725,-2.2018,-2.3883,-2.4864,-2.5713,-2.6539,-2.586,-2.5244,-2.4852,-2.3257,0.0,0.0,0.0,0.0,0.0,0.0,0.0,0.0,0.0,0.0,0.0,0.0,0.0,0.0,0.0,0.0,0.0,0.0,0.0,0.0,-2.7173,-2.6991,-2.7435,0.0,0.0,0.0,0.0,0.0,0.0,0.0,0.0,0.0,0.0,0.0,0.0,0.0,0.0,0.0,0.0,0.0,0.0,0.0,0.0,0.0,0.0,0.0,0.0,0.0,0.0,0.0,0.0,0.0,0.0,0.0,0.0,0.0,-2.7125,-2.7964,-2.8677,-2.8943,-2.9715,-3.0269,-3.046,-3.0308,-3.0818,-3.2239,-3.2381,-3.2679,-3.344,-3.3491,-3.3508,-3.3508,-3.3541,-3.388,-3.4556,-3.3863,-3.3863,-3.4556,-3.3846,-3.3897,-3.4624,-3.5351,-3.5284,-3.4607,-3.5334,-3.4783,-3.3432,-3.3398,-3.3398,-3.3347,-3.2611,-3.2352,-3.2467,-3.3177,-3.2971,-3.2344,0.0,0.0,0.0,0.0,0.0,0.0,0.0,0.0,0.0,0.0,-2.1144,-2.2473,-2.5539,-2.5583,-2.5713,-2.6539,-2.586,-2.4827,-2.3458,0.0,0.0,0.0,0.0,0.0,0.0,0.0,0.0,0.0,0.0,0.0,0.0,0.0,0.0,0.0,0.0,0.0,0.0,0.0,0.0,0.0,0.0,-2.7842,-2.7097,0.0,0.0,0.0,0.0,0.0,0.0,0.0,0.0,0.0,0.0,0.0,0.0,0.0,0.0,0.0,0.0,0.0,0.0,0.0,0.0,0.0,0.0,0.0,0.0,0.0,0.0,0.0,0.0,0.0,0.0,0.0,0.0,-2.9037,-2.9202,-2.9955,-3.0679,-3.1281,-3.2032,-3.2519,-3.258,-3.2529,-3.2882,-3.3812,-3.388,-3.4218,-3.4979,-3.5554,-3.5859,-3.5859,-3.6383,-3.6502,-3.6146,-3.596,-3.596,-3.6146,-3.5943,-3.6248,-3.6975,-3.7178,-3.6874,-3.6163,-3.6366,-3.5648,-3.4217,-3.3686,-3.3491,-3.355,-3.3215,-3.2847,-3.2557,-3.316,-3.2679,-3.1616,0.0,0.0,0.0,0.0,0.0,0.0,0.0,0.0,0.0,0.0,-2.1309,-2.2529,-2.5748,-2.5364,-2.5217,-2.6025,-2.5012,-2.3871,-2.2881,0.0,0.0,0.0,0.0,0.0,0.0,0.0,0.0,0.0,0.0,0.0,0.0,0.0,0.0,0.0,0.0,0.0,0.0,0.0,0.0,0.0,0.0,0.0,-2.8625,-2.8046,-2.7978,-2.8235,-2.8032,-2.8561,-2.935,-2.9709,0.0,0.0,0.0,0.0,0.0,0.0,0.0,0.0,0.0,0.0,0.0,0.0,0.0,0.0,0.0,0.0,0.0,0.0,0.0,0.0,0.0,0.0,0.0,0.0,-2.9515,-3.0796,-3.2198,-3.2239,-3.2391,-3.3119,-3.3592,-3.3981,-3.4303,-3.4336,-3.4641,-3.5402,-3.574,-3.6113,-3.6552,-3.7009,-3.7246,-3.7246,-3.7686,-3.7702,-3.7263,-3.7246,-3.7246,-3.7246,-3.7246,-3.7483,-3.7922,-3.8227,-3.7787,-3.6806,-3.711,-3.6417,-3.4971,-3.4555,-3.4372,-3.4332,0.0,0.0,0.0,0.0,-3.2555,-3.1751,0.0,0.0,0.0,0.0,0.0,0.0,0.0,0.0,0.0,0.0,0.0,-2.2348,-2.5087,-2.4667,-2.4483,-2.5181,-2.3762,-2.2753,0.0,0.0,0.0,0.0,0.0,0.0,0.0,0.0,0.0,0.0,0.0,0.0,0.0,0.0,0.0,0.0,0.0,0.0,0.0,0.0,0.0,0.0,0.0,0.0,-3.1089,-2.9093,-2.9146,-3.0116,-2.8742,-2.8727,-2.9413,-2.9951,0.0,0.0,0.0,0.0,0.0,0.0,0.0,0.0,0.0,0.0,0.0,0.0,0.0,0.0,0.0,0.0,0.0,0.0,0.0,0.0,0.0,0.0,0.0,0.0,-3.1244,-3.2611,-3.525,-3.4641,-3.415,-3.481,-3.4878,-3.5148,-3.5825,-3.5876,-3.6197,-3.6975,-3.7652,-3.8024,-3.8024,0.0,0.0,0.0,0.0,-3.8108,-3.8024,-3.8024,-3.8024,-3.8024,-3.8024,-3.8075,-3.8176,-3.8819,-3.8345,-3.706,-3.7736,-3.7114,-3.5605,-3.5542,-3.5388,-3.5102,-3.3502,-3.2867,-3.2841,-3.2841,-3.2719,-3.2408,0.0,0.0,0.0,0.0,0.0,0.0,0.0,0.0,0.0,-2.1035,-2.1309,-2.2348,-2.5087,-2.4667,-2.4224,-2.4271,-2.3375,-2.246,0.0,0.0,0.0,0.0,0.0,0.0,0.0,0.0,0.0,0.0,0.0,0.0,0.0,0.0,0.0,0.0,0.0,0.0,0.0,0.0,0.0,0.0,0.0,0.0,-3.2019,-3.1579,-3.1462,-3.1438,-3.1127,-3.1235,-3.1533,-3.1638,-3.1372,-3.0929,-3.0489,0.0,0.0,0.0,0.0,0.0,0.0,0.0,0.0,0.0,0.0,0.0,0.0,0.0,0.0,0.0,0.0,0.0,0.0,0.0,0.0,-3.0616,-3.2959,-3.4962,-3.5537,-3.6434,-3.7094,-3.7229,-3.7246,-3.7313,-3.7449,-3.7466,-3.777,-3.8514,-3.87,-3.8785,-3.8785,-3.9343,-3.9394,-3.8802,-3.9343,-3.9377,-3.8785,-3.8785,-3.8785,-3.8785,-3.8785,0.0,-3.9665,-3.98,-3.9394,-3.8565,-3.8717,-3.7599,-3.5629,-3.5116,-3.4165,-3.3259,-3.4513,-3.4684,-3.4235,-3.4235,-3.3501,-3.2458,0.0,0.0,0.0,0.0,0.0,0.0,0.0,0.0,0.0,0.0,-2.0598,-2.1288,-2.3153,-2.2991,-2.2735,-2.2638,-2.2274,0.0,0.0,0.0,0.0,0.0,0.0,0.0,0.0,0.0,0.0,0.0,0.0,0.0,0.0,0.0,0.0,0.0,0.0,0.0,0.0,0.0,0.0,0.0,0.0,0.0,-3.3863,-3.3119,-3.2757,-3.253,-3.2192,-3.2283,-3.249,-3.209,-3.1934,-3.1767,-3.1028,-3.0845,-3.0557,0.0,0.0,0.0,0.0,0.0,0.0,0.0,0.0,0.0,0.0,0.0,0.0,0.0,0.0,-2.9102,0.0,0.0,-3.2269,-3.3564,-3.5127,-3.6468,-3.7212,-3.7973,-3.8311,-3.7939,-3.7905,-3.7905,-3.7905,-3.8227,-3.8599,-3.8954,-3.9326,-3.9529,-3.9529,-3.9884,-3.9918,-3.9546,-3.9884,-3.9901,-3.9529,-3.9529,-3.9529,-3.9529,-3.9529,-3.9732,-4.007,-4.007,-3.9681,-3.8988,-3.8988,-3.8183,-3.6785,-3.6423,-3.5671,-3.4796,-3.6185,-3.563,-3.3999,-3.3653,-3.3107,-3.2423,0.0,0.0,0.0,0.0,0.0,0.0,0.0,0.0,0.0,0.0,0.0,-2.0271,-2.12,-2.1309,-2.1236,0.0,0.0,0.0,0.0,0.0,0.0,0.0,0.0,0.0,0.0,0.0,0.0,0.0,0.0,0.0,0.0,0.0,0.0,0.0,0.0,0.0,0.0,0.0,0.0,0.0,0.0,-3.5977,-3.5707,-3.4523,-3.3905,-3.3641,-3.274,-3.2591,-3.2674,-3.2033,-3.2039,-3.215,-3.1307,-3.113,-3.081,-2.8698,-2.8032,0.0,0.0,0.0,0.0,0.0,0.0,0.0,0.0,0.0,-2.9704,-3.0129,-3.0799,-3.1712,-3.3038,-3.3533,-3.4393,-3.6485,-3.7026,-3.7618,-3.8819,-3.9106,-3.8988,-3.8396,-3.8328,-3.8328,-3.8328,-3.8853,-3.9208,-3.9208,-3.9749,-4.007,-4.007,-4.007,-4.007,-4.007,-4.007,-4.007,-4.007,-4.007,-4.007,-4.007,-4.007,-4.007,-4.007,-4.007,-3.9766,-3.9191,-3.9056,-3.8601,-3.7898,-3.7747,-3.7345,-3.688,-3.7434,-3.6325,-3.4228,-3.3423,-3.2839,-3.2377,0.0,0.0,0.0,0.0,0.0,0.0,0.0,0.0,0.0,0.0,0.0,0.0,0.0,0.0,0.0,0.0,0.0,0.0,0.0,0.0,0.0,0.0,0.0,0.0,0.0,0.0,0.0,0.0,0.0,0.0,0.0,0.0,0.0,0.0,0.0,0.0,0.0,0.0,0.0,0.0,-3.7652,-3.7246,-3.6637,-3.6468,-3.5847,-3.48,-3.3408,-3.2478,-3.1946,-3.1806,-3.1672,-3.1482,-3.1253,-3.155,-3.147,-2.8848,0.0,-2.7051,-2.5113,-2.553,-2.6764,-2.8027,-2.9185,-3.0617,0.0,0.0,-3.3077,-3.376,-3.4503,-3.4874,-3.4428,-3.5442,-3.6485,-3.6738,-3.7889,-3.8802,-3.8971,-3.9546,-3.9935,-3.9834,-3.9834,-3.9834,-3.9834,-3.9918,-3.9952,-3.9952,-4.002,-4.007,-4.007,-4.007,-4.007,-4.007,-4.007,-4.007,-4.007,-4.007,-4.007,-4.007,-4.007,-4.007,-4.007,-4.007,-4.0037,-3.9918,-3.9276,-3.8623,-3.7947,-3.72,-3.6856,-3.6825,-3.6922,-3.7062,-3.7192,-3.5856,-3.4162,-3.2572,0.0,0.0,0.0,0.0,0.0,0.0,0.0,0.0,0.0,0.0,0.0,0.0,0.0,0.0,0.0,0.0,0.0,0.0,0.0,0.0,0.0,0.0,0.0,0.0,0.0,0.0,0.0,0.0,0.0,0.0,0.0,0.0,0.0,0.0,0.0,0.0,0.0,0.0,0.0,-3.7905,-3.7905,-3.7449,-3.6772,-3.6772,-3.5688,-3.3977,-3.2474,-3.1585,0.0,0.0,-2.9574,-2.9665,-2.9327,-2.9385,-2.9201,-2.7229,-2.6499,0.0,-2.6336,-2.7415,0.0,0.0,-3.1775,-3.3208,-3.4101,-3.4645,-3.5177,-3.5712,-3.6434,-3.6992,-3.7094,-3.7635,-3.821,0.0,-3.9225,-3.9631,-3.9631,-3.9884,-4.007,-4.007,-4.007,-4.007,-4.007,-4.007,-4.007,-4.007,-4.007,-4.007,-4.007,-4.007,-4.007,-4.007,-4.007,-4.007,-4.007,-4.007,-4.007,-4.007,-4.007,-4.007,-4.007,-4.007,-4.007,-4.0054,-3.9749,-3.9211,-3.8572,-3.8707,-3.8453,-3.8112,-3.8526,-3.8607,-3.83,-3.6892,-3.5776,-3.4898,0.0,0.0,0.0,0.0,0.0,0.0,0.0,0.0,0.0,0.0,0.0,0.0,0.0,0.0,0.0,0.0,0.0,0.0,0.0,0.0,0.0,0.0,0.0,0.0,0.0,0.0,0.0,0.0,0.0,0.0,0.0,0.0,0.0,0.0,0.0,0.0,0.0,0.0,-3.8328,-3.8481,-3.8294,-3.7753,-3.7009,-3.64,-3.4759,-3.2662,-3.1579,-3.0622,0.0,0.0,-2.7689,-2.7858,-2.7573,-2.7436,-2.7113,-2.5709,-2.5088,-2.5225,-2.6776,0.0,0.0,-3.1875,-3.3812,-3.5274,-3.5404,-3.6226,-3.7095,-3.7587,-3.8125,-3.8667,-3.9191,-3.9292,-3.9462,-3.9986,-4.007,-4.007,-4.007,-4.007,-4.0003,-3.98,-3.9952,-4.0003,-3.98,-3.9952,-4.007,-4.007,-4.007,-4.007,-4.007,-4.007,-4.007,-4.007,-4.007,-4.007,-4.007,-4.007,-4.007,-4.007,-4.007,-4.007,-4.007,-4.007,-4.007,-4.007,-4.007,-3.9783,-3.9326,-3.9868,-3.9766,-3.9343,-3.9868,-3.9714,-3.909,-3.81,-3.7157,-3.6346,0.0,0.0,0.0,0.0,0.0,0.0,0.0,0.0,0.0,0.0,0.0,0.0,0.0,0.0,0.0,0.0,0.0,0.0,0.0,0.0,0.0,0.0,0.0,0.0,0.0,0.0,0.0,0.0,0.0,0.0,0.0,0.0,0.0,0.0,0.0,0.0,0.0,-3.8667,-3.9377,-3.9952,-3.9242,-3.8514,-3.7635,-3.5402,-3.3186,-3.1258,-3.1207,0.0,0.0,0.0,-2.6559,-2.6415,-2.6653,-2.6541,0.0,-2.4883,-2.3835,0.0,0.0,0.0,-2.9326,-3.2546,-3.4462,-3.6134,-3.8362,-3.8886,-3.9123,-3.9834,-4.0003,-4.002,-4.0037,-4.0054,-4.0054,-4.007,-4.007,-4.007,-4.007,-4.007,-3.9817,-3.9106,-3.9648,-3.98,0.0,-3.9665,-4.007,-4.007,-4.007,-4.007,-4.007,-4.007,-4.007,-4.007,-4.007,-4.007,-4.007,-4.007,-4.007,-4.007,-4.007,-4.007,-4.007,-4.007,-4.007,-4.007,-4.007,-4.007,-4.0054,-4.007,-4.007,-4.0054,-4.007,-4.007,-4.007,-4.0003,-3.8161,-3.5625,0.0,0.0,0.0,0.0,0.0,0.0,0.0,0.0,0.0,0.0,0.0,0.0,0.0,0.0,0.0,0.0,0.0,0.0,0.0,0.0,0.0,0.0,0.0,0.0,0.0,0.0,0.0,0.0,0.0,0.0,0.0,0.0,0.0,0.0,0.0,0.0,0.0,-3.8379,-3.8971,-3.9918,-3.821,-3.7077,-3.6146,-3.388,-3.1326,-2.8822,0.0,0.0,0.0,0.0,0.0,0.0,-2.4486,0.0,0.0,-2.3617,-2.3978,-2.4996,0.0,0.0,-3.2369,-3.5013,-3.6755,-3.8176,-3.9428,-3.9715,-3.9783,-4.002,-3.8739,-3.7597,-3.7597,-3.7597,-3.7597,-3.7597,-3.9007,-4.007,-4.007,-4.007,-3.9986,-3.9732,-3.9935,0.0,0.0,0.0,0.0,-4.007,-4.007,-4.007,-4.007,-4.007,-4.007,-4.007,-4.007,-4.007,-4.007,-4.007,-4.007,-4.007,-4.007,-4.007,-4.007,-4.007,-4.007,-4.007,-4.007,-4.007,-4.007,-4.007,-4.007,-4.007,-4.007,-4.007,-4.002,-3.9489,-3.8635,-3.7738,0.0,0.0,0.0,0.0,0.0,0.0,0.0,0.0,0.0,0.0,0.0,0.0,0.0,0.0,0.0,0.0,0.0,0.0,0.0,0.0,0.0,0.0,0.0,0.0,0.0,0.0,0.0,0.0,0.0,0.0,0.0,0.0,0.0,0.0,0.0,0.0,-3.7736,-3.7009,-3.7229,-3.7889,-3.5673,-3.4336,-3.3406,-3.114,-2.8924,0.0,0.0,0.0,0.0,0.0,0.0,0.0,0.0,-2.2887,-2.2902,-2.3689,-2.4762,-2.6317,-2.9377,-3.1854,-3.4206,-3.662,-3.8091,-3.9191,-3.9918,-4.007,-4.007,-4.007,-3.8083,-3.6298,-3.6298,-3.5863,-3.5382,-3.4988,-3.6628,-3.8132,-3.8654,-3.8722,-3.8974,-3.9631,-3.9918,-3.9969,0.0,0.0,0.0,-4.007,-4.007,-4.007,-4.007,-4.007,-4.007,-4.007,-4.007,-4.007,-4.007,-4.007,-4.007,-4.007,-4.007,-4.007,-4.007,-4.007,-4.007,-4.007,-4.007,-4.007,-4.007,-4.007,-4.007,-4.007,-4.007,-4.007,-4.002,-3.9542,-3.9139,-3.8799,0.0,0.0,0.0,0.0,0.0,0.0,0.0,0.0,0.0,0.0,0.0,0.0,0.0,0.0,0.0,0.0,0.0,0.0,0.0,0.0,0.0,0.0,0.0,0.0,0.0,0.0,0.0,0.0,0.0,0.0,0.0,0.0,0.0,0.0,0.0,0.0,-3.5233,-3.4523,-3.4252,-3.4134,-3.1918,-3.0615,-2.9736,-2.7452,0.0,0.0,0.0,0.0,0.0,0.0,0.0,0.0,0.0,0.0,-2.2992,-2.512,-2.6151,-2.7453,-3.1371,-3.3338,-3.4885,-3.7368,-3.8514,-3.9225,-3.9918,-4.0054,-4.0003,-3.9918,-3.7833,-3.6047,0.0,0.0,-3.3623,-3.2656,-3.3544,-3.4873,-3.6312,-3.6513,-3.7129,0.0,0.0,0.0,0.0,0.0,0.0,-4.007,0.0,-4.007,-4.007,-4.007,-4.007,-4.007,-4.007,-4.007,-4.007,-4.007,-4.007,-4.007,-4.007,-4.007,-4.007,-4.007,-4.007,-4.007,-4.007,-4.007,-4.002,-4.002,-4.002,-3.9952,-3.9952,-3.9952,-3.9952,-3.9952,-3.9489,-3.8745,0.0,0.0,0.0,0.0,0.0,0.0,0.0,0.0,0.0,0.0,0.0,0.0,0.0,0.0,0.0,0.0,0.0,0.0,0.0,0.0,0.0,0.0,0.0,0.0,0.0,0.0,0.0,0.0,0.0,0.0,0.0,0.0,0.0,0.0,0.0,0.0,-3.0666,-3.0463,-3.1021,-3.1833,0.0,-2.8569,-2.8127,0.0,0.0,0.0,0.0,0.0,0.0,0.0,0.0,0.0,0.0,-2.528,-2.6402,-2.7509,-2.9097,-3.0972,-3.333,-3.5408,-3.7219,-3.843,-3.9259,-3.9851,-4.0037,-3.9648,-3.8905,-3.7564,-3.4788,-3.2276,0.0,0.0,0.0,-3.2446,-3.5445,0.0,-3.8991,-3.9109,0.0,0.0,0.0,-4.0003,-3.9817,-3.9969,0.0,0.0,-4.007,-4.007,-4.007,-4.007,-4.007,-4.007,-4.007,-4.007,-4.007,-4.007,-4.007,-4.007,-4.007,-4.007,-4.007,-4.007,-4.007,-4.007,-4.007,-3.9782,-3.9209,-3.9209,-3.887,-3.8374,-3.8374,-3.8374,-3.8374,-3.8374,-3.8262,-3.8035,0.0,0.0,0.0,0.0,0.0,0.0,0.0,0.0,0.0,0.0,0.0,0.0,0.0,0.0,0.0,0.0,0.0,0.0,0.0,0.0,0.0,0.0,0.0,0.0,0.0,0.0,0.0,0.0,0.0,0.0,0.0,0.0,0.0,0.0,0.0,0.0,-2.7926,0.0,0.0,0.0,0.0,0.0,0.0,0.0,0.0,0.0,0.0,0.0,0.0,0.0,0.0,-2.5575,-2.6185,-2.7227,-2.8488,-3.0202,0.0,-3.2563,-3.4851,-3.6671,-3.7922,-3.8007,-3.8819,-3.9343,-3.8199,-3.7612,-3.6841,-3.4988,-3.2298,0.0,0.0,0.0,0.0,0.0,0.0,0.0,-3.8267,-3.8452,-3.8873,0.0,-4.007,0.0,-4.007,-4.007,-4.007,0.0,-4.007,-4.007,-4.007,-4.007,-4.007,-4.007,-4.007,-4.007,-4.007,-4.007,-4.007,-4.007,-4.007,-4.007,-4.007,-4.007,-4.007,-4.007,-4.007,-3.9833,-3.9437,-3.9437,-3.8978,-3.8302,-3.8302,-3.8092,-3.7774,-3.7454,-3.7534,-3.7774,0.0,0.0,0.0,0.0,0.0,0.0,0.0,0.0,0.0,0.0,0.0,0.0,0.0,0.0,0.0,0.0,0.0,0.0,0.0,0.0,0.0,0.0,0.0,0.0,0.0,0.0,0.0,0.0,0.0,0.0,0.0,0.0,0.0,0.0,0.0,0.0,0.0,0.0,0.0,0.0,0.0,0.0,0.0,0.0,0.0,0.0,0.0,0.0,0.0,0.0,-2.637,-2.7283,-2.8027,-2.8941,-3.0243,-3.2916,-3.3237,-3.3339,-3.6163,-3.733,-3.7618,-3.706,-3.7821,-3.8111,-3.5726,-3.5078,-3.4384,-3.2413,0.0,-2.8579,-2.8359,0.0,-2.9059,-2.9258,0.0,-3.4108,-3.6463,-3.6781,-3.7648,-3.9851,-4.007,-4.007,-4.007,-4.007,-4.007,-4.007,-4.007,-4.007,-4.007,-4.007,-4.007,-4.007,-4.007,-4.007,-4.007,-4.007,-4.007,-4.007,-4.007,-4.007,-4.007,-4.007,-4.007,-4.007,-4.007,-4.002,-3.9952,-3.9952,-3.9489,-3.8745,-3.8745,-3.8358,-3.7726,-3.6933,-3.7004,-3.7393,0.0,0.0,0.0,0.0,0.0,0.0,0.0,0.0,0.0,0.0,-1.8485,-1.8485,0.0,0.0,0.0,0.0,0.0,0.0,0.0,0.0,0.0,0.0,0.0,0.0,0.0,0.0,0.0,0.0,0.0,0.0,0.0,0.0,0.0,0.0,0.0,0.0,0.0,0.0,0.0,0.0,0.0,0.0,0.0,0.0,0.0,0.0,0.0,0.0,0.0,0.0,-2.7858,-2.9651,-3.0378,-3.1952,-3.3761,-3.4895,-3.5148,-3.5436,-3.7229,-3.7347,-3.7094,-3.7584,-3.7432,-3.6844,-3.5492,-3.423,0.0,0.0,0.0,-2.7364,-2.5911,-2.6888,0.0,-3.1424,0.0,0.0,0.0,0.0,-3.9581,0.0,0.0,0.0,0.0,0.0,0.0,0.0,0.0,-4.007,-4.007,-4.007,-4.007,-4.007,-4.007,-4.007,-4.007,-4.007,-4.007,-4.007,-4.007,-4.007,-4.007,-4.007,-4.007,-4.007,-4.007,-3.9714,-3.9086,-3.9086,-3.8652,-3.7978,-3.7978,-3.7921,-3.761,-3.6315,-3.5892,-3.5789,0.0,0.0,0.0,0.0,0.0,0.0,0.0,0.0,-1.8485,-1.8485,-1.8485,-1.8485,-1.8485,-1.8485,0.0,0.0,0.0,0.0,0.0,0.0,0.0,0.0,0.0,0.0,0.0,0.0,0.0,0.0,0.0,0.0,0.0,0.0,0.0,0.0,0.0,0.0,0.0,0.0,0.0,0.0,0.0,0.0,0.0,0.0,0.0,0.0,0.0,0.0,0.0,0.0,-2.7317,-2.9854,-3.1749,-3.3609,-3.5233,-3.5994,-3.6214,-3.6383,-3.7127,-3.7347,-3.7263,-3.6823,-3.6451,-3.5537,-3.3178,0.0,0.0,0.0,0.0,-2.5998,-2.5171,0.0,0.0,0.0,0.0,0.0,0.0,0.0,0.0,0.0,0.0,0.0,0.0,0.0,0.0,0.0,0.0,-4.007,-4.007,-4.007,-4.007,-4.007,-4.007,-4.007,-4.007,-4.007,-4.007,-4.007,-4.007,-4.007,-4.007,-4.007,-4.007,-4.007,-4.007,-3.9901,-3.9542,-3.9542,-3.9102,-3.8358,-3.8358,-3.8149,-3.7636,-3.6194,-3.5865,-3.5964,0.0,0.0,0.0,0.0,0.0,0.0,0.0,-1.8485,-1.8485,-1.8485,-1.8485,-1.8485,-1.8485,-1.8485,-1.8485,0.0,0.0,0.0,0.0,0.0,0.0,0.0,0.0,0.0,0.0,0.0,0.0,0.0,0.0,0.0,0.0,0.0,0.0,0.0,0.0,0.0,0.0,0.0,0.0,0.0,0.0,0.0,0.0,0.0,0.0,0.0,0.0,0.0,0.0,0.0,-2.6167,-2.8721,-3.1376,-3.3457,-3.5064,-3.5825,-3.6163,-3.6366,-3.6688,-3.7094,-3.7127,-3.5926,-3.5385,-3.4263,-3.1021,-2.9609,0.0,0.0,-2.5005,-2.5005,-2.5005,0.0,0.0,0.0,0.0,0.0,0.0,0.0,0.0,0.0,0.0,0.0,0.0,0.0,0.0,0.0,0.0,-4.007,-4.007,-4.007,-4.007,-4.007,-4.007,-4.007,-4.007,-4.007,-4.007,-4.007,-4.007,-4.007,-4.007,-4.007,-4.007,-4.007,-4.007,-4.007,-4.007,-4.007,-3.9731,-3.9139,-3.9139,-3.8816,-3.8084,-3.6551,-3.6265,-3.6483,0.0,0.0,0.0,0.0,0.0,0.0,0.0,-1.8485,-1.8485,-1.8485,-1.8485,-1.8485,-1.8485,-1.8485,-1.8485,0.0,0.0,0.0,0.0,0.0,0.0,0.0,0.0,0.0,0.0,0.0,0.0,0.0,0.0,0.0,0.0,0.0,0.0,0.0,0.0,0.0,0.0,0.0,0.0,0.0,0.0,0.0,0.0,0.0,0.0,0.0,0.0,0.0,0.0,0.0,0.0,-2.6201,-2.7824,-3.0294,-3.273,-3.3491,0.0,0.0,-3.64,-3.6315,-3.5791,-3.5656,-3.4607,-3.3001,-3.079,0.0,0.0,-2.5425,-2.5005,-2.5005,-2.5005,-2.5116,0.0,0.0,0.0,0.0,0.0,0.0,0.0,0.0,0.0,0.0,0.0,0.0,0.0,0.0,-4.007,-4.007,-4.007,-4.007,-4.007,-4.007,-4.007,-4.007,-4.007,-4.007,-4.007,-4.007,-4.007,-4.007,-4.007,-4.007,-4.007,-4.007,-4.007,-4.007,-4.007,-4.007,-4.007,-4.002,-4.002,-3.9952,-3.9614,-3.75,-3.6732,-3.6465,0.0,0.0,0.0,0.0,0.0,0.0,0.0,-1.8485,-1.8485,-1.8485,-1.8485,-1.8485,-1.8485,-1.8485,-1.8485,0.0,0.0,0.0,0.0,0.0,0.0,0.0,0.0,0.0,0.0,0.0,0.0,0.0,-1.8818,0.0,0.0,0.0,0.0,0.0,0.0,0.0,0.0,0.0,0.0,0.0,0.0,0.0,0.0,0.0,0.0,0.0,0.0,0.0,0.0,0.0,0.0,0.0,-2.4458,-2.6234,0.0,0.0,-3.2916,-3.4066,-3.5115,-3.5842,-3.6214,-3.574,-3.4037,-3.2127,-3.0615,0.0,0.0,-2.529,-2.5005,-2.5005,-2.5005,-2.5005,-2.5314,0.0,0.0,0.0,0.0,0.0,0.0,0.0,0.0,0.0,0.0,0.0,0.0,0.0,-4.007,-4.007,-4.007,-4.007,-4.007,-4.007,-4.007,-4.007,-4.007,-4.007,-4.007,-4.007,-4.007,-4.007,-4.007,-4.007,-4.007,-4.007,-4.007,-4.007,-4.007,-4.007,-4.007,-4.007,-4.007,-4.007,-3.9901,-3.8086,-3.7434,-3.7216,0.0,0.0,0.0,0.0,0.0,-1.8485,-1.8485,-1.8485,-1.8485,-1.8485,-1.8485,-1.8485,-1.8485,-1.8485,-1.8485,-1.8485,0.0,0.0,0.0,0.0,0.0,0.0,0.0,0.0,0.0,0.0,0.0,-1.8485,-1.8731,-1.9524,0.0,0.0,-2.1697,-2.2952,0.0,0.0,0.0,0.0,0.0,0.0,0.0,0.0,0.0,0.0,0.0,0.0,0.0,0.0,0.0,0.0,0.0,0.0,0.0,0.0,0.0,0.0,-3.1089,-3.2679,-3.3863,-3.4962,-3.5707,-3.5368,-3.3379,-3.1258,0.0,0.0,0.0,-2.5227,-2.5005,-2.5005,-2.5005,-2.5005,-2.5005,0.0,0.0,-2.7162,0.0,0.0,0.0,0.0,0.0,0.0,0.0,0.0,0.0,-4.007,-4.007,-4.007,-4.007,-4.007,-4.007,-4.007,-4.007,-4.007,-4.007,-4.007,-4.007,-4.007,-4.007,-4.007,-4.007,-4.007,-4.007,-4.007,-4.007,-4.007,-4.007,-4.007,-3.9952,-3.9783,-3.9986,-3.9952,-3.9631,-3.8616,-3.8091,-3.7719,0.0,0.0,0.0,0.0,0.0,0.0,0.0,-1.8485,-1.8485,-1.8485,-1.8485,-1.8485,-1.8485,-1.8485,-1.8485,-1.8485,0.0,0.0,0.0,0.0,0.0,0.0,0.0,0.0,0.0,0.0,0.0,-1.8485,-1.9292,-2.0065,-2.0824,-2.1615,-2.2382,-2.3095,0.0,0.0,0.0,0.0,0.0,0.0,0.0,0.0,0.0,0.0,0.0,0.0,0.0,0.0,0.0,0.0,0.0,0.0,0.0,0.0,0.0,0.0,-2.8366,-3.0615,-3.2814,-3.3423,-3.3609,-3.432,-3.2606,-3.0434,0.0,0.0,0.0,-2.5227,-2.5005,-2.5005,-2.5005,-2.5005,-2.5005,-2.5005,-2.555,0.0,0.0,0.0,0.0,0.0,0.0,0.0,0.0,0.0,0.0,-4.007,-4.007,0.0,-4.007,-4.007,-4.007,-4.007,-4.007,-4.007,-4.007,-4.007,-4.007,-4.007,-4.007,-4.007,-4.007,-4.007,-4.007,-4.007,-4.007,-4.007,-4.007,-4.007,-3.9648,-3.9073,-3.9783,-3.9631,-3.9005,-3.8988,-3.8531,-3.7787,0.0,0.0,0.0,0.0,0.0,0.0,0.0,-1.8485,-1.8485,-1.8485,-1.8485,-1.8485,-1.8485,-1.8485,-1.8485,-1.8485,0.0,0.0,0.0,0.0,0.0,0.0,0.0,0.0,0.0,0.0,-1.8485,-1.8485,-1.8748,-1.9275,-2.0047,-2.0171,-2.0929,-2.2202,-2.2178,0.0,0.0,0.0,0.0,0.0,0.0,0.0,0.0,0.0,0.0,0.0,0.0,0.0,0.0,0.0,0.0,0.0,0.0,0.0,0.0,0.0,0.0,0.0,-2.9643,-3.0811,-3.1591,-3.1615,-3.0079,-2.8494,-2.82,0.0,0.0,-2.5053,-2.5005,-2.5005,-2.5005,-2.5005,-2.5005,-2.5005,-2.555,0.0,0.0,0.0,0.0,0.0,0.0,0.0,0.0,0.0,0.0,-4.007,-4.007,-4.007,-4.007,-4.007,-4.007,-4.007,-4.007,-4.007,-4.007,-4.007,-4.007,-4.007,-4.007,-4.007,-4.007,-4.007,-4.007,-4.007,-4.007,-4.007,-4.007,-4.007,-3.9935,-3.9749,-3.9986,-3.9935,-3.9681,-3.9174,-3.8531,-3.7787,0.0,0.0,0.0,0.0,0.0,0.0,0.0,-1.8485,-1.8485,-1.8485,-1.8485,-1.8485,-1.8485,-1.8485,-1.8485,-1.8485,0.0,0.0,0.0,0.0,0.0,0.0,0.0,0.0,0.0,-1.8485,-1.8485,-1.8485,-1.8485,-1.9047,-2.01,-1.9699,-2.0511,-2.2279,-2.1951,0.0,0.0,0.0,0.0,0.0,0.0,0.0,-2.2764,0.0,0.0,0.0,0.0,0.0,0.0,0.0,0.0,0.0,0.0,0.0,0.0,0.0,-2.456,0.0,0.0,-2.8965,-2.9852,-2.9889,-2.8543,0.0,0.0,0.0,0.0,0.0,0.0,-2.5005,-2.5005,-2.5005,-2.51,-2.5313,-2.5961,0.0,0.0,0.0,0.0,0.0,0.0,0.0,0.0,0.0,-4.007,-4.007,-4.007,-4.007,-4.007,-4.007,-4.007,-4.007,-4.007,-4.007,-4.007,-4.007,-4.007,-4.007,-4.007,-4.007,-4.007,-4.007,-4.007,-4.007,-4.007,-4.007,0.0,-4.007,-3.9918,-3.9698,-3.9969,-3.9918,-3.9648,-3.9462,-3.8937,-3.821,0.0,0.0,0.0,0.0,0.0,0.0,0.0,0.0,0.0,-1.8485,-1.8485,-1.8485,-1.8485,-1.8485,-1.8485,-1.8485,0.0,0.0,0.0,0.0,0.0,0.0,0.0,0.0,0.0,-1.8485,-1.8485,-1.8485,-1.8485,-1.9278,-2.0719,-1.996,-2.0802,-2.2884,-2.2087,0.0,0.0,0.0,0.0,0.0,0.0,0.0,0.0,0.0,0.0,0.0,0.0,0.0,0.0,0.0,0.0,0.0,0.0,0.0,0.0,0.0,0.0,0.0,0.0,0.0,0.0,0.0,0.0,0.0,0.0,0.0,0.0,0.0,0.0,0.0,0.0,-2.5084,-2.5306,-2.5977,-2.6688,0.0,0.0,0.0,0.0,0.0,0.0,0.0,0.0,-3.9009,-4.007,-4.007,-4.007,-4.007,-4.007,-4.007,-4.007,-4.007,-4.007,-4.007,-4.007,-4.007,-4.007,-4.007,-4.007,-4.007,-4.007,-4.007,-4.007,-4.007,-4.007,-4.007,-4.007,-4.007,-3.9681,-3.914,-3.9817,-3.9665,-3.9157,-3.9834,-3.9614,-3.8886,0.0,0.0,0.0,0.0,0.0,0.0,0.0,0.0,0.0,0.0,-1.8485,-1.8485,-1.8485,-1.8485,-1.8485,0.0,0.0,0.0,0.0,0.0,0.0,0.0,0.0,0.0,0.0,-1.8485,-1.8485,-1.8485,-1.8485,-1.8994,-1.9942,-1.9134,-1.9696,-2.1329,-2.1131,0.0,0.0,0.0,0.0,0.0,0.0,0.0,0.0,0.0,0.0,0.0,-2.2659,-2.2515,0.0,0.0,0.0,0.0,0.0,0.0,0.0,0.0,-2.39,-2.4618,-2.5174,0.0,-2.6421,-2.6085,0.0,0.0,0.0,0.0,0.0,0.0,0.0,0.0,0.0,0.0,0.0,0.0,0.0,0.0,0.0,0.0,0.0,0.0,0.0,0.0,0.0,-3.9009,-4.007,-4.007,-4.007,-4.007,-4.007,-4.007,-4.007,-4.007,-4.007,-4.007,-4.007,-4.007,-4.007,-4.007,-4.007,-4.007,-4.007,-4.007,-4.007,-4.007,-4.007,-4.007,-4.007,-4.007,-3.9969,-3.9834,-4.0003,-3.9969,-3.9834,-4.002,-3.9614,-3.8886,0.0,0.0,0.0,0.0,0.0,0.0,0.0,0.0,0.0,0.0,0.0,0.0,0.0,0.0,0.0,0.0,0.0,0.0,0.0,0.0,0.0,0.0,0.0,0.0,-1.8408,-1.8465,-1.8465,-1.8408,-1.8465,-1.8906,-1.9679,-1.924,-1.9682,-2.0824,-2.1193,0.0,0.0,0.0,0.0,0.0,-2.2816,0.0,0.0,0.0,0.0,0.0,-2.2712,-2.2542,0.0,-2.2699,-2.3071,-2.3325,0.0,0.0,0.0,0.0,-2.4363,-2.4862,-2.5168,-2.557,-2.577,-2.5301,-2.5084,-2.5045,0.0,0.0,0.0,0.0,0.0,0.0,0.0,0.0,0.0,0.0,0.0,0.0,0.0,0.0,0.0,0.0,0.0,0.0,0.0,-3.9497,-4.007,-4.007,-4.007,-4.007,-4.007,-4.007,-4.007,-4.007,-4.007,-4.007,-4.007,-4.007,-4.007,-4.007,-4.007,-4.007,-4.007,-4.007,-4.007,-4.007,-4.007,-4.007,-4.007,-4.007,-4.007,-4.007,-4.007,-4.007,-4.007,-4.007,-3.9614,-3.8937,0.0,0.0,0.0,0.0,0.0,0.0,0.0,0.0,0.0,0.0,0.0,0.0,0.0,0.0,0.0,0.0,0.0,0.0,0.0,0.0,0.0,0.0,0.0,-1.8445,-1.833,-1.8408,-1.8408,-1.829,-1.8408,-1.8939,-1.9851,-1.9749,-2.0153,-2.1018,-2.158,-2.2294,0.0,0.0,0.0,0.0,-2.2738,0.0,0.0,0.0,0.0,0.0,0.0,0.0,0.0,-2.3021,-2.3308,-2.3393,-2.3334,0.0,0.0,0.0,0.0,0.0,-2.5721,-2.5926,-2.5938,-2.5448,-2.5162,-2.5045,0.0,0.0,0.0,0.0,0.0,0.0,0.0,0.0,0.0,0.0,0.0,0.0,0.0,0.0,0.0,0.0,0.0,0.0,-3.9547,-3.9952,-4.007,-4.007,-4.007,-4.007,-4.007,-4.007,-4.007,-4.007,-4.007,-4.007,-4.007,-4.007,-4.007,-4.007,-4.007,-4.007,-4.007,-4.007,-4.007,-4.007,-4.007,-4.007,-4.007,-4.007,-4.007,-4.007,-4.007,-4.007,-4.007,-4.007,-3.9681,-3.9123,0.0,0.0,0.0,0.0,0.0,0.0,0.0,0.0,0.0,0.0,0.0,0.0,0.0,0.0,0.0,0.0,0.0,0.0,0.0,0.0,0.0,0.0,-1.8485,-1.8485,-1.8465,-1.8388,-1.831,-1.829,-1.831,-1.9042,-2.0453,-1.9934,-2.0451,-2.1785,-2.1246,-2.1721,-2.2944,-2.2893,-2.2764,-2.2569,-2.2659,0.0,0.0,0.0,0.0,0.0,0.0,0.0,0.0,-2.2446,-2.2885,-2.3363,-2.3059,0.0,0.0,0.0,0.0,0.0,-2.5427,-2.6119,-2.6559,-2.5345,-2.5045,-2.5005,0.0,0.0,0.0,0.0,0.0,0.0,0.0,0.0,0.0,0.0,0.0,0.0,0.0,0.0,0.0,0.0,0.0,-3.9194,-3.7936,-3.9194,-4.007,-4.007,-4.007,-4.007,-4.007,-4.007,-4.007,-4.007,-4.007,-4.007,-4.007,-4.007,-4.007,-4.007,-4.007,-4.007,-4.007,-4.007,-4.007,-4.007,-4.007,-4.007,-4.007,-4.007,-4.007,-4.007,-4.007,-4.007,-4.007,-4.007,-4.0003,-3.9732,0.0,0.0,0.0,0.0,0.0,0.0,0.0,0.0,0.0,0.0,0.0,0.0,0.0,0.0,0.0,0.0,0.0,0.0,0.0,0.0,0.0,-1.8485,-1.8428,-1.8385,-1.8339,-1.8307,-1.8287,-1.826,-1.8722,-1.9359,-2.0101,-1.9833,-2.0688,-2.2443,-2.1237,-2.1481,-2.279,-2.279,-2.2712,-2.2605,0.0,0.0,0.0,0.0,0.0,0.0,0.0,0.0,0.0,0.0,-2.4323,-2.4532,-2.4229,0.0,0.0,0.0,0.0,0.0,-2.498,-2.5368,-2.5818,-2.5397,-2.5972,-2.6717,0.0,0.0,0.0,0.0,0.0,0.0,0.0,0.0,0.0,0.0,0.0,0.0,0.0,0.0,0.0,0.0,0.0,-3.869,-3.8857,-3.9631,-4.007,-4.007,-4.007,-4.007,-4.007,-4.007,-4.007,-4.007,-4.007,-4.007,-4.007,-4.007,-4.007,-4.007,-4.007,-4.007,-4.007,-4.007,-4.007,-4.007,-4.007,-4.007,-4.007,-4.007,-4.007,-4.007,-4.007,-4.007,-4.002,-3.9631,-3.9732,-3.9868,0.0,0.0,0.0,0.0,0.0,0.0,0.0,0.0,0.0,0.0,0.0,0.0,0.0,0.0,0.0,0.0,0.0,0.0,0.0,0.0,-1.8445,-1.8443,-1.8345,-1.8263,-1.8236,-1.8243,-1.8287,-1.8426,-1.9109,-1.9621,-1.996,-1.9938,-2.0905,-2.2588,-2.1166,-2.1354,-2.2659,-2.2685,-2.2685,-2.2659,0.0,0.0,0.0,0.0,0.0,0.0,0.0,0.0,0.0,0.0,0.0,0.0,0.0,0.0,0.0,-2.4985,-2.5124,-2.5432,-2.4514,-2.4697,-2.521,0.0,0.0,0.0,0.0,0.0,0.0,0.0,0.0,0.0,0.0,0.0,0.0,0.0,0.0,0.0,0.0,0.0,0.0,-3.7869,-3.8053,-3.8589,-3.9969,-4.007,-4.007,-4.007,-4.007,-4.007,-4.007,-4.007,-4.007,-4.007,-4.007,-4.007,-4.007,-4.007,-4.007,-4.007,-4.007,-4.007,-4.007,-4.007,-4.007,-4.007,-4.007,-4.007,-4.007,-4.007,-4.007,-4.007,-4.007,-4.007,-4.0003,-3.9462,-3.9597,-3.9884,0.0,0.0,0.0,0.0,0.0,0.0,0.0,0.0,0.0,0.0,0.0,0.0,0.0,0.0,0.0,0.0,0.0,0.0,0.0,0.0,-1.8304,-1.8215,-1.8194,-1.8239,-1.829,-1.8117,-1.8352,-1.903,-1.9223,-1.9799,-2.0736,-2.0585,-2.1005,-2.184,-2.0846,-2.1206,-2.2525,-2.2632,-2.2632,-2.2542,-2.279,0.0,0.0,0.0,0.0,0.0,0.0,0.0,0.0,0.0,0.0,0.0,0.0,0.0,-2.5496,-2.4658,-2.4639,-2.4746,-2.4111,-2.4697,-2.5631,-2.626,0.0,0.0,0.0,0.0,0.0,0.0,0.0,0.0,0.0,0.0,0.0,0.0,0.0,0.0,0.0,0.0,-3.9733,-3.9901,-3.9918,-3.9969,-4.007,-4.007,-4.007,-4.007,-4.007,-4.007,-4.007,-4.007,-4.007,-4.007,-4.007,-4.007,-4.007,-4.007,-4.007,-4.007,-4.007,-4.007,-4.007,-4.007,-4.007,-4.007,-4.007,-4.007,-4.007,-4.007,-4.007,-4.007,-4.007,-4.007,-4.007,-4.002,-4.0037,-3.9969,0.0,0.0,0.0,0.0,0.0,0.0,0.0,0.0,0.0,0.0,0.0,0.0,0.0,0.0,0.0,0.0,0.0,0.0,0.0,0.0,-1.8266,-1.8211,-1.8005,-1.7966,-1.8117,-1.8048,-1.8364,-1.9098,-2.014,-2.088,-2.1294,-2.1205,-2.1305,-2.1531,-2.1139,-2.1498,-2.2377,-2.2515,-2.2542,-2.2515,-2.2712,-2.2738,0.0,0.0,0.0,0.0,0.0,0.0,0.0,0.0,-2.5862,-2.588,0.0,-2.5749,-2.5429,-2.4642,-2.4554,-2.4433,-2.2976,-2.4329,-2.5954,0.0,0.0,0.0,0.0,0.0,0.0,0.0,0.0,0.0,0.0,0.0,0.0,0.0,0.0,0.0,0.0,-4.007,-4.007,-4.007,-4.007,-4.007,-4.007,-4.007,-4.007,-4.007,-4.007,-4.007,-4.007,-4.007,-4.007,-4.007,-4.007,-4.007,-4.007,-4.007,-4.007,-4.007,-4.007,-4.007,-4.007,-4.007,-4.007,-4.007,-4.007,-4.007,-4.007,-4.007,-4.007,-4.007,-4.007,-4.007,-4.007,-4.007,-4.007,-4.0037,0.0,0.0,0.0,0.0,0.0,0.0,0.0,0.0,0.0,0.0,0.0,0.0,0.0,0.0,0.0,0.0,0.0,0.0,0.0,-1.8146,-1.8061,-1.7966,-1.7816,-1.7794,-1.7939,-1.7939,-1.8297,-1.9052,-2.0584,-2.1293,-2.1236,-2.1293,-2.1362,-2.137,-2.1301,-2.1664,-2.231,-2.2432,-2.2515,-2.2532,-2.289,-2.3003,0.0,0.0,0.0,0.0,0.0,0.0,0.0,0.0,-2.6624,-2.6522,0.0,0.0,-2.5163,-2.4174,-2.4267,-2.4452,-2.3007,-2.4356,-2.6089,0.0,0.0,0.0,0.0,0.0,0.0,0.0,0.0,0.0,0.0,0.0,0.0,0.0,0.0,0.0,-4.007,-4.007,-4.007,-4.007,-4.007,-4.007,-4.007,-4.007,-4.007,-4.007,-4.007,-4.007,-4.007,-4.007,-4.007,-4.007,-4.007,-4.007,-4.007,-4.007,-4.007,-4.007,-4.007,-4.007,-4.007,-4.007,-4.007,-4.007,-4.007,-4.007,-4.007,-4.007,-4.007,-4.007,-4.007,-4.007,-4.007,-4.007,-4.007,-4.007,0.0,0.0,0.0,0.0,0.0,0.0,0.0,0.0,0.0,0.0,0.0,0.0,0.0,0.0,0.0,0.0,0.0,0.0,-1.7905,-1.7755,-1.7641,-1.7509,-1.7681,-1.7789,-1.7811,-1.7811,-1.8166,-1.8894,-2.0305,-2.0789,-2.0412,-2.0797,-2.11,-2.1284,-2.123,-2.1617,-2.231,-2.2432,-2.2515,-2.2566,-2.344,-2.3721,-2.3665,0.0,0.0,0.0,0.0,0.0,0.0,0.0,-2.6521,-2.6232,0.0,0.0,0.0,-2.3129,-2.377,-2.4802,-2.4502,-2.4943,0.0,0.0,0.0,0.0,0.0,0.0,0.0,0.0,0.0,0.0,0.0,0.0,0.0,0.0,-3.8925,-4.007,-4.007,-4.007,-4.007,-4.007,-4.007,-4.007,-4.007,-4.007,-4.007,-4.007,-4.007,-4.007,-4.007,-4.007,-4.007,-4.007,-4.007,-4.007,-4.007,-4.007,-4.007,-4.007,-4.007,-4.007,-4.007,-4.007,-4.007,-4.007,-4.007,-4.007,-4.007,-4.007,-4.007,-4.007,-4.007,-4.007,-4.007,-4.007,-4.007,-4.007,0.0,0.0,0.0,0.0,0.0,0.0,0.0,0.0,0.0,0.0,0.0,0.0,0.0,0.0,0.0,0.0,0.0,0.0,0.0,-1.7595,-1.7566,-1.7704,-1.7519,-1.7502,-1.7789,-1.7664,-1.7964,-1.87,-1.9774,-2.0195,-1.9993,-2.0795,-2.116,-2.1247,-2.1762,-2.2107,-2.231,-2.2338,-2.2366,-2.2434,-2.3204,-2.3493,-2.3587,0.0,0.0,0.0,0.0,0.0,0.0,0.0,0.0,0.0,0.0,0.0,-2.4943,-2.4362,-2.4335,-2.4297,-2.3562,0.0,0.0,0.0,0.0,0.0,0.0,0.0,0.0,0.0,0.0,0.0,0.0,0.0,0.0,-3.7485,-3.8925,-4.007,-4.007,-4.007,-4.007,-4.007,-4.007,-4.007,-4.007,-4.007,-4.007,-4.007,-4.007,-4.007,-4.007,-4.007,-4.007,-4.007,-4.007,-4.007,-4.007,-4.007,-4.007,-4.007,-4.007,-4.007,-4.007,-4.007,-4.007,-4.007,-4.007,-4.007,-4.007,-4.007,-4.007,-4.007,-4.007,-4.007,-4.007,-4.007,-4.007,-4.007,0.0,0.0,0.0,0.0,0.0,0.0,0.0,0.0,0.0,0.0,0.0,0.0,0.0,0.0,0.0,0.0,0.0,0.0,0.0,0.0,-1.7272,-1.7432,-1.7361,-1.7432,-1.7681,-1.7572,-1.7631,-1.793,-1.8876,-1.9486,-1.982,-2.0663,-2.1248,-2.1651,0.0,-2.231,-2.231,-2.231,-2.2479,-2.2801,-2.3409,-2.3927,-2.4408,0.0,0.0,0.0,0.0,0.0,0.0,0.0,0.0,0.0,0.0,0.0,0.0,-2.4837,-2.4857,-2.4972,-2.5118,0.0,0.0,0.0,0.0,0.0,0.0,0.0,0.0,0.0,0.0,0.0,0.0,0.0,0.0,-3.8488,-3.9396,-4.007,-4.007,-4.007,-4.007,-4.007,-4.007,-4.007,-4.007,-4.007,-4.007,-4.007,-4.007,-4.007,-4.007,-3.98,-3.9783,-4.007,-3.98,-3.9783,-4.007,-4.007,-4.007,-4.007,-4.007,-4.007,-4.007,-4.007,-4.007,-4.007,-4.007,-4.007,-4.007,-4.007,-4.007,-4.007,-4.007,-4.007,-4.007,-4.007,-4.007,-4.007,0.0,0.0,0.0,0.0,0.0,0.0,0.0,0.0,0.0,0.0,0.0,0.0,0.0,0.0,0.0,0.0,0.0,0.0,0.0,0.0,-1.6901,-1.6926,-1.7272,-1.7462,-1.7462,-1.7505,-1.7346,-1.6972,-1.7867,-1.8795,-1.9751,-2.0456,-2.1317,-2.2265,0.0,-2.231,-2.231,-2.231,-2.2704,-2.3401,-2.3909,-2.4709,-2.5628,-2.615,0.0,0.0,0.0,0.0,0.0,0.0,0.0,0.0,0.0,0.0,-2.456,-2.4795,-2.5373,-2.6299,0.0,0.0,0.0,0.0,0.0,0.0,0.0,0.0,0.0,0.0,0.0,0.0,0.0,0.0,-3.8362,-3.9749,-3.9986,-4.0003,-4.007,-4.007,-4.007,-4.007,-4.007,-4.007,-4.007,-4.007,-4.007,-4.007,-4.007,-4.007,-4.007,-3.9394,-3.9292,-3.9952,-3.9343,-3.9309,-3.9969,-4.0054,-4.007,-4.007,-4.007,-4.007,-4.007,-4.007,-4.007,-4.007,-4.007,-4.007,-4.007,-4.007,-4.007,-4.007,-4.007,-4.007,-4.007,-4.007,-4.007,-4.007,0.0,0.0,0.0,0.0,0.0,0.0,0.0,0.0,0.0,0.0,0.0,0.0,0.0,0.0,0.0,0.0,0.0,0.0,0.0,0.0,-1.6815,-1.7117,-1.7216,-1.7248,-1.7248,-1.7687,-1.777,-1.7531,-1.8065,-1.862,0.0,0.0,0.0,-2.2003,0.0,-2.231,-2.231,-2.231,-2.2555,-2.3079,-2.4017,-2.4774,-2.5397,-2.6286,-2.6657,0.0,0.0,0.0,0.0,0.0,0.0,0.0,-2.5917,-2.5651,-2.5542,-2.5341,-2.5788,-2.6442,0.0,0.0,0.0,0.0,0.0,0.0,0.0,0.0,0.0,0.0,0.0,0.0,0.0,-3.7618,-3.8193,-3.9089,-3.9225,-3.9428,-4.0003,-4.007,-4.007,-4.007,-4.007,-4.007,-4.007,-4.007,-4.007,-4.007,-4.007,-4.007,-4.007,-3.9394,-3.9056,-3.9225,-3.9073,-3.9073,-3.9225,-3.9783,-4.007,-4.007,-4.007,-4.007,-4.007,-4.007,-4.007,-4.007,-4.007,-4.007,-4.007,-4.007,-4.007,-4.007,-4.007,-4.007,-4.007,-4.007,-4.007,-4.007,0.0,0.0,0.0,0.0,0.0,0.0,0.0,0.0,0.0,0.0,0.0,0.0,0.0,0.0,0.0,0.0,0.0,0.0,0.0,0.0,0.0,-1.7052,-1.7393,-1.7425,-1.7068,-1.799,-1.8227,-1.7685,-1.8591,0.0,0.0,0.0,0.0,-2.2106,0.0,-2.231,-2.2282,-2.2163,-2.271,-2.3703,-2.4011,-2.4746,-2.5779,-2.6145,-2.64,-2.6504,-2.6504,0.0,0.0,0.0,0.0,0.0,0.0,0.0,-2.5686,-2.5857,-2.5931,-2.6251,0.0,0.0,0.0,0.0,0.0,0.0,0.0,0.0,0.0,0.0,0.0,0.0,0.0,-3.7094,-3.7601,-3.8345,-3.8464,-3.8717,-3.9462,-3.9546,-3.9681,-4.0037,-4.007,-4.007,-4.007,-4.007,-4.007,-4.007,-4.007,-4.007,-4.007,-3.9056,-3.8802,-3.9495,-3.8836,-3.8802,-3.9512,-3.9884,-4.007,-4.007,-4.007,-4.007,-4.007,-4.007,-4.007,-4.007,-4.007,-4.007,-4.007,-4.007,-4.007,-4.007,-4.007,-4.007,-4.007,-4.007,-4.007,-4.0121,0.0,0.0,0.0,0.0,0.0,0.0,0.0,0.0,0.0,0.0,0.0,0.0,0.0,0.0,0.0,0.0,0.0,0.0,0.0,0.0,0.0,0.0,-1.7636,-1.7733,-1.7287,-1.8491,-1.8776,-1.8048,0.0,0.0,0.0,0.0,0.0,-2.2237,0.0,-2.2237,-2.2209,-2.1986,-2.2869,-2.432,-2.3869,-2.4709,-2.6189,-2.599,-2.6063,-2.6295,-2.6295,-2.633,-2.6365,-2.633,0.0,0.0,0.0,0.0,-2.549,-2.6069,-2.5947,-2.6172,0.0,0.0,0.0,0.0,0.0,0.0,0.0,0.0,0.0,0.0,0.0,0.0,-3.6468,-3.6586,-3.684,-3.7584,-3.7719,-3.7973,-3.87,-3.892,-3.9225,-3.9817,-4.0003,-4.007,-4.007,-3.9969,-3.9884,-3.9884,-3.9766,-3.9698,-3.9698,-3.843,-3.8261,-3.9462,-3.8345,-3.8294,-3.9495,-3.9766,-3.9884,-3.9884,-3.9884,-3.9884,-3.9884,-3.9884,-3.9952,-4.007,-4.007,-4.007,-4.007,-4.007,-4.007,-4.007,-4.007,-4.007,-4.007,-4.007,-4.0171,-4.0286,0.0,0.0,0.0,0.0,0.0,0.0,0.0,0.0,0.0,0.0,0.0,0.0,0.0,0.0,0.0,0.0,0.0,0.0,-1.6596,0.0,0.0,-1.7808,-1.7789,-1.8047,-1.8712,-1.9367,-1.9656,0.0,0.0,0.0,0.0,0.0,0.0,-2.1957,0.0,0.0,-2.1957,-2.1928,-2.2656,-2.3802,-2.3736,-2.4622,-2.5954,-2.5917,-2.6063,-2.6295,-2.6295,-2.6469,-2.659,-2.64,-2.6295,0.0,0.0,0.0,-2.5355,-2.5234,-2.5954,0.0,0.0,0.0,0.0,0.0,0.0,0.0,0.0,0.0,0.0,0.0,0.0,-3.5656,-3.5757,-3.5774,-3.6028,-3.6806,-3.6924,-3.7195,-3.7939,-3.8599,-3.9039,-3.9123,-3.9698,-4.007,-4.007,-3.9512,-3.914,-3.914,-3.8548,-3.8193,-3.8193,-3.7398,-3.7026,-3.7212,-3.7026,-3.7026,-3.7212,-3.8497,-3.914,-3.914,-3.914,-3.914,-3.914,-3.914,-3.9478,-4.007,-4.007,-4.007,-4.007,-4.007,-4.007,-4.007,-4.007,-4.007,-4.007,-4.007,-4.0417,-4.0827,0.0,0.0,0.0,0.0,0.0,0.0,0.0,0.0,0.0,0.0,0.0,0.0,0.0,0.0,0.0,-1.6596,-1.6596,-1.677,-1.718,-1.7212,-1.7567,-1.8378,-1.8691,-1.8865,-1.8826,-1.983,-2.0178,0.0,0.0,0.0,0.0,-2.1103,-2.1402,0.0,0.0,0.0,0.0,0.0,-2.2394,-2.3145,-2.3258,-2.4099,-2.5294,-2.5452,-2.5487,-2.5539,-2.611,-2.6012,-2.5678,-2.5986,-2.5937,-2.5717,-2.5301,0.0,0.0,0.0,0.0,0.0,0.0,0.0,0.0,0.0,0.0,0.0,0.0,0.0,0.0,0.0,0.0,-3.5622,-3.5622,-3.5622,-3.574,-3.6079,-3.6129,-3.64,-3.7161,-3.755,-3.8058,-3.8886,-3.9276,-3.9631,-4.0037,-3.9411,-3.8988,-3.8988,-3.8328,-3.7905,-3.7905,-3.7195,-3.6975,-3.7398,-3.7009,-3.6992,-3.7398,-3.8058,-3.8379,-3.8379,-3.8379,-3.8379,-3.8379,-3.8379,-3.9005,-4.007,-4.007,-4.007,-4.007,-4.007,-4.007,-4.007,-4.007,-4.0286,-4.0528,-4.0528,-4.092,-4.1446,0.0,0.0,0.0,0.0,0.0,0.0,0.0,0.0,0.0,0.0,0.0,0.0,0.0,0.0,0.0,0.0,-1.6596,-1.6912,-1.7638,-1.7685,-1.8064,-1.8945,-1.9514,-1.9625,-1.9246,-2.0257,0.0,0.0,0.0,0.0,-2.1183,-2.0941,-2.1358,0.0,-2.191,0.0,0.0,0.0,0.0,0.0,0.0,-2.377,-2.4853,-2.5241,-2.5423,-2.5518,-2.5806,-2.5658,-2.5289,-2.5488,-2.5382,-2.518,-2.4814,-2.4863,0.0,0.0,0.0,0.0,0.0,0.0,0.0,0.0,0.0,0.0,0.0,0.0,0.0,0.0,-3.5622,-3.5622,-3.5622,-3.5622,-3.5622,-3.5622,-3.5622,-3.5825,-3.64,-3.6654,-3.7195,-3.8294,-3.8599,-3.8937,-3.9478,-3.8853,-3.843,-3.843,-3.7736,-3.733,-3.733,-3.6789,-3.6738,-3.7313,-3.6772,-3.6755,-3.733,-3.7516,-3.7618,-3.7618,-3.7618,-3.7618,-3.7618,-3.7618,-3.8311,-3.9529,-3.9529,-3.9631,-3.9833,-3.9761,-3.9827,-4.0063,-4.0192,-4.0595,-4.1133,-4.1133,-4.149,-4.208,0.0,0.0,0.0,0.0,0.0,0.0,0.0,0.0,0.0,0.0,0.0,0.0,-1.6596,-1.6596,-1.6596,-1.6596,-1.6596,-1.6912,-1.7638,-1.7685,-1.83,-1.9688,-1.9783,0.0,-2.0668,-2.0747,0.0,0.0,0.0,0.0,-2.1183,-2.0941,-2.1423,-2.2555,-2.1648,-2.1729,-2.2523,0.0,0.0,0.0,0.0,0.0,0.0,0.0,-2.6442,-2.7075,-2.5433,-2.5611,-2.6387,-2.4955,-2.4567,-2.4658,-2.4105,-2.4428,-2.4879,0.0,0.0,0.0,0.0,0.0,0.0,0.0,0.0,0.0,0.0,0.0,0.0,0.0,-3.5622,-3.5622,-3.5622,-3.5622,-3.5622,-3.5622,-3.5622,-3.5639,-3.5673,-3.6315,-3.6806,-3.6891,-3.7533,-3.7973,-3.8024,-3.7347,-3.6891,-3.6891,-3.618,-3.574,-3.574,-3.569,-3.569,-3.574,-3.569,-3.569,-3.574,-3.6468,-3.684,-3.684,-3.684,-3.684,-3.684,-3.684,-3.7263,-3.8024,-3.8024,-3.8413,-3.9037,-3.8786,-3.9116,-3.9863,-4.0393,-4.1047,-4.175,-4.175,-4.2121,-4.2655,0.0,0.0,0.0,0.0,0.0,0.0,0.0,0.0,0.0,0.0,0.0,0.0,0.0,-1.6596,-1.6596,-1.6596,-1.6596,-1.6912,-1.7638,-1.8108,-1.8787,-1.9767,-2.021,-2.0557,-2.0794,-2.0794,0.0,0.0,0.0,-2.086,-2.0925,-2.1038,-2.1311,-2.1697,-2.1359,-2.1617,-2.2297,-2.1647,0.0,0.0,0.0,0.0,0.0,0.0,0.0,0.0,0.0,0.0,0.0,-2.602,-2.5243,-2.4154,-2.3945,-2.4097,-2.4372,0.0,0.0,0.0,0.0,0.0,0.0,0.0,0.0,0.0,0.0,0.0,0.0,-3.552,-3.5622,-3.5622,-3.5622,-3.5622,-3.5622,-3.5622,-3.5622,-3.5622,-3.5622,-3.5859,-3.6214,-3.6721,-3.7009,-3.7381,-3.7855,-3.7229,-3.6772,-3.6772,-3.6062,-3.5622,-3.5622,-3.5622,-3.5622,-3.5622,-3.5622,-3.5622,-3.5622,-3.5893,-3.6028,-3.6028,-3.6028,-3.6028,-3.6028,-3.6028,-3.6468,-3.7161,-3.6654,-3.7325,-3.8751,-3.9015,-3.9263,-3.9568,-3.9735,-4.0237,-4.0784,-4.0784,-4.1141,-4.1738,0.0,0.0,0.0,0.0,0.0,0.0,0.0,0.0,0.0,0.0,0.0,0.0,0.0,0.0,-1.6596,-1.6596,-1.6596,-1.6912,-1.7638,-1.814,-1.8693,-1.9404,-2.0099,-2.0462,-2.0462,-2.0684,0.0,0.0,0.0,0.0,0.0,-2.1071,-2.1279,-2.1439,-2.1263,-2.1553,0.0,0.0,0.0,-2.2287,0.0,0.0,-2.4729,0.0,0.0,0.0,0.0,0.0,0.0,0.0,0.0,0.0,0.0,0.0,0.0,0.0,0.0,0.0,0.0,0.0,0.0,0.0,0.0,0.0,0.0,0.0,0.0,-3.5081,-3.5453,-3.5622,-3.5622,-3.5622,-3.5622,-3.5622,-3.5622,-3.5622,-3.5622,-3.5622,-3.5808,-3.6332,-3.64,-3.6586,-3.7094,-3.6688,-3.64,-3.64,-3.591,-3.5622,-3.5622,-3.5622,-3.5622,-3.5622,-3.5622,-3.5622,-3.5622,-3.5622,-3.5622,-3.5622,-3.5622,-3.5622,-3.5622,-3.5622,-3.591,-3.6412,-3.619,-3.6956,-3.8252,-3.8538,-3.8894,-3.932,-3.9491,-3.9968,-4.0508,-4.0508,-4.0935,-4.1589,0.0,0.0,0.0,0.0,0.0,0.0,0.0,0.0,0.0,-1.6596,0.0,0.0,0.0,0.0,0.0,-1.6596,-1.6596,-1.6896,-1.7606,-1.7685,-1.7985,-1.8677,-1.942,-1.9815,-1.983,-2.0462,-2.0794,0.0,0.0,0.0,0.0,0.0,-2.1422,0.0,-2.1391,-2.1553,-2.2115,0.0,-2.16,-2.2952,0.0,-2.4074,-2.4608,0.0,0.0,0.0,-2.6266,-2.6611,0.0,-2.7151,0.0,0.0,0.0,0.0,0.0,0.0,0.0,0.0,0.0,0.0,0.0,0.0,0.0,0.0,0.0,0.0,0.0,-3.4303,-3.5064,-3.5588,-3.5622,-3.5622,-3.5622,-3.5622,-3.5622,-3.5622,-3.5622,-3.5622,-3.5622,-3.5622,-3.5622,-3.5622,-3.5622,-3.5622,-3.5622,-3.5622,-3.5622,-3.5622,-3.5622,-3.5622,-3.5622,-3.5622,-3.5622,-3.5622,-3.5622,-3.5622,-3.5622,-3.5622,-3.5622,-3.5622,-3.5622,-3.5622,-3.5622,-3.5694,-3.6706,-3.7286,-3.748,-3.7337,-3.7989,-3.9153,-3.9648,-4.0341,-4.1038,-4.1038,-4.1552,-4.2231,0.0,0.0,0.0,0.0,0.0,0.0,0.0,0.0,0.0,0.0,0.0,0.0,-1.6596,-1.6596,-1.6596,-1.6596,-1.6596,-1.6675,-1.688,-1.7385,-1.7985,-1.8677,-1.942,-2.0036,-2.051,-2.0699,-2.0794,-2.0794,0.0,0.0,0.0,0.0,0.0,0.0,-2.1167,-2.1183,-2.1163,-2.0906,0.0,0.0,-2.3549,-2.4783,0.0,0.0,0.0,0.0,0.0,-2.8405,-2.826,0.0,-2.7229,-2.5009,0.0,0.0,0.0,0.0,0.0,0.0,-2.5547,0.0,0.0,0.0,0.0,0.0,0.0,0.0,0.0,-3.344,-3.4286,-3.4979,-3.552,-3.5622,-3.5622,-3.5622,-3.5622,-3.5622,-3.5622,-3.5622,-3.5622,-3.5622,-3.5622,-3.5622,-3.5622,-3.5622,-3.5622,-3.5622,-3.5622,-3.5622,-3.5622,-3.5622,-3.5622,-3.5622,-3.5622,-3.5622,-3.5622,-3.5622,-3.5622,-3.5622,-3.5622,-3.5622,-3.5622,-3.5622,-3.5827,-3.6182,-3.6498,-3.7066,-3.7846,-3.814,-3.8478,-3.8825,-3.8957,-3.9166,-3.9368,-3.9368,-3.9882,-4.0653,0.0,0.0,0.0,0.0,0.0,0.0,0.0,0.0,-1.6596,0.0,0.0,0.0,-1.6596,-1.6596,-1.6596,-1.6596,-1.6865,-1.6928,-1.6612,-1.7275,-1.7858,-1.8282,-1.8977,-1.9672,-2.0368,-2.0766,-2.0974,-2.0974,0.0,0.0,0.0,0.0,0.0,0.0,0.0,0.0,0.0,0.0,0.0,0.0,-2.3419,0.0,0.0,-2.7131,-2.8181,0.0,0.0,0.0,-2.9104,-2.9973,-2.8146,0.0,0.0,0.0,0.0,0.0,0.0,0.0,0.0,0.0,0.0,0.0,0.0,0.0,-2.8702,-2.9888,-3.1157,0.0,-3.3525,-3.4167,-3.4607,-3.4945,-3.5148,-3.5148,-3.5419,-3.5622,-3.5622,-3.5622,-3.5622,-3.5622,-3.5622,-3.5622,-3.5622,-3.5622,-3.5622,-3.5622,-3.5622,-3.5622,-3.5622,-3.5622,-3.5622,-3.5622,-3.5622,-3.5622,-3.5622,-3.5622,-3.5622,-3.5622,-3.5622,-3.5694,-3.5941,-3.5941,-3.6207,-3.6724,-3.6943,-3.7342,-3.7946,-3.8465,-3.8707,-3.8707,-3.8707,-3.8707,-3.8707,-3.8707,-3.9423,-4.0414,0.0,0.0,0.0,0.0,0.0,0.0,0.0,0.0,0.0,0.0,-1.6596,-1.6654,-1.676,-1.667,-1.6596,-1.6596,-1.7196,-1.729,-1.6628,-1.7212,-1.7638,-1.7795,-1.8392,-1.9088,-1.9941,-2.0767,-2.1215,-2.123,0.0,0.0,0.0,0.0,0.0,0.0,0.0,0.0,0.0,0.0,0.0,-2.197,-2.3223,-2.4531,0.0,0.0,-2.7914,-2.8553,-2.9443,-2.9744,-2.98,-3.0617,-2.9242,0.0,0.0,0.0,0.0,0.0,-2.487,0.0,0.0,0.0,0.0,0.0,0.0,0.0,-2.8452,-2.9313,-3.026,-3.163,-3.251,-3.3051,-3.3136,-3.3668,-3.4107,-3.4134,-3.4817,-3.538,-3.556,-3.5622,-3.5622,-3.5622,-3.5622,-3.5622,-3.5622,-3.5622,-3.5622,-3.5622,-3.5622,-3.5622,-3.5622,-3.5622,-3.5622,-3.5622,-3.5622,-3.5622,-3.5622,-3.5622,-3.5622,-3.5694,-3.5694,-3.5985,-3.6498,-3.6498,-3.6764,-3.7285,-3.772,-3.7928,-3.8032,-3.8496,-3.8707,-3.8707,-3.8707,-3.8707,-3.8707,-3.8707,-3.9662,-4.0873,-1.7794,0.0,0.0,0.0,0.0,0.0,0.0,0.0,0.0,-1.6596,-1.6596,-1.6924,-1.7727,-1.7061,-1.6596,-1.6596,-1.6723,-1.6738,-1.6596,-1.6723,-1.7306,-1.8471,-1.8629,-1.94,-2.0879,-2.1119,-2.1294,-2.1432,0.0,0.0,0.0,0.0,0.0,0.0,0.0,0.0,0.0,0.0,0.0,-2.226,-2.307,0.0,-2.682,-2.7902,-2.9264,-3.0611,-3.0825,-3.0504,-2.9892,-2.9269,-2.8703,-2.8023,0.0,0.0,0.0,-2.4464,0.0,0.0,0.0,0.0,0.0,0.0,0.0,0.0,-2.7266,-2.786,-2.8513,-2.9448,-3.0251,-3.093,-3.1512,-3.1756,-3.1842,-3.1827,-3.2966,-3.4253,-3.5442,-3.5622,-3.5622,-3.5622,-3.5622,-3.5622,-3.5622,-3.5622,-3.5622,-3.5622,-3.5622,-3.5622,-3.5622,-3.5622,-3.5622,-3.5622,-3.5622,-3.5622,-3.5622,-3.5622,-3.5827,-3.6249,-3.6249,-3.6522,-3.702,-3.702,-3.7323,-3.7755,-3.7859,-3.8132,-3.8546,-3.8676,-3.8707,-3.8707,-3.8707,-3.8707,-3.8707,-3.8707,-3.9313,-4.0102,-1.79,0.0,0.0,0.0,0.0,0.0,0.0,0.0,0.0,-1.6738,-1.6763,-1.7035,-1.7828,0.0,-1.6596,-1.6596,-1.6928,-1.6991,-1.6612,-1.6928,-1.7674,-1.8866,-1.8898,-1.9688,-2.1308,-2.134,-2.1479,-2.1705,0.0,0.0,0.0,0.0,0.0,0.0,0.0,0.0,0.0,0.0,-2.136,-2.202,-2.311,0.0,-2.6803,-2.7791,-2.8966,-3.0142,-3.0514,-3.0649,-3.056,-3.0039,-2.917,0.0,-2.7876,-2.7263,-2.6551,0.0,-2.647,-2.7097,0.0,0.0,0.0,-2.6942,0.0,0.0,0.0,-2.7845,-2.8182,-2.8926,-2.9353,-2.9675,-3.0006,-3.0417,-3.0658,-3.0666,-3.1904,-3.2983,-3.3345,-3.4671,-3.5622,-3.5622,-3.5622,-3.5622,-3.5622,-3.5622,-3.5622,-3.5622,-3.5622,-3.5622,-3.5622,-3.5622,-3.5622,-3.5622,-3.5622,-3.5622,-3.5622,-3.525,-3.5522,-3.6374,-3.6035,-3.6457,-3.7542,-3.7542,-3.7808,-3.83,-3.83,-3.8465,-3.8707,-3.8707,-3.8707,-3.8707,-3.8707,-3.8707,-3.8707,-3.8707,-3.9203,-3.9827,-1.7983,0.0,0.0,0.0,0.0,0.0,0.0,0.0,0.0,0.0,0.0,0.0,0.0,0.0,0.0,0.0,-1.777,-1.7775,-1.7029,-1.7524,-1.8235,-1.9066,-1.9099,-1.9877,-2.1552,-2.1584,-2.1705,-2.1986,0.0,0.0,0.0,0.0,0.0,0.0,0.0,0.0,0.0,0.0,0.0,-2.2094,0.0,-2.4745,-2.623,-2.7311,-2.8226,-2.8986,-2.98,-3.048,-3.0987,-3.0931,-2.9772,-2.8471,-2.8987,-2.8395,0.0,0.0,0.0,0.0,0.0,0.0,0.0,0.0,0.0,-2.7449,0.0,0.0,0.0,-2.8693,-2.8725,0.0,0.0,0.0,0.0,-2.9276,0.0,0.0,0.0,-3.3035,0.0,-3.4962,-3.5351,-3.5554,-3.5419,-3.5402,-3.547,-3.5605,-3.5487,-3.547,-3.556,-3.5622,-3.5622,-3.5622,-3.5622,-3.5622,-3.5622,-3.4861,-3.519,-3.6563,-3.5779,-3.6357,-3.8047,-3.8047,-3.83,-3.8707,-3.8707,-3.8707,-3.8707,-3.8707,-3.8707,-3.8707,-3.8707,-3.8707,-3.8707,-3.8707,-3.9111,-3.957,-1.78,-1.7687,0.0,0.0,0.0,0.0,0.0,0.0,0.0,0.0,0.0,0.0,0.0,0.0,0.0,0.0,0.0,0.0,-1.8344,0.0,-1.8637,-1.9095,-1.9099,-1.9964,-2.182,-2.1853,-2.2003,-2.2237,0.0,0.0,0.0,0.0,0.0,0.0,-2.182,0.0,0.0,0.0,-2.3027,0.0,-2.4014,-2.4431,0.0,-2.6825,-2.7918,-2.8691,-2.9745,-3.0159,-3.0188,0.0,-2.9638,-2.921,0.0,-2.8394,-2.8987,-2.7262,0.0,0.0,0.0,0.0,0.0,0.0,-2.7698,0.0,-2.7687,0.0,-2.7326,-2.7402,0.0,-2.7216,0.0,0.0,0.0,0.0,0.0,0.0,-2.8544,-3.0597,-3.229,-3.2618,-3.4421,-3.5351,-3.4692,-3.4624,-3.4895,-3.5571,-3.4996,-3.4912,-3.5588,-3.5622,-3.5622,-3.5622,-3.5622,-3.5622,-3.5622,-3.4861,-3.5366,-3.7097,-3.6284,-3.6878,-3.8627,-3.8627,-3.8627,-3.8707,-3.8707,-3.8707,-3.8707,-3.8707,-3.8707,-3.8707,-3.8707,-3.8707,-3.8707,-3.8707,-3.8762,-3.8817,-1.8103,-1.7932,0.0,0.0,0.0,0.0,0.0,0.0,0.0,0.0,0.0,0.0,0.0,0.0,0.0,0.0,0.0,-1.8967,0.0,0.0,0.0,-1.9497,-1.9503,-2.0334,-2.2101,-2.1986,-2.2032,-2.231,-2.2135,0.0,0.0,0.0,0.0,0.0,-2.232,0.0,-2.3243,0.0,-2.3596,0.0,0.0,0.0,0.0,-2.6318,-2.7463,-2.8202,-2.9141,-2.9736,-3.0121,0.0,-2.9839,0.0,0.0,0.0,0.0,-2.8091,0.0,0.0,0.0,0.0,0.0,0.0,0.0,0.0,-2.7792,-2.7487,-2.7361,-2.7373,0.0,0.0,0.0,0.0,0.0,0.0,-2.7728,-2.8425,0.0,0.0,-3.1219,-3.1725,0.0,0.0,-3.3228,-3.3609,-3.3998,-3.432,-3.4438,-3.4641,-3.4945,-3.5385,-3.5622,-3.5622,-3.5898,-3.5848,-3.536,-3.5353,-3.5884,-3.6898,-3.6127,-3.6566,-3.7991,-3.7991,-3.7991,-3.8028,-3.8505,-3.8707,-3.8707,-3.8707,-3.8707,-3.8707,-3.8707,-3.8707,-3.8707,-3.8707,-3.8707,-3.8707,-1.8368,0.0,0.0,0.0,0.0,0.0,0.0,0.0,0.0,0.0,0.0,0.0,-1.8166,-1.801,0.0,0.0,-1.9747,-1.9986,0.0,0.0,-2.0021,-2.0986,-2.042,0.0,-2.2733,-2.2276,-2.2106,-2.231,-2.2106,0.0,0.0,0.0,0.0,0.0,0.0,-2.2818,-2.4188,0.0,-2.4118,-2.4073,-2.4993,-2.5162,-2.4945,-2.6152,-2.6961,-2.7638,-2.8636,-2.933,-2.9905,-3.0538,-2.9895,-2.9003,-3.0123,-2.9319,-2.8119,0.0,0.0,0.0,-2.7284,0.0,0.0,0.0,-2.8062,-2.8679,-2.7877,-2.7631,-2.7549,-2.7549,-2.7397,0.0,0.0,0.0,0.0,0.0,0.0,-2.7535,0.0,-2.8256,0.0,0.0,-3.0922,0.0,-3.206,-3.2701,-3.307,-3.3168,-3.3743,-3.4219,-3.4472,-3.5128,-3.5606,-3.581,-3.6333,-3.6342,-3.5727,-3.5696,-3.6025,-3.6687,-3.5742,-3.5926,-3.7165,-3.7386,-3.7507,-3.7533,-3.834,-3.8707,-3.8707,-3.8707,-3.8707,-3.8707,-3.8707,-3.8707,-3.8707,-3.8707,-3.8707,-3.8707,-1.8485,-1.8388,0.0,0.0,0.0,0.0,0.0,0.0,0.0,0.0,0.0,0.0,0.0,0.0,0.0,0.0,0.0,-2.3484,-2.336,0.0,-2.2406,-2.3985,-2.201,-2.1847,0.0,-2.2846,-2.2282,-2.231,-2.2282,0.0,0.0,0.0,0.0,0.0,0.0,-2.204,-2.3477,-2.4188,-2.4898,-2.5541,-2.5592,-2.6015,-2.659,0.0,-2.6469,-2.6928,-2.8433,-2.9045,-2.909,-2.9499,-2.9621,-2.9432,-2.8782,-2.9015,-2.9482,0.0,0.0,0.0,-2.8288,-2.8783,-2.9431,-2.7639,-2.7917,-2.8436,-2.7847,-2.7701,-2.7683,-2.7683,-2.7584,-2.7496,-2.7484,-2.7332,0.0,0.0,0.0,0.0,0.0,0.0,0.0,-2.8351,-2.9765,0.0,-3.1654,-3.1982,-3.2258,-3.2588,-3.2878,-3.3459,-3.4464,-3.5022,-3.5654,-3.6357,-3.6865,-3.7173,-3.7155,-3.5597,-3.5472,-3.6687,-3.5151,-3.5127,-3.6358,-3.7129,-3.7507,-3.7533,-3.834,-3.8707,-3.8707,-3.8707,-3.8707,-3.8707,-3.8707,-3.8707,-3.8707,-3.8707,-3.8707,-3.8707,0.0,0.0,0.0,0.0,0.0,0.0,0.0,-1.8257,0.0,0.0,0.0,0.0,0.0,-2.042,-2.1109,0.0,0.0,-2.3034,-2.3678,-2.262,0.0,-2.4335,-2.228,-2.2017,0.0,0.0,0.0,0.0,0.0,0.0,0.0,0.0,0.0,0.0,0.0,-2.2919,0.0,0.0,0.0,0.0,0.0,-2.5761,-2.6031,0.0,-2.6624,-2.6826,-2.7841,-2.8552,-2.9093,-2.9707,-2.9921,-2.9955,-3.0191,-2.9808,-2.9289,-2.9607,-2.9666,-2.9486,-2.9097,-2.9907,-3.0452,-2.8724,-2.9158,-2.9627,-2.7953,-2.7648,-2.7701,-2.7701,-2.7666,-2.7631,-2.7631,-2.7566,0.0,0.0,0.0,0.0,0.0,-2.6304,-2.6917,-2.7818,0.0,0.0,0.0,-3.0578,-3.1359,-3.1334,-3.2615,-3.3545,-3.3885,-3.4524,-3.5267,-3.6057,-3.6577,-3.6878,-3.6878,-3.6678,-3.6539,-3.6425,-3.533,-3.5005,-3.5459,-3.5734,-3.5862,-3.5899,-3.6743,-3.711,-3.7147,-3.7679,-3.79,-3.7955,-3.8487,-3.8707,-3.8707,-3.8707,-3.8707,-3.8707,-1.8485,0.0,0.0,0.0,0.0,0.0,0.0,0.0,0.0,0.0,-1.9739,0.0,-2.0573,0.0,-2.1397,0.0,-2.2695,-2.3322,-2.4136,-2.349,0.0,-2.5434,-2.3736,0.0,0.0,0.0,0.0,0.0,0.0,-2.2175,0.0,0.0,0.0,0.0,0.0,-2.2649,-2.3477,0.0,-2.5507,0.0,0.0,-2.5998,0.0,-2.6522,-2.6539,-2.6437,-2.7452,-2.8334,-2.9115,-2.9837,-3.0277,-3.0581,-3.1055,-3.0531,-2.9892,-3.0353,-3.036,-3.0221,-3.004,-3.0786,-3.1298,-2.9779,-3.0057,-3.0261,-2.8535,-2.8194,-2.8276,-2.8276,-2.7971,-2.7936,-2.8653,-2.8194,-2.7801,0.0,0.0,0.0,0.0,-2.6257,-2.6539,-2.7566,-2.7975,0.0,0.0,-2.9659,-3.0577,-3.1021,-3.2221,-3.3117,-3.3598,-3.448,-3.5384,-3.6168,-3.6976,-3.7421,-3.7421,-3.7192,-3.6798,-3.6285,-3.5147,-3.4578,-3.4568,-3.4862,-3.499,-3.5045,-3.5917,-3.6303,-3.634,-3.6853,-3.7221,-3.7562,-3.8065,-3.845,-3.8707,-3.8707,-3.8707,-3.8707,0.0,0.0,0.0,0.0,-1.8322,0.0,0.0,0.0,-2.0072,0.0,-2.0773,-2.1392,-2.0744,-2.1714,-2.2335,-2.2198,-2.344,-2.4421,-2.4946,-2.4942,0.0,0.0,-2.6233,-2.6136,-2.7284,0.0,0.0,0.0,0.0,0.0,0.0,0.0,0.0,0.0,-2.0086,0.0,-2.3444,-2.4201,-2.5338,-2.6691,-2.6691,-2.6674,-2.664,-2.6674,-2.6251,-2.5828,-2.73,-2.8335,-2.9172,-2.9858,-3.0581,-3.119,-3.119,-3.119,-3.119,-3.119,-3.1788,-3.2195,-3.1065,-3.1417,-3.1864,-3.0821,-3.0576,-3.039,-2.9556,-2.9367,-2.9384,-2.9384,-2.8564,-2.8458,-3.035,-2.9095,-2.8088,0.0,0.0,0.0,0.0,0.0,-2.6033,-2.7514,-2.7736,-2.8135,-2.9069,-2.9276,-2.9982,-3.1451,-3.1678,-3.2264,0.0,-3.4796,-3.5851,-3.6666,-3.7922,-3.8615,-3.8707,-3.7055,-3.6266,-3.6266,-3.4596,-3.3807,-3.3825,-3.4596,-3.4935,-3.4972,-3.5826,-3.6174,-3.6174,-3.6211,-3.6688,-3.7367,-3.7489,-3.7973,-3.8707,-3.8707,-3.8707,-3.8707,-1.8485,-1.8485,-1.8485,0.0,-1.8322,-1.8362,0.0,0.0,0.0,0.0,-2.1957,-2.256,-2.3182,-2.3538,-2.3706,-2.3666,-2.4003,0.0,0.0,0.0,0.0,-2.8461,-2.668,-2.6136,-2.7284,-2.5112,-2.4006,-2.4006,0.0,0.0,-2.2023,0.0,0.0,0.0,0.0,0.0,-2.3444,-2.4201,-2.5338,-2.6691,-2.6691,-2.637,-2.5947,-2.6488,-2.6571,-2.6531,-2.7453,-2.8655,-2.9867,-3.0051,-3.0569,-3.119,-3.119,-3.119,-3.119,-3.119,-3.1348,-3.1521,-3.1519,-3.1942,-3.221,-3.1374,-3.1492,-3.1552,-3.0431,-3.0299,-3.0404,-3.0404,-3.0191,-2.9942,-2.9721,-2.9244,-2.8727,0.0,0.0,0.0,0.0,0.0,0.0,-2.7584,-2.8411,-2.8417,-2.7183,-2.9101,-3.0291,-3.0009,-3.1315,-3.2617,-3.3684,-3.3927,-3.4786,-3.6328,-3.674,-3.7496,-3.8689,-3.6468,-3.5661,-3.6266,-3.4596,-3.3807,-3.3807,-3.4009,-3.4119,-3.4119,-3.4339,-3.4431,-3.4486,-3.5092,-3.5477,-3.5771,-3.7,-3.7973,-3.8707,-3.8707,-3.8707,-3.8707,-1.8485,0.0,0.0,-1.8485,0.0,0.0,-1.9408,-1.9356,0.0,-2.1405,-2.212,0.0,-2.3213,-2.3697,-2.3976,-2.3976,-2.3976,0.0,-2.5761,0.0,0.0,-2.8171,-2.7489,-2.7375,-2.8033,-2.633,0.0,-2.4699,0.0,0.0,-2.1285,0.0,0.0,0.0,0.0,-2.1735,-2.2547,-2.4255,-2.5456,-2.6251,-2.6573,-2.6437,0.0,-2.6539,-2.6911,-2.7284,-2.8046,-2.9087,-3.0105,-3.0114,-3.0594,-3.119,-3.119,-3.119,-3.119,-3.119,-3.1331,-3.1496,-3.1737,-3.2278,-3.2715,-3.2292,-3.2565,-3.2665,-3.1546,-3.1365,-3.1462,-3.1462,-3.1102,-3.0903,-3.1199,-3.0194,-2.8948,0.0,0.0,0.0,0.0,0.0,0.0,0.0,-2.8241,-2.8023,-2.6549,-2.907,-3.0576,-3.005,-3.1028,-3.1901,-3.2466,-3.313,-3.3978,-3.5023,-3.5889,-3.689,-3.8157,-3.6064,-3.5459,-3.6266,-3.4596,-3.3807,-3.3807,-3.3807,-3.3807,-3.3807,-3.3807,-3.3807,-3.3862,-3.4688,-3.521,-3.5734,-3.7386,-3.8303,-3.8707,-3.8707,-3.8707,-3.8707,0.0,0.0,0.0,0.0,0.0,0.0,0.0,-1.9765,0.0,-2.1348,0.0,-2.2497,-2.2393,-2.3214,-2.3774,-2.3774,0.0,-2.4118,-2.4914,-2.599,-2.6816,-2.7356,-2.8424,-2.8994,-2.8994,-2.7834,-2.6709,0.0,0.0,0.0,0.0,0.0,0.0,0.0,0.0,0.0,0.0,-2.4475,-2.5659,-2.5812,-2.6437,-2.6691,-2.6691,-2.6691,-2.7147,-2.7924,-2.8725,-2.9487,-3.011,-3.0223,-3.0683,-3.119,-3.119,-3.119,-3.119,-3.119,-3.1455,-3.1698,-3.1698,-3.2422,-3.3112,-3.3125,-3.3468,-3.3578,-3.2702,-3.2492,-3.2492,-3.2492,-3.181,-3.1674,-3.3313,-3.1343,-2.9148,0.0,-2.7496,-2.7379,0.0,0.0,0.0,0.0,-2.8088,0.0,-2.6906,-2.9125,-3.0549,-3.0448,-3.0538,-3.0728,-3.0982,-3.2462,-3.3429,-3.3676,-3.5282,-3.6523,-3.7342,-3.5679,-3.5293,-3.6101,-3.4541,-3.3807,-3.3807,-3.3807,-3.3807,-3.3807,-3.3807,-3.3807,-3.3844,-3.4559,-3.5422,-3.645,-3.7955,-3.8615,-3.8707,-3.8707,-3.8707,-3.8707,0.0,0.0,0.0,0.0,0.0,-2.022,-2.1762,-2.2001,-2.2506,-2.4028,-2.4005,-2.3873,-2.3835,-2.4002,-2.4113,-2.4113,-2.4113,0.0,0.0,0.0,0.0,-2.7665,-2.8553,-2.8994,-2.8994,-2.7605,-2.6472,0.0,0.0,0.0,0.0,0.0,0.0,0.0,0.0,0.0,-2.4015,-2.5118,0.0,-2.6522,-2.664,-2.6691,-2.6691,-2.6691,-2.7165,-2.7913,-2.8716,-2.9483,-3.0167,-3.0806,-3.1094,-3.119,-3.119,-3.119,-3.119,-3.119,-3.1224,-3.1314,-3.1314,-3.1964,-3.2619,-3.2622,-3.3213,-3.3752,-3.3578,-3.3542,-3.3542,-3.3542,-3.3386,-3.3121,-3.2647,-3.1462,-3.0196,-2.9184,-2.9609,-3.0107,-3.0261,0.0,0.0,0.0,0.0,-2.9864,-2.8229,-2.8994,-2.9269,-2.8631,-2.9193,-3.0284,-3.1955,-3.2187,-3.3034,-3.4678,-3.5064,-3.5642,-3.6486,-3.4853,-3.4431,-3.521,-3.4266,-3.3807,-3.3807,-3.3807,-3.3807,-3.3807,-3.3807,-3.3807,-3.3807,-3.3954,-3.4908,-3.6376,-3.7331,-3.812,-3.8707,-3.8707,-3.8707,-3.8707,0.0,0.0,0.0,0.0,0.0,0.0,0.0,-2.3371,-2.3499,-2.3681,-2.3513,-2.3356,-2.3356,-2.3701,-2.4016,-2.419,-2.4036,-2.4527,-2.5933,-2.6374,-2.7163,-2.8374,-2.8796,-2.8994,-2.8994,-2.8103,-2.6968,-2.561,-2.4691,-2.301,-2.0585,-2.0991,0.0,0.0,0.0,-2.2564,0.0,0.0,-2.5812,-2.6167,-2.6539,-2.6691,-2.6691,-2.6691,-2.6928,-2.7334,-2.81,-2.8602,-2.9131,-3.0684,-3.119,-3.119,-3.119,-3.119,-3.119,-3.119,-3.119,-3.119,-3.119,-3.1839,-3.2496,-3.2513,-3.3158,-3.3807,-3.3807,-3.3807,-3.3807,-3.3807,-3.3807,-3.3505,-3.2492,-3.148,-3.0646,-3.0166,-3.004,-3.0194,-3.0728,-3.0782,-3.0674,0.0,0.0,0.0,-2.8396,-2.8504,-2.8739,-2.8859,-2.9249,-3.0052,-3.1436,-3.1518,-3.2173,-3.3552,-3.4522,-3.5192,-3.5624,-3.4835,-3.4633,-3.499,-3.4192,-3.3807,-3.3807,-3.3807,-3.3807,-3.3807,-3.3807,-3.4045,-3.4504,-3.5349,-3.6431,-3.7588,-3.7973,-3.8358,-3.8707,-3.8707,-3.8707,-3.8707,0.0,-2.0026,0.0,0.0,-2.2024,-2.26,-2.4008,-2.4368,-2.415,-2.3315,-2.3059,-2.295,-2.295,-2.3394,-2.3816,-2.4074,-2.4,-2.4596,-2.614,-2.6625,-2.742,-2.8705,-2.8902,-2.8952,-2.8863,-2.8489,-2.7441,0.0,-2.5227,-2.3429,-2.0491,-2.0974,0.0,0.0,0.0,0.0,-2.3934,-2.5118,-2.5693,-2.5896,-2.6471,-2.6691,-2.6691,-2.6691,-2.6691,-2.6809,-2.7538,-2.7786,-2.8097,-3.007,-3.0823,-3.0999,-3.1157,-3.119,-3.119,-3.119,-3.119,-3.119,-3.119,-3.1771,-3.2337,-3.2358,-3.303,-3.3652,-3.3652,-3.3752,-3.3807,-3.3807,-3.3807,-3.3505,-3.2492,-3.1818,-3.1369,-3.1138,-3.064,-3.0514,-3.1337,-3.1447,-3.1374,0.0,0.0,0.0,-2.8902,-2.8612,-2.888,-2.984,-2.9673,-2.9918,-3.0761,-3.0985,-3.1492,-3.2329,-3.3744,-3.4477,-3.4477,-3.4642,-3.4734,-3.4734,-3.41,-3.3807,-3.3807,-3.3807,-3.3807,-3.3807,-3.3807,-3.4266,-3.5119,-3.6798,-3.7863,-3.8469,-3.8634,-3.8707,-3.8707,-3.8707,-3.8707,-3.8707,0.0,0.0,0.0,0.0,0.0,-2.4866,-2.4969,-2.5152,-2.5236,-2.5142,-2.4501,-2.406,-2.406,-2.3842,-2.3714,-2.3735,-2.4382,-2.487,-2.5055,-2.6721,-2.775,-2.7897,-2.8613,-2.8839,-2.8471,-2.8129,-2.736,-2.6144,-2.5073,-2.3723,-2.209,-2.1465,-2.1465,-2.2023,-2.2902,-2.4086,-2.5406,-2.5558,-2.5998,-2.659,-2.6657,-2.6691,-2.6691,-2.6691,-2.6691,-2.6809,-2.7538,-2.7811,-2.793,-2.8905,-2.9649,-3.0297,-3.0999,-3.119,-3.119,-3.119,-3.119,-3.119,-3.119,-3.1523,-3.1846,-3.1856,-3.2565,-3.3276,-3.3276,-3.3542,-3.3807,-3.3807,-3.3807,-3.3505,-3.2492,-3.2985,-3.3214,-3.2311,-3.2857,-3.3405,-3.3523,-3.3523,-3.3258,-3.251,0.0,0.0,-3.1154,-3.0265,-3.0075,-3.0908,-2.9952,-2.9746,-3.0761,-3.0994,-3.1535,-3.2548,-3.2742,-3.2834,-3.2834,-3.355,-3.3917,-3.3917,-3.3844,-3.3807,-3.3807,-3.3807,-3.3807,-3.3807,-3.3807,-3.4266,-3.5119,-3.6798,-3.7533,-3.7661,-3.8414,-3.8707,-3.8707,-3.8707,-3.8707,-3.8707,0.0,0.0,0.0,-2.4806,-2.4714,-2.4652,-2.5189,-2.4939,-2.485,-2.5348,-2.4685,-2.4373,-2.4869,-2.4584,-2.4392,-2.4414,-2.5113,-2.5564,-2.5628,-2.6972,-2.8026,-2.8503,-2.8609,-2.8565,-2.8402,-2.7833,-2.7103,-2.6207,-2.5047,-2.3748,-2.231,-2.2446,-2.2902,-2.3646,-2.4391,-2.505,-2.5642,-2.6065,-2.642,-2.6691,-2.6691,-2.6691,-2.6691,-2.6691,-2.6691,-2.6725,-2.7046,-2.7131,-2.725,-2.8031,-2.8808,-2.9499,-2.9794,-3.0157,-3.0544,-3.0544,-3.0858,-3.119,-3.119,-3.1489,-3.1807,-3.1795,-3.2283,-3.2849,-3.314,-3.3331,-3.3523,-3.3752,-3.3807,-3.3697,-3.3276,-3.3048,-3.2976,-3.3168,-3.3022,-3.3103,-3.3733,-3.3807,-3.3697,-3.335,0.0,-3.2245,-3.1382,-3.0443,-2.9976,-3.0199,-2.9863,-3.004,-3.093,-3.1634,-3.218,-3.2587,-3.3555,-3.3799,-3.333,-3.411,-3.4275,-3.3807,-3.3807,-3.3807,-3.3807,-3.3807,-3.4064,-3.4559,-3.5073,-3.5752,-3.6597,-3.7734,-3.8212,-3.8248,-3.8579,-3.8707,-3.8707,-3.8707,-3.8707,-3.8707,-2.4924,-2.4932,-2.5179,-2.6089,-2.5823,-2.5609,-2.6043,-2.5621,-2.5383,-2.5695,-2.5254,-2.5126,-2.5676,-2.5312,-2.5022,-2.5069,-2.5665,-2.6129,-2.6296,-2.7344,-2.8237,-2.8803,-2.8567,-2.8286,-2.8084,-2.7584,-2.6978,-2.6341,-2.5326,-2.4289,-2.3291,-2.3579,-2.4103,-2.4831,-2.5372,-2.5727,-2.5964,-2.6471,-2.6691,-2.6691,-2.6691,-2.6691,-2.6691,-2.6691,-2.6691,-2.6691,-2.6691,-2.6691,-2.6792,-2.7317,-2.7838,-2.8402,-2.885,-2.937,-2.9833,-3.0029,-3.0454,-3.0909,-3.1157,-3.1399,-3.163,-3.163,-3.1964,-3.24,-3.2898,-3.3099,-3.3313,-3.3733,-3.3807,-3.3807,-3.3807,-3.3213,-3.2966,-3.3697,-3.3195,-3.2985,-3.3715,-3.3807,-3.3715,-3.3486,-3.2948,-3.2338,-3.1674,-3.0839,-3.0363,-3.0383,-3.0567,-3.0926,-3.1419,-3.1964,-3.2361,-3.2599,-3.3691,-3.4005,-3.3456,-3.4266,-3.4348,-3.3807,-3.3807,-3.3807,-3.3807,-3.3807,-3.4247,-3.5045,-3.5917,-3.6743,-3.7551,-3.8377,-3.8707,-3.8707,-3.8707,-3.8707,-3.8707,-3.8707,-3.8707,-3.8707,-2.5011,-2.6435,-2.777,-2.8769,-2.8938,-2.8686,-2.7879,-2.775,-2.7475,-2.6686,-2.6594,-2.6576,-2.6594,-2.5925,-2.549,-2.549,-2.5922,-2.6382,-2.6774,-2.7789,-2.8402,-2.842,-2.8397,-2.807,-2.7317,-2.7304,-2.7089,-2.6674,-2.5947,-2.5592,-2.5558,-2.4814,-2.4864,-2.5592,-2.5609,-2.5998,-2.6674,-2.6691,-2.6691,-2.6691,-2.6691,-2.6691,-2.6691,-2.6691,-2.6691,-2.6691,-2.6691,-2.6691,-2.6691,-2.6708,-2.6708,-2.6995,-2.8527,-2.9006,-2.9162,-2.9875,-3.0107,-3.0264,-3.0999,-3.119,-3.1207,-3.1207,-3.1506,-3.193,-3.2388,-3.2879,-3.3313,-3.3733,-3.3807,-3.3807,-3.3807,-3.3788,-3.3788,-3.3807,-3.3788,-3.3788,-3.3807,-3.3807,-3.3523,-3.2702,-3.261,-3.261,-3.2592,-3.1846,-3.1631,-3.2214,-3.2445,-3.2493,-3.2288,-3.1744,-3.1789,-3.2574,-3.261,-3.2619,-3.2619,-3.3419,-3.3807,-3.3807,-3.3807,-3.3807,-3.3807,-3.3807,-3.4247,-3.5045,-3.5917,-3.6743,-3.7551,-3.8377,-3.8707,-3.8707,-3.8707,-3.8707,-3.8707,-3.8707,-3.8707,-3.8707,-2.6915,-2.7812,-2.8453,-2.8227,-2.8172,-2.8099,-2.7842,-2.7328,-2.709,-2.7383,-2.742,-2.764,-2.8191,-2.7087,-2.633,-2.6384,-2.6726,-2.6775,-2.6417,-2.7427,-2.8076,-2.8066,-2.7798,-2.754,-2.7303,-2.7023,-2.6839,-2.6691,-2.5963,-2.5605,-2.5605,-2.537,-2.5642,-2.6353,-2.6353,-2.6471,-2.6691,-2.6691,-2.6691,-2.6691,-2.6691,-2.6691,-2.6691,-2.6691,-2.6691,-2.6691,-2.6691,-2.6691,-2.6691,-2.6691,-2.6691,-2.6792,-2.7267,-2.7776,-2.8237,-2.8475,-2.9272,-3.0141,-3.0387,-3.0825,-3.119,-3.119,-3.1506,-3.193,-3.2405,-3.3075,-3.3633,-3.377,-3.3807,-3.3807,-3.3807,-3.3807,-3.3807,-3.3807,-3.3807,-3.3807,-3.3807,-3.3807,-3.3715,-3.3441,-3.3419,-3.3438,-3.3438,-3.2695,-3.23,-3.2485,-3.1545,-3.1109,-3.1469,-3.2482,-3.2915,-3.261,-3.312,-3.3419,-3.3419,-3.3687,-3.3807,-3.3807,-3.3807,-3.3807,-3.3825,-3.4376,-3.5092,-3.5936,-3.6762,-3.7569,-3.834,-3.8597,-3.8707,-3.8707,-3.8707,-3.8707,-3.8707,-3.8707,-3.8707,-3.8707,-2.7732,-2.8448,-2.8851,-2.8338,-2.8246,-2.8246,-2.8246,-2.7824,-2.7695,-2.8191,-2.8114,-2.8273,-2.8938,-2.7896,-2.7187,-2.7192,-2.7126,-2.6928,-2.6616,-2.7278,-2.7666,-2.7664,-2.7431,-2.7236,-2.7083,-2.6836,-2.6691,-2.6691,-2.6234,-2.6029,-2.6029,-2.5998,-2.6251,-2.6691,-2.6691,-2.6691,-2.6691,-2.6691,-2.6691,-2.6691,-2.6691,-2.6691,-2.6691,-2.6691,-2.6691,-2.6691,-2.6691,-2.6691,-2.6691,-2.6691,-2.6691,-2.6691,-2.6691,-2.7029,-2.7453,-2.7742,-2.8713,-2.9753,-2.9995,-3.0651,-3.1224,-3.1382,-3.1613,-3.1965,-3.2634,-3.3291,-3.3807,-3.3807,-3.3807,-3.3807,-3.3807,-3.3807,-3.3807,-3.3807,-3.3807,-3.3807,-3.3807,-3.3807,-3.3697,-3.3386,-3.3357,-3.3352,-3.3352,-3.2878,-3.272,-3.3048,-3.2114,-3.1709,-3.2085,-3.2592,-3.2948,-3.3066,-3.3633,-3.388,-3.3807,-3.388,-3.388,-3.3807,-3.3807,-3.3807,-3.3825,-3.4623,-3.5495,-3.634,-3.7129,-3.7955,-3.8707,-3.8707,-3.8707,-3.8707,-3.8707,-3.8707,-3.8707,-3.8707,-3.8707,-3.8707,-2.764,-2.8425,-2.897,-2.8994,-2.8994,-2.8994,-2.8994,-2.8994,-2.8994,-2.8994,-2.8639,-2.8529,-2.8915,-2.8327,-2.7893,-2.7861,-2.7165,-2.6911,-2.7233,-2.725,-2.7255,-2.7256,-2.7259,-2.7086,-2.6708,-2.6691,-2.6691,-2.6691,-2.6691,-2.6691,-2.6691,-2.6691,-2.6691,-2.6691,-2.6691,-2.6691,-2.6691,-2.6691,-2.6691,-2.6691,-2.6691,-2.6691,-2.6691,-2.6691,-2.6691,-2.6691,-2.6691,-2.6691,-2.6691,-2.6691,-2.6691,-2.6691,-2.6691,-2.6691,-2.6826,-2.7521,-2.8304,-2.9076,-2.9753,-3.0527,-3.1207,-3.163,-3.1798,-3.2138,-3.3045,-3.3542,-3.3807,-3.3807,-3.3807,-3.3807,-3.3807,-3.3807,-3.3807,-3.3807,-3.3807,-3.3807,-3.3807,-3.3807,-3.3523,-3.2757,-3.2684,-3.2684,-3.2684,-3.2684,-3.2966,-3.3652,-3.3728,-3.3729,-3.3729,-3.2284,-3.221,-3.3752,-3.4054,-3.4089,-3.3828,-3.4089,-3.4072,-3.3807,-3.3807,-3.3825,-3.3917,-3.4724,-3.5569,-3.6431,-3.7221,-3.801,-3.8707,-3.8707,-3.8707,-3.8707,-3.8707,-3.8707,-3.8707,-3.8707,-3.8707,-3.8707,-2.7706,-2.8208,-2.8633,-2.8952,-2.8994,-2.8994,-2.8994,-2.8994,-2.8994,-2.8994,-2.8644,-2.8456,-2.8544,-2.8173,-2.7773,-2.7459,-2.7273,-2.708,-2.6843,-2.6826,-2.6825,-2.6836,-2.6825,-2.6796,-2.6691,-2.6691,-2.6691,-2.6691,-2.6691,-2.6691,-2.6691,-2.6691,-2.6691,-2.6691,-2.6691,-2.6691,-2.6691,-2.6691,-2.6691,-2.6691,-2.6691,-2.6691,-2.6691,-2.6691,-2.6691,-2.6691,-2.6691,-2.6691,-2.6691,-2.6691,-2.6691,-2.6691,-2.6691,-2.6691,-2.6708,-2.6911,-2.7487,-2.8135,-2.8301,-2.9343,-3.0454,-3.0858,-3.1917,-3.3002,-3.3534,-3.3733,-3.3807,-3.3807,-3.3807,-3.3807,-3.3807,-3.3807,-3.3807,-3.3807,-3.3807,-3.3807,-3.3807,-3.3807,-3.3733,-3.3542,-3.3523,-3.3523,-3.3523,-3.3523,-3.3331,-3.2912,-3.2881,-3.2878,-3.2878,-3.2509,-3.2757,-3.377,-3.4054,-3.4157,-3.4118,-3.4162,-3.4072,-3.3807,-3.3807,-3.4137,-3.4752,-3.5597,-3.6452,-3.7239,-3.8065,-3.8524,-3.8707,-3.8707,-3.8707,-3.8707,-3.8707,-3.8707,-3.8707,-3.8707,-3.8707,-3.8707,-2.7432,-2.8021,-2.854,-2.8929,-2.8839,-2.8718,-2.8727,-2.8585,-2.85,-2.8503,-2.815,-2.7963,-2.815,-2.7841,-2.754,-2.7313,-2.7297,-2.7114,-2.6708,-2.6691,-2.6691,-2.6691,-2.6691,-2.6691,-2.6691,-2.6691,-2.6691,-2.6691,-2.6691,-2.6691,-2.6691,-2.6691,-2.6691,-2.6691,-2.6691,-2.6691,-2.6691,-2.6691,-2.6691,-2.6691,-2.6691,-2.6691,-2.6691,-2.6691,-2.6691,-2.6691,-2.6691,-2.6691,-2.6691,-2.6691,-2.6691,-2.6691,-2.6691,-2.6691,-2.6691,-2.6691,-2.7216,-2.7777,-2.7796,-2.8679,-2.9773,-3.0525,-3.1966,-3.3276,-3.3486,-3.3652,-3.3807,-3.3807,-3.3807,-3.3807,-3.3807,-3.3807,-3.3807,-3.3807,-3.3176,-3.2948,-3.3715,-3.3158,-3.2966,-3.3715,-3.3807,-3.3807,-3.3807,-3.3807,-3.3615,-3.3176,-3.314,-3.314,-3.314,-3.314,-3.335,-3.3788,-3.4054,-3.4203,-3.4203,-3.4207,-3.4109,-3.3981,-3.3844,-3.4045,-3.4495,-3.5725,-3.6552,-3.7026,-3.8212,-3.8707,-3.8707,-3.8707,-3.8707,-3.8707,-3.8707,-3.8707,-3.8707,-3.8707,-3.8707,-3.8707,-2.7022,-2.7759,-2.8368,-2.8749,-2.854,-2.8312,-2.833,-2.8077,-2.7895,-2.7907,-2.7536,-2.7437,-2.7775,-2.7496,-2.7289,-2.722,-2.7265,-2.7114,-2.6708,-2.6691,-2.6691,-2.6691,-2.6691,-2.6691,-2.6691,-2.6691,-2.6691,-2.6691,-2.6691,-2.6691,-2.6691,-2.6691,-2.6691,-2.6691,-2.6691,-2.6691,-2.6691,-2.6691,-2.6691,-2.6691,-2.6691,-2.6691,-2.6691,-2.6691,-2.6691,-2.6691,-2.6691,-2.6691,-2.6691,-2.6691,-2.6691,-2.6691,-2.6691,-2.6691,-2.6691,-2.6691,-2.7131,-2.764,-2.764,-2.8356,-2.936,-3.0523,-3.2004,-3.3229,-3.3277,-3.356,-3.3807,-3.3807,-3.3807,-3.3807,-3.3807,-3.3807,-3.3752,-3.3597,-3.2456,-3.2054,-3.3397,-3.2426,-3.211,-3.3615,-3.3807,-3.3807,-3.3807,-3.3807,-3.3807,-3.3807,-3.3807,-3.3807,-3.3807,-3.3807,-3.3807,-3.3807,-3.4054,-3.4222,-3.426,-3.4287,-3.4245,-3.4209,-3.3944,-3.3844,-3.4036,-3.545,-3.6237,-3.6564,-3.7912,-3.8585,-3.8707,-3.8707,-3.8707,-3.8707,-3.8707,-3.8707,-3.8707,-3.8707,-3.8707,-3.8707,-2.6808,-2.7151,-2.7619,-2.801,-2.8037,-2.7994,-2.7994,-2.7932,-2.7906,-2.7905,-2.7554,-2.7305,-2.7401,-2.7327,-2.7163,-2.6815,-2.7111,-2.7114,-2.6708,-2.6691,-2.6691,-2.6691,-2.6691,-2.6691,-2.6691,-2.6691,-2.6691,-2.6691,-2.6691,-2.6691,-2.6691,-2.6691,-2.6691,-2.6691,-2.6691,-2.6691,-2.6691,-2.6691,-2.6691,-2.6691,-2.6691,-2.6691,-2.6691,-2.6691,-2.6691,-2.6691,-2.6691,-2.6691,-2.6691,-2.6691,-2.6691,-2.6691,-2.6691,-2.6691,-2.6691,-2.6691,-2.6792,-2.686,-2.686,-2.8168,-2.9799,-3.0999,-3.2231,-3.3301,-3.3621,-3.377,-3.3807,-3.3807,-3.3807,-3.3807,-3.3807,-3.3807,-3.3523,-3.2665,-3.2474,-3.2426,-3.251,-3.2477,-3.2757,-3.3697,-3.3807,-3.3807,-3.3807,-3.3807,-3.3807,-3.3807,-3.3807,-3.3807,-3.3807,-3.3807,-3.3807,-3.3807,-3.4054,-3.4357,-3.462,-3.4634,-3.449,-3.4209,-3.3944,-3.4173,-3.4815,-3.5073,-3.5964,-3.7308,-3.7595,-3.8065,-3.8707,-3.8707,-3.8707,-3.8707,-3.8707,-3.8707,-3.8707,-3.8707,-3.8707,-3.8707,-2.6423,-2.6904,-2.7426,-2.784,-2.7725,-2.7561,-2.7581,-2.7403,-2.7243,-2.7255,-2.7086,-2.6999,-2.6999,-2.6977,-2.6911,-2.6708,-2.686,-2.6911,-2.6708,-2.6691,-2.6691,-2.6691,-2.6691,-2.6691,-2.6691,-2.6691,-2.6691,-2.6691,-2.6691,-2.6691,-2.6691,-2.6691,-2.6691,-2.6691,-2.6691,-2.6691,-2.6691,-2.6691,-2.6691,-2.6691,-2.6691,-2.6691,-2.6691,-2.6691,-2.6691,-2.6691,-2.6691,-2.6691,-2.6691,-2.6691,-2.6691,-2.6691,-2.6691,-2.6691,-2.6691,-2.6691,-2.6691,-2.6691,-2.6691,-2.7793,-2.9179,-3.0167,-3.1477,-3.2719,-3.3341,-3.3633,-3.3807,-3.3807,-3.3807,-3.3807,-3.3807,-3.3807,-3.3633,-3.3176,-3.2475,-3.2218,-3.3004,-3.2441,-3.2419,-3.3633,-3.3807,-3.3807,-3.3807,-3.3807,-3.3807,-3.3807,-3.3807,-3.3807,-3.3807,-3.3807,-3.3807,-3.3807,-3.4054,-3.4375,-3.4697,-3.4524,-3.466,-3.5127,-3.4228,-3.4475,-3.5678,-3.5219,-3.5662,-3.6885,-3.7296,-3.7449,-3.7454,-3.8328,-3.8193,-3.7496,-3.8358,-3.8432,-3.8102,-3.8542,-3.8707,-3.8707,-2.6004,-2.6664,-2.7272,-2.7577,-2.7365,-2.7155,-2.7168,-2.6897,-2.6691,-2.6691,-2.6691,-2.6691,-2.6691,-2.6691,-2.6691,-2.6691,-2.6691,-2.6691,-2.6691,-2.6691,-2.6691,-2.6691,-2.6691,-2.6691,-2.6691,-2.6691,-2.6691,-2.6691,-2.6691,-2.6691,-2.6691,-2.6691,-2.6691,-2.6691,-2.6691,-2.6691,-2.6691,-2.6691,-2.6691,-2.6691,-2.6691,-2.6691,-2.6691,-2.6691,-2.6691,-2.6691,-2.6691,-2.6691,-2.6691,-2.6691,-2.6691,-2.6691,-2.6691,-2.6691,-2.6691,-2.6691,-2.6691,-2.6691,-2.6691,-2.747,-2.8459,-2.928,-3.0659,-3.2074,-3.2875,-3.3423,-3.3807,-3.3807,-3.3807,-3.3807,-3.3807,-3.3807,-3.3733,-3.3505,-3.2456,-3.2083,-3.3278,-3.2438,-3.221,-3.3615,-3.3807,-3.3807,-3.3807,-3.3807,-3.3807,-3.3807,-3.3807,-3.3807,-3.3807,-3.3807,-3.3807,-3.3807,-3.4054,-3.4349,-3.4704,-3.4438,-3.4774,-3.5697,-3.4486,-3.4559,-3.5789,-3.5055,-3.5193,-3.6038,-3.6662,-3.6662,-3.6406,-3.7631,-3.7422,-3.6402,-3.7643,-3.7764,-3.7312,-3.812,-3.8414,-3.845,-2.5647,-2.6236,-2.6758,-2.6774,-2.6741,-2.6741,-2.6757,-2.6708,-2.6691,-2.6691,-2.6691,-2.6691,-2.6691,-2.6691,-2.6691,-2.6691,-2.6691,-2.6691,-2.6691,-2.6691,-2.6691,-2.6691,-2.6691,-2.6691,-2.6691,-2.6691,-2.6691,-2.6691,-2.6691,-2.6691,-2.6691,-2.6691,-2.6691,-2.6691,-2.6691,-2.6691,-2.6691,-2.6691,-2.6691,-2.6691,-2.6691,-2.6691,-2.6691,-2.6691,-2.6691,-2.6691,-2.6691,-2.6691,-2.6691,-2.6691,-2.6691,-2.6691,-2.6691,-2.6691,-2.6691,-2.6691,-2.6691,-2.6691,-2.6691,-2.725,-2.8036,-2.8923,-3.0316,-3.1655,-3.2456,-3.3258,-3.3807,-3.3807,-3.3807,-3.3807,-3.3807,-3.3807,-3.3505,-3.2547,-3.2465,-3.2492,-3.2409,-3.2482,-3.2838,-3.3715,-3.3807,-3.3807,-3.3807,-3.3807,-3.3807,-3.3807,-3.3807,-3.3807,-3.3807,-3.3807,-3.3807,-3.3807,-3.4054,-3.4355,-3.4707,-3.4677,-3.483,-3.5164,-3.4495,-3.4229,-3.4338,-3.4025,-3.4331,-3.5108,-3.5174,-3.5614,-3.631,-3.6446,-3.6421,-3.6307,-3.6434,-3.6434,-3.6486,-3.7276,-3.7569,-3.7679,-2.5514,-2.5849,-2.6152,-2.664,-2.6691,-2.6691,-2.6691,-2.6691,-2.6691,-2.6691,-2.6691,-2.6691,-2.6691,-2.6691,-2.6691,-2.6691,-2.6691,-2.6691,-2.6691,-2.6691,-2.6691,-2.6691,-2.6691,-2.6691,-2.6691,-2.6691,-2.6691,-2.6691,-2.6691,-2.6691,-2.6691,-2.6691,-2.6691,-2.6691,-2.6691,-2.6691,-2.6691,-2.6691,-2.6691,-2.6691,-2.6691,-2.6691,-2.6691,-2.6691,-2.6691,-2.6691,-2.6691,-2.6691,-2.6691,-2.6691,-2.6691,-2.6691,-2.6691,-2.6691,-2.6691,-2.6691,-2.6691,-2.6691,-2.6691,-2.708,-2.7739,-2.8815,-2.971,-3.0705,-3.2245,-3.2838,-3.3195,-3.3715,-3.3807,-3.3807,-3.3807,-3.3807,-3.3652,-3.3295,-3.3295,-3.3331,-3.3258,-3.3313,-3.3468,-3.377,-3.3807,-3.3807,-3.3807,-3.3807,-3.3807,-3.3807,-3.3807,-3.3807,-3.3807,-3.3807,-3.3807,-3.3807,-3.388,-3.4191,-3.4705,-3.4489,-3.4871,-3.5818,-3.4716,-3.4832,-3.5964,-3.4458,-3.4348,-3.5293,-3.5081,-3.4908,-3.4842,-3.5883,-3.5671,-3.4844,-3.5882,-3.5965,-3.5598,-3.6442,-3.6743,-3.6853,-2.4818,-2.5279,-2.5765,-2.627,-2.6371,-2.6421,-2.6657,-2.6505,-2.6438,-2.6674,-2.6691,-2.6691,-2.6691,-2.6691,-2.6691,-2.6691,-2.6691,-2.6691,-2.6691,-2.6691,-2.6691,-2.6691,-2.6691,-2.6691,-2.6691,-2.6691,-2.6691,-2.6691,-2.6691,-2.6691,-2.6691,-2.6691,-2.6691,-2.6691,-2.6691,-2.6691,-2.6691,-2.6691,-2.6691,-2.6691,-2.6691,-2.6691,-2.6691,-2.6691,-2.6691,-2.6691,-2.6691,-2.6691,-2.6691,-2.6691,-2.6691,-2.6691,-2.6691,-2.6691,-2.6708,-2.6843,-2.6911,-2.6928,-2.7046,-2.7267,-2.7657,-2.8356,-2.8984,-2.9829,-3.1334,-3.2161,-3.2757,-3.3313,-3.3615,-3.3807,-3.3807,-3.3807,-3.3807,-3.3807,-3.3807,-3.3807,-3.3807,-3.3807,-3.3807,-3.3807,-3.3807,-3.3807,-3.3807,-3.3807,-3.3807,-3.3807,-3.3807,-3.3807,-3.3807,-3.3807,-3.3807,-3.3807,-3.3807,-3.4036,-3.4531,-3.4414,-3.4883,-3.5911,-3.4941,-3.5172,-3.6424,-3.4814,-3.4444,-3.5063,-3.4833,-3.4402,-3.388,-3.5026,-3.4833,-3.3899,-3.5073,-3.5156,-3.4714,-3.557,-3.5891,-3.6009,-2.3397,-2.4563,-2.5598,-2.5615,-2.5615,-2.5866,-2.6607,-2.6084,-2.5866,-2.659,-2.6691,-2.6691,-2.6691,-2.6691,-2.6691,-2.6691,-2.6691,-2.6691,-2.6691,-2.6691,-2.6691,-2.6691,-2.6691,-2.6691,-2.6691,-2.6691,-2.6691,-2.6691,-2.6691,-2.6691,-2.6691,-2.6691,-2.6691,-2.6691,-2.6691,-2.6691,-2.6691,-2.6691,-2.6691,-2.6691,-2.6691,-2.6691,-2.6691,-2.6691,-2.6691,-2.6691,-2.6691,-2.6691,-2.6691,-2.6691,-2.6691,-2.6691,-2.6691,-2.6691,-2.6792,-2.7182,-2.73,-2.7402,-2.7809,-2.7895,-2.7809,-2.7385,-2.8202,-2.9182,-2.954,-3.1151,-3.2592,-3.2592,-3.324,-3.377,-3.377,-3.3788,-3.3788,-3.3788,-3.3788,-3.3788,-3.377,-3.377,-3.377,-3.377,-3.3788,-3.3788,-3.3788,-3.3788,-3.3788,-3.3788,-3.3788,-3.3788,-3.3807,-3.3807,-3.3807,-3.3807,-3.3807,-3.3944,-3.4191,-3.4527,-3.4845,-3.5109,-3.5109,-3.5096,-3.5106,-3.4827,-3.4528,-3.4191,-3.4209,-3.4054,-3.3807,-3.3807,-3.3807,-3.3807,-3.3807,-3.3807,-3.388,-3.4705,-3.5009,-3.51,-2.33,-2.4149,-2.4999,-2.5514,-2.6034,-2.6468,-2.6675,-2.6527,-2.6438,-2.6674,-2.6691,-2.6691,-2.6691,-2.6691,-2.6691,-2.6691,-2.6691,-2.6691,-2.6691,-2.6691,-2.6691,-2.6691,-2.6691,-2.6691,-2.6691,-2.6691,-2.6691,-2.6691,-2.6691,-2.6691,-2.6691,-2.6691,-2.6691,-2.6691,-2.6691,-2.6691,-2.6691,-2.6691,-2.6691,-2.6691,-2.6691,-2.6691,-2.6691,-2.6691,-2.6691,-2.6691,-2.6691,-2.6691,-2.6691,-2.6691,-2.6691,-2.6691,-2.6691,-2.6691,-2.6708,-2.6826,-2.7078,-2.7334,-2.745,-2.7691,-2.7923,-2.8038,-2.834,-2.8865,-2.9801,-3.0483,-3.109,-3.1636,-3.1961,-3.2103,-3.2127,-3.2573,-3.2787,-3.2214,-3.2588,-3.2761,-3.2192,-3.2129,-3.2122,-3.2118,-3.2617,-3.2965,-3.2952,-3.2952,-3.2952,-3.2952,-3.2947,-3.3195,-3.377,-3.3807,-3.3807,-3.3807,-3.3807,-3.3844,-3.3925,-3.4216,-3.4602,-3.5109,-3.4903,-3.5017,-3.5358,-3.4898,-3.4734,-3.4811,-3.437,-3.4154,-3.4072,-3.3862,-3.3807,-3.3807,-3.3807,-3.3807,-3.3825,-3.4072,-3.4164,-3.4284,-2.3039,-2.3807,-2.4619,-2.5262,-2.5849,-2.6334,-2.6653,-2.6597,-2.6539,-2.6674,-2.6691,-2.6691,-2.6691,-2.6691,-2.6691,-2.6691,-2.6691,-2.6691,-2.6691,-2.6691,-2.6691,-2.6691,-2.6691,-2.6691,-2.6691,-2.6691,-2.6691,-2.6691,-2.6691,-2.6691,-2.6691,-2.6691,-2.6691,-2.6691,-2.6691,-2.6691,-2.6691,-2.6691,-2.6691,-2.6691,-2.6691,-2.6691,-2.6691,-2.6691,-2.6691,-2.6691,-2.6691,-2.6691,-2.6691,-2.6691,-2.6691,-2.6691,-2.6691,-2.6691,-2.6708,-2.6911,-2.7226,-2.7576,-2.7689,-2.8017,-2.8397,-2.8578,-2.8517,-2.8607,-2.932,-2.9863,-3.0332,-3.0822,-3.1172,-3.1389,-3.1385,-3.1801,-3.1978,-3.1462,-3.1799,-3.1953,-3.1458,-3.1396,-3.1414,-3.1403,-3.1829,-3.2122,-3.2125,-3.2125,-3.2125,-3.2125,-3.2148,-3.2488,-3.3293,-3.333,-3.3476,-3.3788,-3.3807,-3.3807,-3.3807,-3.3962,-3.434,-3.4926,-3.487,-3.5089,-3.5474,-3.5166,-3.5037,-3.5081,-3.4699,-3.4405,-3.4191,-3.4036,-3.388,-3.3807,-3.3807,-3.3807,-3.3807,-3.3807,-3.3807,-3.3862,-2.2737,-2.3574,-2.4436,-2.4854,-2.5229,-2.5749,-2.657,-2.6454,-2.6387,-2.6775,-2.6809,-2.6792,-2.6775,-2.6759,-2.6725,-2.6691,-2.6691,-2.6691,-2.6691,-2.6691,-2.6691,-2.6691,-2.6691,-2.6691,-2.6691,-2.6691,-2.6691,-2.6691,-2.6691,-2.6691,-2.6691,-2.6691,-2.6691,-2.6691,-2.6691,-2.6691,-2.6691,-2.6691,-2.6691,-2.6691,-2.6691,-2.6691,-2.6691,-2.6691,-2.6691,-2.6691,-2.6691,-2.6691,-2.6691,-2.6691,-2.6708,-2.6759,-2.6759,-2.6792,-2.6894,-2.725,-2.764,-2.8001,-2.8323,-2.8695,-2.8994,-2.8994,-2.8714,-2.8453,-2.8453,-2.9297,-3.0088,-3.0088,-3.0673,-3.1182,-3.1189,-3.1237,-3.1256,-3.1201,-3.1237,-3.1256,-3.1201,-3.1182,-3.1182,-3.1182,-3.1237,-3.1274,-3.1274,-3.1274,-3.1274,-3.1274,-3.1274,-3.1641,-3.2467,-3.2504,-3.2871,-3.3678,-3.3697,-3.3733,-3.3807,-3.3807,-3.408,-3.467,-3.4926,-3.5196,-3.5455,-3.5474,-3.5345,-3.5091,-3.5067,-3.4756,-3.4238,-3.4223,-3.4052,-3.3844,-3.3844,-3.3844,-3.3844,-3.3844,-3.3852,-3.3887,-2.3101,-2.3735,-2.432,-2.4428,-2.5023,-2.5754,-2.6579,-2.664,-2.6826,-2.7538,-2.764,-2.7521,-2.7199,-2.7182,-2.7046,-2.6708,-2.6691,-2.6691,-2.6691,-2.6691,-2.6691,-2.6691,-2.6691,-2.6691,-2.6691,-2.6691,-2.6691,-2.6691,-2.6691,-2.6691,-2.6691,-2.6691,-2.6691,-2.6691,-2.6691,-2.6691,-2.6691,-2.6691,-2.6691,-2.6691,-2.6691,-2.6691,-2.6691,-2.6691,-2.6691,-2.6691,-2.6691,-2.6691,-2.6691,-2.6691,-2.6911,-2.7182,-2.7182,-2.7385,-2.7657,-2.7742,-2.8031,-2.8291,-2.8377,-2.8695,-2.8994,-2.8994,-2.8938,-2.8883,-2.8883,-2.9072,-2.926,-2.926,-2.9407,-2.9512,-2.9531,-3.0044,-3.0246,-2.9622,-3.0063,-3.0246,-2.9622,-2.9531,-2.9531,-2.9531,-3.0081,-3.0467,-3.0467,-3.0467,-3.0467,-3.0467,-3.0467,-3.0815,-3.1623,-3.1659,-3.2027,-3.2834,-3.2871,-3.3164,-3.3788,-3.3807,-3.396,-3.4308,-3.4621,-3.492,-3.5185,-3.5397,-3.535,-3.5097,-3.4865,-3.4706,-3.4573,-3.4315,-3.4176,-3.4109,-3.4109,-3.4109,-3.4109,-3.4109,-3.4289,-3.4512,-2.3447,-2.3876,-2.4319,-2.4504,-2.5057,-2.5743,-2.6578,-2.6831,-2.7179,-2.7823,-2.7904,-2.7823,-2.7617,-2.7569,-2.7493,-2.7291,-2.7112,-2.6979,-2.6979,-2.6809,-2.6691,-2.6691,-2.6691,-2.6691,-2.6691,-2.6691,-2.6691,-2.6691,-2.6691,-2.6691,-2.6691,-2.6691,-2.6691,-2.6691,-2.6691,-2.6691,-2.6691,-2.6691,-2.6691,-2.6691,-2.6691,-2.6807,-2.695,-2.6757,-2.6809,-2.6979,-2.6979,-2.7097,-2.7233,-2.7063,-2.725,-2.7586,-2.7589,-2.7734,-2.7904,-2.7904,-2.8127,-2.8413,-2.8397,-2.8695,-2.8994,-2.8994,-2.8994,-2.8994,-2.8994,-2.8994,-2.8994,-2.8994,-2.8994,-2.8994,-2.8994,-2.9347,-2.9494,-2.9067,-2.9342,-2.9494,-2.9049,-2.8994,-2.8994,-2.8994,-2.9384,-2.9641,-2.9641,-2.9641,-2.9641,-2.9641,-2.9989,-3.0612,-3.1533,-3.1832,-3.2397,-3.3321,-3.3358,-3.3561,-3.3986,-3.3986,-3.4067,-3.4197,-3.4377,-3.462,-3.4917,-3.5051,-3.504,-3.4903,-3.4756,-3.4604,-3.445,-3.4263,-3.4118,-3.3998,-3.3994,-3.4017,-3.4023,-3.4005,-3.4132,-3.4289,-2.3803,-2.4005,-2.4319,-2.4652,-2.4984,-2.5485,-2.6338,-2.6698,-2.7118,-2.7793,-2.7866,-2.7926,-2.7981,-2.7883,-2.7795,-2.7791,-2.7484,-2.7298,-2.7298,-2.7043,-2.6873,-2.6825,-2.6808,-2.6791,-2.6691,-2.6691,-2.6691,-2.6691,-2.6691,-2.6691,-2.6691,-2.6691,-2.6691,-2.6691,-2.6691,-2.6691,-2.6691,-2.6691,-2.6758,-2.6808,-2.6808,-2.7031,-2.7377,-2.7046,-2.7094,-2.7385,-2.7385,-2.7623,-2.7827,-2.7511,-2.7673,-2.7993,-2.7983,-2.8017,-2.8095,-2.8095,-2.8283,-2.8507,-2.8507,-2.875,-2.8994,-2.8994,-2.8994,-2.8994,-2.8994,-2.8994,-2.8994,-2.8994,-2.8994,-2.8994,-2.8994,-2.8994,-2.8994,-2.8994,-2.8994,-2.8994,-2.8994,-2.8994,-2.8994,-2.8994,-2.8994,-2.8994,-2.8994,-2.8994,-2.8994,-2.8994,-2.9779,-3.066,-3.1539,-3.2191,-3.3006,-3.4027,-3.4045,-3.412,-3.4269,-3.4288,-3.4288,-3.4288,-3.429,-3.4414,-3.4604,-3.4666,-3.4658,-3.4614,-3.4614,-3.4442,-3.4212,-3.4193,-3.4054,-3.3872,-3.3858,-3.3868,-3.3891,-3.3938,-3.3977,-3.4049,-2.4135,-2.4171,-2.4208,-2.4282,-2.4337,-2.4652,-2.5447,-2.56,-2.6186,-2.7624,-2.7812,-2.7944,-2.8301,-2.7766,-2.7388,-2.7374,-2.7344,-2.7309,-2.7309,-2.7572,-2.756,-2.7224,-2.721,-2.7051,-2.6725,-2.6691,-2.6691,-2.6691,-2.6691,-2.6691,-2.6691,-2.6691,-2.6691,-2.6691,-2.6691,-2.6691,-2.6691,-2.6691,-2.6906,-2.721,-2.721,-2.747,-2.7816,-2.7769,-2.777,-2.781,-2.781,-2.7827,-2.7889,-2.7843,-2.8039,-2.833,-2.8328,-2.8562,-2.8865,-2.8865,-2.8883,-2.892,-2.892,-2.8957,-2.8994,-2.8994,-2.8994,-2.8994,-2.8994,-2.8994,-2.8994,-2.8994,-2.8994,-2.8994,-2.8994,-2.8994,-2.8994,-2.8994,-2.8994,-2.8994,-2.8994,-2.8994,-2.8994,-2.8994,-2.8994,-2.8994,-2.8994,-2.8994,-2.8994,-2.8994,-2.9968,-3.0605,-3.0758,-3.171,-3.2656,-3.3486,-3.3505,-3.3862,-3.4632,-3.4632,-3.4632,-3.4632,-3.463,-3.4505,-3.4274,-3.4569,-3.4548,-3.4288,-3.4288,-3.4242,-3.4208,-3.419,-3.4166,-3.4154,-3.4162,-3.4148,-3.4179,-3.4475,-3.4734,-3.4898,-2.419,-2.419,-2.419,-2.419,-2.419,-2.4467,-2.528,-2.5401,-2.5816,-2.6969,-2.7523,-2.7866,-2.8036,-2.7763,-2.7583,-2.7597,-2.7361,-2.7431,-2.7885,-2.7918,-2.7811,-2.7648,-2.7636,-2.753,-2.7378,-2.7147,-2.7036,-2.7036,-2.6808,-2.6691,-2.6691,-2.6691,-2.6691,-2.6691,-2.6691,-2.6691,-2.6691,-2.6691,-2.6808,-2.6954,-2.6954,-2.7317,-2.789,-2.7665,-2.7835,-2.8144,-2.7956,-2.8172,-2.846,-2.8264,-2.8429,-2.8732,-2.8732,-2.8865,-2.8994,-2.8994,-2.8994,-2.8994,-2.8994,-2.8994,-2.8994,-2.8994,-2.8994,-2.8994,-2.8994,-2.8994,-2.8994,-2.8994,-2.8994,-2.8994,-2.8994,-2.8994,-2.8994,-2.8994,-2.8994,-2.8994,-2.8994,-2.8994,-2.8994,-2.8994,-2.8994,-2.8994,-2.8994,-2.8994,-2.8994,-2.8994,-2.9853,-3.0435,-3.059,-3.1478,-3.22,-3.2713,-3.3297,-3.3824,-3.4186,-3.4679,-3.4926,-3.4926,-3.4774,-3.4607,-3.4483,-3.4628,-3.4617,-3.4484,-3.4473,-3.4486,-3.4486,-3.4486,-3.447,-3.4473,-3.448,-3.4465,-3.4498,-3.4649,-3.4773,-3.487]}]]